| time (UTC) | temp C | wind direction | speed KPH | gust KPH | rain 1hr cm | rain 24hr cm | rain mn cm | humidity % | barometer mb |
| 20260831220621 | 31 | 85 | 8.0 | 12.9 | 0.00 | 0.00 | 0.00 | 46 | 1012.3 |
| 20260831220505 | 31 | 56 | 6.4 | 12.9 | 0.00 | 0.00 | 0.00 | 47 | 1012.2 |
| 20260831220410 | 31 | 90 | 4.8 | 11.3 | 0.00 | 0.00 | 0.00 | 47 | 1012.2 |
| 20260831220314 | 31 | 63 | 4.8 | 9.7 | 0.00 | 0.00 | 0.00 | 48 | 1012.2 |
| 20260831220202 | 31 | 50 | 6.4 | 9.7 | 0.00 | 0.00 | 0.00 | 48 | 1012.2 |
| 20260831220107 | 31 | 76 | 6.4 | 9.7 | 0.00 | 0.00 | 0.00 | 47 | 1012.2 |
| 20260831220012 | 31 | 72 | 6.4 | 9.7 | 0.00 | 0.00 | 0.00 | 49 | 1012.2 |
| 20260831215857 | 31 | 98 | 4.8 | 11.3 | 0.00 | 0.00 | 0.00 | 51 | 1012.2 |
| 20260831215802 | 31 | 61 | 4.8 | 8.0 | 0.00 | 0.00 | 0.00 | 52 | 1012.2 |
| 20260831215707 | 31 | 61 | 4.8 | 8.0 | 0.00 | 0.00 | 0.00 | 52 | 1012.2 |
| 20260831215616 | 31 | 57 | 4.8 | 8.0 | 0.00 | 0.00 | 0.00 | 51 | 1012.2 |
| 20260831215454 | 31 | 59 | 4.8 | 8.0 | 0.00 | 0.00 | 0.00 | 51 | 1012.3 |
| 20260831215400 | 31 | 59 | 3.2 | 6.4 | 0.00 | 0.00 | 0.00 | 53 | 1012.2 |
| 20260831215306 | 31 | 55 | 3.2 | 9.7 | 0.00 | 0.00 | 0.00 | 51 | 1012.2 |
| 20260831215209 | 31 | 55 | 4.8 | 9.7 | 0.00 | 0.00 | 0.00 | 50 | 1012.2 |
| 20260831215058 | 31 | 57 | 4.8 | 12.9 | 0.00 | 0.00 | 0.00 | 51 | 1012.3 |
| 20260831215001 | 31 | 57 | 4.8 | 12.9 | 0.00 | 0.00 | 0.00 | 51 | 1012.3 |
| 20260831214906 | 31 | 57 | 4.8 | 12.9 | 0.00 | 0.00 | 0.00 | 51 | 1012.2 |
| 20260831214810 | 31 | 57 | 3.2 | 12.9 | 0.00 | 0.00 | 0.00 | 52 | 1012.2 |
| 20260831214655 | 31 | 55 | 4.8 | 12.9 | 0.00 | 0.00 | 0.00 | 52 | 1012.2 |
| 20260831214620 | 31 | 56 | 6.4 | 12.9 | 0.00 | 0.00 | 0.00 | 50 | 1012.2 |
| 20260831214504 | 31 | 44 | 4.8 | 12.9 | 0.00 | 0.00 | 0.00 | 48 | 1012.2 |
| 20260831214412 | 31 | 44 | 6.4 | 12.9 | 0.00 | 0.00 | 0.00 | 48 | 1012.2 |
| 20260831214257 | 31 | 76 | 6.4 | 12.9 | 0.00 | 0.00 | 0.00 | 49 | 1012.2 |
| 20260831214202 | 31 | 64 | 4.8 | 11.3 | 0.00 | 0.00 | 0.00 | 50 | 1012.2 |
| 20260831214106 | 31 | 69 | 4.8 | 11.3 | 0.00 | 0.00 | 0.00 | 50 | 1012.2 |
| 20260831214010 | 31 | 90 | 6.4 | 11.3 | 0.00 | 0.00 | 0.00 | 50 | 1012.2 |
| 20260831213859 | 31 | 92 | 6.4 | 11.3 | 0.00 | 0.00 | 0.00 | 48 | 1012.2 |
| 20260831213804 | 31 | 86 | 6.4 | 11.3 | 0.00 | 0.00 | 0.00 | 49 | 1012.1 |
| 20260831213708 | 31 | 98 | 4.8 | 11.3 | 0.00 | 0.00 | 0.00 | 50 | 1012.1 |
| 20260831213613 | 31 | 87 | 4.8 | 9.7 | 0.00 | 0.00 | 0.00 | 51 | 1012.2 |
| 20260831213518 | 31 | 58 | 4.8 | 9.7 | 0.00 | 0.00 | 0.00 | 51 | 1012.1 |
| 20260831213401 | 31 | 58 | 6.4 | 11.3 | 0.00 | 0.00 | 0.00 | 53 | 1012.1 |
| 20260831213307 | 31 | 51 | 6.4 | 11.3 | 0.00 | 0.00 | 0.00 | 52 | 1012.1 |
| 20260831213155 | 31 | 42 | 4.8 | 11.3 | 0.00 | 0.00 | 0.00 | 52 | 1012.2 |
| 20260831213100 | 31 | 78 | 4.8 | 11.3 | 0.00 | 0.00 | 0.00 | 52 | 1012.1 |
| 20260831213004 | 31 | 80 | 4.8 | 11.3 | 0.00 | 0.00 | 0.00 | 52 | 1012.1 |
| 20260831212909 | 31 | 42 | 4.8 | 11.3 | 0.00 | 0.00 | 0.00 | 54 | 1012.1 |
| 20260831212755 | 31 | 51 | 6.4 | 11.3 | 0.00 | 0.00 | 0.00 | 53 | 1012.2 |
| 20260831212659 | 31 | 43 | 6.4 | 11.3 | 0.00 | 0.00 | 0.00 | 54 | 1012.1 |
| 20260831212608 | 31 | 83 | 4.8 | 11.3 | 0.00 | 0.00 | 0.00 | 53 | 1012.1 |
| 20260831212512 | 31 | 70 | 4.8 | 9.7 | 0.00 | 0.00 | 0.00 | 53 | 1012.1 |
| 20260831212417 | 31 | 67 | 6.4 | 9.7 | 0.00 | 0.00 | 0.00 | 52 | 1012.1 |
| 20260831212301 | 31 | 69 | 6.4 | 9.7 | 0.00 | 0.00 | 0.00 | 49 | 1012.1 |
| 20260831212206 | 31 | 56 | 6.4 | 9.7 | 0.00 | 0.00 | 0.00 | 48 | 1012.1 |
| 20260831212111 | 31 | 71 | 6.4 | 12.9 | 0.00 | 0.00 | 0.00 | 49 | 1012.1 |
| 20260831212021 | 31 | 69 | 6.4 | 12.9 | 0.00 | 0.00 | 0.00 | 47 | 1012.1 |
| 20260831211904 | 31 | 82 | 6.4 | 12.9 | 0.00 | 0.00 | 0.00 | 47 | 1012.1 |
| 20260831211809 | 31 | 38 | 4.8 | 12.9 | 0.00 | 0.00 | 0.00 | 46 | 1012.1 |
| 20260831211713 | 31 | 57 | 4.8 | 17.7 | 0.00 | 0.00 | 0.00 | 47 | 1012.0 |
| 20260831211558 | 31 | 60 | 6.4 | 17.7 | 0.00 | 0.00 | 0.00 | 46 | 1012.0 |
| 20260831211503 | 31 | 77 | 6.4 | 17.7 | 0.00 | 0.00 | 0.00 | 47 | 1012.0 |
| 20260831211408 | 31 | 78 | 8.0 | 17.7 | 0.00 | 0.00 | 0.00 | 46 | 1012.0 |
| 20260831211317 | 31 | 65 | 8.0 | 17.7 | 0.00 | 0.00 | 0.00 | 47 | 1012.0 |
| 20260831211154 | 31 | 123 | 6.4 | 17.7 | 0.00 | 0.00 | 0.00 | 49 | 1012.0 |
| 20260831211059 | 31 | 66 | 6.4 | 17.7 | 0.00 | 0.00 | 0.00 | 48 | 1012.0 |
| 20260831211023 | 31 | 70 | 9.7 | 17.7 | 0.00 | 0.00 | 0.00 | 47 | 1012.0 |
| 20260831210907 | 31 | 74 | 9.7 | 17.7 | 0.00 | 0.00 | 0.00 | 50 | 1012.0 |
| 20260831210812 | 31 | 59 | 9.7 | 17.7 | 0.00 | 0.00 | 0.00 | 50 | 1012.1 |
| 20260831210702 | 31 | 68 | 9.7 | 17.7 | 0.00 | 0.00 | 0.00 | 49 | 1012.1 |
| 20260831210605 | 31 | 71 | 9.7 | 17.7 | 0.00 | 0.00 | 0.00 | 50 | 1012.1 |
| 20260831210529 | 31 | 37 | 11.3 | 17.7 | 0.00 | 0.00 | 0.00 | 52 | 1012.1 |
| 20260831210413 | 31 | 27 | 9.7 | 16.1 | 0.00 | 0.00 | 0.00 | 50 | 1012.1 |
| 20260831210318 | 31 | 76 | 8.0 | 16.1 | 0.00 | 0.00 | 0.00 | 52 | 1012.1 |
| 20260831210202 | 31 | 109 | 6.4 | 14.5 | 0.00 | 0.00 | 0.00 | 53 | 1012.0 |
| 20260831210106 | 31 | 110 | 8.0 | 14.5 | 0.00 | 0.00 | 0.00 | 53 | 1012.0 |
| 20260831205954 | 31 | 62 | 9.7 | 14.5 | 0.00 | 0.00 | 0.00 | 52 | 1012.0 |
| 20260831205900 | 31 | 74 | 8.0 | 14.5 | 0.00 | 0.00 | 0.00 | 52 | 1012.0 |
| 20260831205804 | 31 | 77 | 8.0 | 14.5 | 0.00 | 0.00 | 0.00 | 52 | 1012.0 |
| 20260831205709 | 31 | 96 | 6.4 | 14.5 | 0.00 | 0.00 | 0.00 | 51 | 1012.0 |
| 20260831205613 | 31 | 98 | 6.4 | 14.5 | 0.00 | 0.00 | 0.00 | 52 | 1012.1 |
| 20260831205458 | 31 | 94 | 4.8 | 14.5 | 0.00 | 0.00 | 0.00 | 52 | 1012.1 |
| 20260831205406 | 31 | 94 | 8.0 | 14.5 | 0.00 | 0.00 | 0.00 | 52 | 1012.1 |
| 20260831205311 | 31 | 94 | 8.0 | 14.5 | 0.00 | 0.00 | 0.00 | 51 | 1012.1 |
| 20260831205235 | 31 | 97 | 8.0 | 14.5 | 0.00 | 0.00 | 0.00 | 52 | 1012.1 |
| 20260831205139 | 31 | 84 | 8.0 | 14.5 | 0.00 | 0.00 | 0.00 | 51 | 1012.0 |
| 20260831204956 | 31 | 104 | 8.0 | 14.5 | 0.00 | 0.00 | 0.00 | 51 | 1012.1 |
| 20260831204901 | 31 | 97 | 8.0 | 14.5 | 0.00 | 0.00 | 0.00 | 51 | 1012.0 |
| 20260831204805 | 31 | 81 | 8.0 | 14.5 | 0.00 | 0.00 | 0.00 | 49 | 1012.0 |
| 20260831204655 | 31 | 84 | 6.4 | 11.3 | 0.00 | 0.00 | 0.00 | 51 | 1012.0 |
| 20260831204558 | 31 | 95 | 4.8 | 9.7 | 0.00 | 0.00 | 0.00 | 51 | 1012.0 |
| 20260831204502 | 32 | 65 | 4.8 | 9.7 | 0.00 | 0.00 | 0.00 | 53 | 1012.0 |
| 20260831204406 | 32 | 69 | 4.8 | 9.7 | 0.00 | 0.00 | 0.00 | 51 | 1012.0 |
| 20260831204331 | 32 | 78 | 4.8 | 9.7 | 0.00 | 0.00 | 0.00 | 51 | 1012.0 |
| 20260831204155 | 32 | 84 | 6.4 | 12.9 | 0.00 | 0.00 | 0.00 | 49 | 1012.0 |
| 20260831204120 | 32 | 70 | 3.2 | 14.5 | 0.00 | 0.00 | 0.00 | 51 | 1012.0 |
| 20260831204007 | 32 | 34 | 3.2 | 14.5 | 0.00 | 0.00 | 0.00 | 54 | 1012.0 |
| 20260831203911 | 31 | 17 | 4.8 | 14.5 | 0.00 | 0.00 | 0.00 | 52 | 1012.0 |
| 20260831203816 | 31 | 20 | 4.8 | 16.1 | 0.00 | 0.00 | 0.00 | 53 | 1012.0 |
| 20260831203721 | 31 | 36 | 6.4 | 16.1 | 0.00 | 0.00 | 0.00 | 54 | 1012.0 |
| 20260831203603 | 31 | 39 | 6.4 | 16.1 | 0.00 | 0.00 | 0.00 | 53 | 1012.1 |
| 20260831203509 | 31 | 46 | 6.4 | 16.1 | 0.00 | 0.00 | 0.00 | 53 | 1012.1 |
| 20260831203357 | 31 | 26 | 8.0 | 16.1 | 0.00 | 0.00 | 0.00 | 55 | 1012.0 |
| 20260831203302 | 31 | 31 | 9.7 | 16.1 | 0.00 | 0.00 | 0.00 | 54 | 1012.0 |
| 20260831203207 | 31 | 355 | 8.0 | 16.1 | 0.00 | 0.00 | 0.00 | 55 | 1012.0 |
| 20260831203112 | 31 | 21 | 6.4 | 16.1 | 0.00 | 0.00 | 0.00 | 52 | 1012.0 |
| 20260831202957 | 31 | 90 | 6.4 | 16.1 | 0.00 | 0.00 | 0.00 | 54 | 1012.0 |
| 20260831202902 | 31 | 76 | 6.4 | 14.5 | 0.00 | 0.00 | 0.00 | 53 | 1012.0 |
| 20260831202811 | 31 | 76 | 6.4 | 16.1 | 0.00 | 0.00 | 0.00 | 53 | 1012.0 |
| 20260831202735 | 31 | 79 | 6.4 | 16.1 | 0.00 | 0.00 | 0.00 | 54 | 1012.0 |
| 20260831202618 | 31 | 40 | 6.4 | 16.1 | 0.00 | 0.00 | 0.00 | 53 | 1012.0 |
| 20260831202456 | 31 | 62 | 6.4 | 16.1 | 0.00 | 0.00 | 0.00 | 53 | 1012.0 |
| 20260831202421 | 31 | 72 | 8.0 | 16.1 | 0.00 | 0.00 | 0.00 | 55 | 1012.1 |
| 20260831202306 | 31 | 59 | 8.0 | 16.1 | 0.00 | 0.00 | 0.00 | 54 | 1012.1 |
| 20260831202210 | 31 | 120 | 9.7 | 16.1 | 0.00 | 0.00 | 0.00 | 54 | 1012.1 |
| 20260831202118 | 31 | 86 | 12.9 | 16.1 | 0.00 | 0.00 | 0.00 | 54 | 1012.0 |
| 20260831201956 | 31 | 96 | 9.7 | 16.1 | 0.00 | 0.00 | 0.00 | 55 | 1012.0 |
| 20260831201921 | 31 | 83 | 6.4 | 14.5 | 0.00 | 0.00 | 0.00 | 56 | 1012.0 |
| 20260831201805 | 31 | 88 | 6.4 | 14.5 | 0.00 | 0.00 | 0.00 | 57 | 1012.0 |
| 20260831201710 | 31 | 61 | 6.4 | 14.5 | 0.00 | 0.00 | 0.00 | 59 | 1012.0 |
| 20260831201556 | 31 | 25 | 9.7 | 14.5 | 0.00 | 0.00 | 0.00 | 55 | 1012.0 |
| 20260831201504 | 31 | 94 | 9.7 | 14.5 | 0.00 | 0.00 | 0.00 | 55 | 1012.0 |
| 20260831201409 | 31 | 96 | 9.7 | 14.5 | 0.00 | 0.00 | 0.00 | 56 | 1012.0 |
| 20260831201254 | 31 | 117 | 8.0 | 14.5 | 0.00 | 0.00 | 0.00 | 55 | 1011.9 |
| 20260831201159 | 31 | 106 | 9.7 | 14.5 | 0.00 | 0.00 | 0.00 | 56 | 1012.0 |
| 20260831201103 | 31 | 90 | 9.7 | 14.5 | 0.00 | 0.00 | 0.00 | 56 | 1012.0 |
| 20260831201007 | 31 | 105 | 9.7 | 14.5 | 0.00 | 0.00 | 0.00 | 58 | 1012.0 |
| 20260831200916 | 31 | 73 | 8.0 | 14.5 | 0.00 | 0.00 | 0.00 | 58 | 1012.0 |
| 20260831200754 | 31 | 80 | 6.4 | 16.1 | 0.00 | 0.00 | 0.00 | 59 | 1012.0 |
| 20260831200659 | 31 | 101 | 6.4 | 16.1 | 0.00 | 0.00 | 0.00 | 59 | 1011.9 |
| 20260831200625 | 31 | 113 | 6.4 | 16.1 | 0.00 | 0.00 | 0.00 | 58 | 1012.0 |
| 20260831200528 | 31 | 69 | 8.0 | 16.1 | 0.00 | 0.00 | 0.00 | 57 | 1012.0 |
| 20260831200412 | 31 | 111 | 9.7 | 16.1 | 0.00 | 0.00 | 0.00 | 58 | 1012.0 |
| 20260831200257 | 31 | 79 | 8.0 | 16.1 | 0.00 | 0.00 | 0.00 | 58 | 1012.0 |
| 20260831200206 | 31 | 77 | 9.7 | 16.1 | 0.00 | 0.00 | 0.00 | 58 | 1011.9 |
| 20260831200130 | 31 | 105 | 9.7 | 16.1 | 0.00 | 0.00 | 0.00 | 58 | 1011.9 |
| 20260831200013 | 31 | 111 | 9.7 | 16.1 | 0.00 | 0.00 | 0.00 | 58 | 1011.9 |
| 20260831195858 | 31 | 88 | 6.4 | 14.5 | 0.00 | 0.00 | 0.00 | 58 | 1011.9 |
| 20260831195803 | 31 | 100 | 9.7 | 14.5 | 0.00 | 0.00 | 0.00 | 58 | 1011.9 |
| 20260831195728 | 31 | 94 | 11.3 | 14.5 | 0.00 | 0.00 | 0.00 | 59 | 1011.9 |
| 20260831195612 | 31 | 119 | 9.7 | 14.5 | 0.00 | 0.00 | 0.00 | 59 | 1011.9 |
| 20260831195519 | 31 | 98 | 9.7 | 14.5 | 0.00 | 0.00 | 0.00 | 59 | 1011.9 |
| 20260831195403 | 31 | 78 | 8.0 | 16.1 | 0.00 | 0.00 | 0.00 | 59 | 1011.9 |
| 20260831195308 | 31 | 96 | 6.4 | 16.1 | 0.00 | 0.00 | 0.00 | 60 | 1011.9 |
| 20260831195213 | 31 | 55 | 4.8 | 16.1 | 0.00 | 0.00 | 0.00 | 60 | 1011.9 |
| 20260831195119 | 31 | 26 | 4.8 | 16.1 | 0.00 | 0.00 | 0.00 | 60 | 1011.9 |
| 20260831194955 | 31 | 59 | 6.4 | 16.1 | 0.00 | 0.00 | 0.00 | 61 | 1011.9 |
| 20260831194904 | 31 | 43 | 6.4 | 16.1 | 0.00 | 0.00 | 0.00 | 63 | 1011.9 |
| 20260831194809 | 31 | 30 | 4.8 | 16.1 | 0.00 | 0.00 | 0.00 | 62 | 1011.9 |
| 20260831194654 | 31 | 64 | 6.4 | 16.1 | 0.00 | 0.00 | 0.00 | 59 | 1011.9 |
| 20260831194559 | 31 | 64 | 8.0 | 16.1 | 0.00 | 0.00 | 0.00 | 60 | 1011.9 |
| 20260831194505 | 31 | 113 | 6.4 | 16.1 | 0.00 | 0.00 | 0.00 | 62 | 1011.9 |
| 20260831194408 | 31 | 111 | 4.8 | 16.1 | 0.00 | 0.00 | 0.00 | 58 | 1011.9 |
| 20260831194257 | 31 | 88 | 3.2 | 20.9 | 0.00 | 0.00 | 0.00 | 60 | 1011.8 |
| 20260831194202 | 31 | 89 | 4.8 | 22.5 | 0.00 | 0.00 | 0.00 | 59 | 1011.8 |
| 20260831194107 | 31 | 88 | 6.4 | 22.5 | 0.00 | 0.00 | 0.00 | 59 | 1011.8 |
| 20260831194012 | 31 | 85 | 9.7 | 22.5 | 0.00 | 0.00 | 0.00 | 59 | 1011.9 |
| 20260831193916 | 31 | 76 | 11.3 | 22.5 | 0.00 | 0.00 | 0.00 | 61 | 1011.9 |
| 20260831193800 | 31 | 69 | 9.7 | 22.5 | 0.00 | 0.00 | 0.00 | 61 | 1011.9 |
| 20260831193724 | 31 | 71 | 8.0 | 22.5 | 0.00 | 0.00 | 0.00 | 62 | 1011.9 |
| 20260831193612 | 31 | 44 | 11.3 | 22.5 | 0.00 | 0.00 | 0.00 | 62 | 1011.9 |
| 20260831193458 | 31 | 61 | 14.5 | 22.5 | 0.00 | 0.00 | 0.00 | 64 | 1011.9 |
| 20260831193402 | 31 | 28 | 9.7 | 22.5 | 0.00 | 0.00 | 0.00 | 65 | 1011.9 |
| 20260831193306 | 31 | 26 | 4.8 | 16.1 | 0.00 | 0.00 | 0.00 | 63 | 1011.9 |
| 20260831193211 | 31 | 32 | 3.2 | 16.1 | 0.00 | 0.00 | 0.00 | 63 | 1011.9 |
| 20260831193100 | 31 | 137 | 3.2 | 16.1 | 0.00 | 0.00 | 0.00 | 60 | 1011.9 |
| 20260831193004 | 31 | 138 | 6.4 | 16.1 | 0.00 | 0.00 | 0.00 | 60 | 1012.0 |
| 20260831192909 | 31 | 90 | 9.7 | 16.1 | 0.00 | 0.00 | 0.00 | 62 | 1012.0 |
| 20260831192754 | 31 | 89 | 8.0 | 19.3 | 0.00 | 0.00 | 0.00 | 62 | 1011.9 |
| 20260831192719 | 31 | 91 | 6.4 | 19.3 | 0.00 | 0.00 | 0.00 | 61 | 1012.0 |
| 20260831192602 | 31 | 82 | 6.4 | 19.3 | 0.00 | 0.00 | 0.00 | 60 | 1012.0 |
| 20260831192507 | 31 | 36 | 8.0 | 19.3 | 0.00 | 0.00 | 0.00 | 62 | 1012.0 |
| 20260831192356 | 31 | 63 | 8.0 | 19.3 | 0.00 | 0.00 | 0.00 | 61 | 1011.9 |
| 20260831192305 | 31 | 60 | 8.0 | 19.3 | 0.00 | 0.00 | 0.00 | 61 | 1011.9 |
| 20260831192206 | 31 | 100 | 8.0 | 19.3 | 0.00 | 0.00 | 0.00 | 63 | 1011.9 |
| 20260831192111 | 31 | 105 | 9.7 | 19.3 | 0.00 | 0.00 | 0.00 | 60 | 1011.9 |
| 20260831191956 | 31 | 80 | 11.3 | 19.3 | 0.00 | 0.00 | 0.00 | 60 | 1011.9 |
| 20260831191905 | 31 | 94 | 11.3 | 17.7 | 0.00 | 0.00 | 0.00 | 61 | 1011.9 |
| 20260831191810 | 31 | 100 | 9.7 | 17.7 | 0.00 | 0.00 | 0.00 | 61 | 1011.9 |
| 20260831191656 | 31 | 87 | 6.4 | 16.1 | 0.00 | 0.00 | 0.00 | 64 | 1011.9 |
| 20260831191620 | 31 | 46 | 4.8 | 16.1 | 0.00 | 0.00 | 0.00 | 64 | 1011.9 |
| 20260831191458 | 31 | 80 | 9.7 | 16.1 | 0.00 | 0.00 | 0.00 | 64 | 1012.0 |
| 20260831191403 | 31 | 66 | 12.9 | 16.1 | 0.00 | 0.00 | 0.00 | 64 | 1012.0 |
| 20260831191311 | 31 | 84 | 9.7 | 16.1 | 0.00 | 0.00 | 0.00 | 62 | 1012.0 |
| 20260831191156 | 31 | 88 | 6.4 | 14.5 | 0.00 | 0.00 | 0.00 | 64 | 1011.9 |
| 20260831191101 | 31 | 32 | 8.0 | 14.5 | 0.00 | 0.00 | 0.00 | 64 | 1011.9 |
| 20260831191005 | 31 | 75 | 8.0 | 14.5 | 0.00 | 0.00 | 0.00 | 64 | 1011.9 |
| 20260831190910 | 31 | 360 | 8.0 | 16.1 | 0.00 | 0.00 | 0.00 | 65 | 1011.9 |
| 20260831190755 | 30 | 32 | 8.0 | 16.1 | 0.00 | 0.00 | 0.00 | 66 | 1011.9 |
| 20260831190704 | 30 | 42 | 6.4 | 16.1 | 0.00 | 0.00 | 0.00 | 65 | 1011.9 |
| 20260831190609 | 30 | 32 | 3.2 | 16.1 | 0.00 | 0.00 | 0.00 | 65 | 1011.9 |
| 20260831190454 | 30 | 49 | 3.2 | 16.1 | 0.00 | 0.00 | 0.00 | 68 | 1011.9 |
| 20260831190359 | 30 | 49 | 4.8 | 16.1 | 0.00 | 0.00 | 0.00 | 69 | 1012.0 |
| 20260831190303 | 30 | 43 | 4.8 | 16.1 | 0.00 | 0.00 | 0.00 | 68 | 1012.0 |
| 20260831190208 | 30 | 96 | 8.0 | 17.7 | 0.00 | 0.00 | 0.00 | 65 | 1012.0 |
| 20260831190117 | 30 | 97 | 11.3 | 17.7 | 0.00 | 0.00 | 0.00 | 64 | 1012.0 |
| 20260831185955 | 30 | 63 | 8.0 | 17.7 | 0.00 | 0.00 | 0.00 | 67 | 1011.9 |
| 20260831185900 | 30 | 48 | 6.4 | 17.7 | 0.00 | 0.00 | 0.00 | 66 | 1012.0 |
| 20260831185825 | 30 | 54 | 9.7 | 17.7 | 0.00 | 0.00 | 0.00 | 64 | 1011.9 |
| 20260831185708 | 30 | 59 | 9.7 | 17.7 | 0.00 | 0.00 | 0.00 | 66 | 1011.9 |
| 20260831185633 | 30 | 96 | 6.4 | 17.7 | 0.00 | 0.00 | 0.00 | 69 | 1012.0 |
| 20260831185500 | 30 | 54 | 8.0 | 17.7 | 0.00 | 0.00 | 0.00 | 67 | 1011.9 |
| 20260831185405 | 30 | 51 | 6.4 | 17.7 | 0.00 | 0.00 | 0.00 | 69 | 1011.9 |
| 20260831185310 | 30 | 45 | 4.8 | 16.1 | 0.00 | 0.00 | 0.00 | 70 | 1011.9 |
| 20260831185214 | 30 | 59 | 6.4 | 16.1 | 0.00 | 0.00 | 0.00 | 70 | 1011.9 |
| 20260831185118 | 30 | 57 | 8.0 | 16.1 | 0.00 | 0.00 | 0.00 | 69 | 1011.9 |
| 20260831185001 | 29 | 54 | 6.4 | 14.5 | 0.00 | 0.00 | 0.00 | 69 | 1011.9 |
| 20260831184907 | 29 | 36 | 3.2 | 12.9 | 0.00 | 0.00 | 0.00 | 70 | 1011.9 |
| 20260831184755 | 29 | 57 | 3.2 | 12.9 | 0.00 | 0.00 | 0.00 | 72 | 1012.0 |
| 20260831184720 | 29 | 57 | 4.8 | 14.5 | 0.00 | 0.00 | 0.00 | 72 | 1011.9 |
| 20260831184604 | 29 | 57 | 6.4 | 14.5 | 0.00 | 0.00 | 0.00 | 71 | 1011.9 |
| 20260831184509 | 29 | 102 | 4.8 | 14.5 | 0.00 | 0.00 | 0.00 | 71 | 1011.9 |
| 20260831184414 | 29 | 101 | 4.8 | 14.5 | 0.00 | 0.00 | 0.00 | 71 | 1012.0 |
| 20260831184339 | 29 | 93 | 6.4 | 14.5 | 0.00 | 0.00 | 0.00 | 71 | 1012.0 |
| 20260831184155 | 29 | 86 | 8.0 | 14.5 | 0.00 | 0.00 | 0.00 | 72 | 1011.9 |
| 20260831184104 | 29 | 111 | 6.4 | 14.5 | 0.00 | 0.00 | 0.00 | 73 | 1012.0 |
| 20260831184009 | 29 | 107 | 8.0 | 14.5 | 0.00 | 0.00 | 0.00 | 72 | 1012.0 |
| 20260831183854 | 29 | 84 | 8.0 | 14.5 | 0.00 | 0.00 | 0.00 | 72 | 1011.9 |
| 20260831183759 | 29 | 108 | 3.2 | 12.9 | 0.00 | 0.00 | 0.00 | 73 | 1011.9 |
| 20260831183702 | 28 | 65 | 3.2 | 12.9 | 0.00 | 0.00 | 0.00 | 73 | 1011.9 |
| 20260831183606 | 28 | 98 | 4.8 | 12.9 | 0.00 | 0.00 | 0.00 | 73 | 1011.9 |
| 20260831183455 | 28 | 99 | 6.4 | 12.9 | 0.00 | 0.00 | 0.00 | 72 | 1011.9 |
| 20260831183400 | 28 | 101 | 6.4 | 12.9 | 0.00 | 0.00 | 0.00 | 71 | 1011.8 |
| 20260831183306 | 29 | 128 | 3.2 | 12.9 | 0.00 | 0.00 | 0.00 | 73 | 1011.8 |
| 20260831183210 | 28 | 111 | 1.6 | 11.3 | 0.00 | 0.00 | 0.00 | 74 | 1011.8 |
| 20260831183115 | 29 | 110 | 3.2 | 11.3 | 0.00 | 0.00 | 0.00 | 73 | 1011.9 |
| 20260831182958 | 28 | 111 | 4.8 | 11.3 | 0.00 | 0.00 | 0.00 | 72 | 1011.8 |
| 20260831182906 | 28 | 110 | 6.4 | 11.3 | 0.00 | 0.00 | 0.00 | 73 | 1011.8 |
| 20260831182811 | 28 | 111 | 6.4 | 11.3 | 0.00 | 0.00 | 0.00 | 71 | 1012.0 |
| 20260831182716 | 29 | 133 | 6.4 | 11.3 | 0.00 | 0.00 | 0.00 | 71 | 1011.9 |
| 20260831182620 | 29 | 131 | 4.8 | 11.3 | 0.00 | 0.00 | 0.00 | 72 | 1012.0 |
| 20260831182503 | 28 | 102 | 4.8 | 11.3 | 0.00 | 0.00 | 0.00 | 73 | 1012.0 |
| 20260831182407 | 28 | 121 | 4.8 | 9.7 | 0.00 | 0.00 | 0.00 | 73 | 1012.0 |
| 20260831182333 | 28 | 70 | 4.8 | 9.7 | 0.00 | 0.00 | 0.00 | 74 | 1011.9 |
| 20260831182200 | 28 | 65 | 4.8 | 9.7 | 0.00 | 0.00 | 0.00 | 74 | 1012.0 |
| 20260831182104 | 28 | 75 | 6.4 | 9.7 | 0.00 | 0.00 | 0.00 | 73 | 1012.0 |
| 20260831182009 | 28 | 87 | 6.4 | 9.7 | 0.00 | 0.00 | 0.00 | 72 | 1012.0 |
| 20260831181855 | 28 | 78 | 8.0 | 11.3 | 0.00 | 0.00 | 0.00 | 74 | 1012.0 |
| 20260831181819 | 28 | 90 | 6.4 | 11.3 | 0.00 | 0.00 | 0.00 | 74 | 1012.0 |
| 20260831181657 | 28 | 130 | 3.2 | 9.7 | 0.00 | 0.00 | 0.00 | 73 | 1012.0 |
| 20260831181605 | 28 | 119 | 3.2 | 9.7 | 0.00 | 0.00 | 0.00 | 73 | 1012.0 |
| 20260831181530 | 28 | 107 | 3.2 | 9.7 | 0.00 | 0.00 | 0.00 | 74 | 1012.0 |
| 20260831181354 | 28 | 107 | 4.8 | 9.7 | 0.00 | 0.00 | 0.00 | 76 | 1012.1 |
| 20260831181258 | 28 | 105 | 4.8 | 9.7 | 0.00 | 0.00 | 0.00 | 76 | 1012.1 |
| 20260831181223 | 28 | 105 | 6.4 | 9.7 | 0.00 | 0.00 | 0.00 | 76 | 1012.1 |
| 20260831181126 | 28 | 80 | 6.4 | 9.7 | 0.00 | 0.00 | 0.00 | 76 | 1012.1 |
| 20260831181010 | 28 | 113 | 4.8 | 9.7 | 0.00 | 0.00 | 0.00 | 75 | 1012.1 |
| 20260831180859 | 28 | 99 | 4.8 | 9.7 | 0.00 | 0.00 | 0.00 | 75 | 1012.2 |
| 20260831180824 | 28 | 65 | 6.4 | 9.7 | 0.00 | 0.00 | 0.00 | 76 | 1012.2 |
| 20260831180708 | 28 | 108 | 4.8 | 9.7 | 0.00 | 0.00 | 0.00 | 73 | 1012.2 |
| 20260831180613 | 28 | 108 | 4.8 | 9.7 | 0.00 | 0.00 | 0.00 | 75 | 1012.1 |
| 20260831180518 | 28 | 76 | 6.4 | 12.9 | 0.00 | 0.00 | 0.00 | 75 | 1012.1 |
| 20260831180355 | 28 | 83 | 8.0 | 12.9 | 0.00 | 0.00 | 0.00 | 75 | 1012.1 |
| 20260831180301 | 28 | 59 | 6.4 | 12.9 | 0.00 | 0.00 | 0.00 | 76 | 1012.1 |
| 20260831180228 | 28 | 59 | 6.4 | 12.9 | 0.00 | 0.00 | 0.00 | 75 | 1012.2 |
| 20260831180111 | 28 | 46 | 6.4 | 12.9 | 0.00 | 0.00 | 0.00 | 76 | 1012.2 |
| 20260831175956 | 28 | 47 | 4.8 | 12.9 | 0.00 | 0.00 | 0.00 | 74 | 1012.2 |
| 20260831175901 | 28 | 114 | 6.4 | 12.9 | 0.00 | 0.00 | 0.00 | 74 | 1012.2 |
| 20260831175806 | 28 | 94 | 6.4 | 12.9 | 0.00 | 0.00 | 0.00 | 73 | 1012.2 |
| 20260831175712 | 28 | 97 | 4.8 | 12.9 | 0.00 | 0.00 | 0.00 | 74 | 1012.2 |
| 20260831175600 | 28 | 117 | 4.8 | 12.9 | 0.00 | 0.00 | 0.00 | 75 | 1012.2 |
| 20260831175505 | 28 | 118 | 4.8 | 12.9 | 0.00 | 0.00 | 0.00 | 74 | 1012.2 |
| 20260831175410 | 28 | 121 | 3.2 | 16.1 | 0.00 | 0.00 | 0.00 | 76 | 1012.2 |
| 20260831175314 | 28 | 80 | 4.8 | 16.1 | 0.00 | 0.00 | 0.00 | 75 | 1012.2 |
| 20260831175240 | 28 | 75 | 8.0 | 16.1 | 0.00 | 0.00 | 0.00 | 75 | 1012.2 |
| 20260831175057 | 28 | 67 | 8.0 | 16.1 | 0.00 | 0.00 | 0.00 | 75 | 1012.2 |
| 20260831175006 | 28 | 84 | 8.0 | 16.1 | 0.00 | 0.00 | 0.00 | 75 | 1012.2 |
| 20260831174911 | 28 | 91 | 6.4 | 16.1 | 0.00 | 0.00 | 0.00 | 75 | 1012.2 |
| 20260831174756 | 28 | 111 | 8.0 | 16.1 | 0.00 | 0.00 | 0.00 | 74 | 1012.2 |
| 20260831174701 | 28 | 58 | 9.7 | 16.1 | 0.00 | 0.00 | 0.00 | 74 | 1012.2 |
| 20260831174607 | 28 | 73 | 8.0 | 16.1 | 0.00 | 0.00 | 0.00 | 75 | 1012.2 |
| 20260831174511 | 28 | 60 | 6.4 | 16.1 | 0.00 | 0.00 | 0.00 | 76 | 1012.2 |
| 20260831174400 | 27 | 45 | 6.4 | 11.3 | 0.00 | 0.00 | 0.00 | 76 | 1012.2 |
| 20260831174302 | 27 | 79 | 6.4 | 11.3 | 0.00 | 0.00 | 0.00 | 76 | 1012.2 |
| 20260831174206 | 27 | 80 | 6.4 | 11.3 | 0.00 | 0.00 | 0.00 | 77 | 1012.2 |
| 20260831174111 | 27 | 81 | 6.4 | 11.3 | 0.00 | 0.00 | 0.00 | 78 | 1012.2 |
| 20260831174016 | 27 | 44 | 6.4 | 16.1 | 0.00 | 0.00 | 0.00 | 78 | 1012.2 |
| 20260831173859 | 27 | 32 | 6.4 | 16.1 | 0.00 | 0.00 | 0.00 | 78 | 1012.2 |
| 20260831173824 | 27 | 32 | 8.0 | 16.1 | 0.00 | 0.00 | 0.00 | 78 | 1012.2 |
| 20260831173727 | 27 | 75 | 8.0 | 16.1 | 0.00 | 0.00 | 0.00 | 79 | 1012.2 |
| 20260831173555 | 27 | 46 | 6.4 | 16.1 | 0.00 | 0.00 | 0.00 | 80 | 1012.2 |
| 20260831173519 | 27 | 86 | 6.4 | 16.1 | 0.00 | 0.00 | 0.00 | 80 | 1012.2 |
| 20260831173358 | 27 | 46 | 8.0 | 16.1 | 0.00 | 0.00 | 0.00 | 80 | 1012.2 |
| 20260831173302 | 27 | 120 | 9.7 | 16.1 | 0.00 | 0.00 | 0.00 | 79 | 1012.2 |
| 20260831173207 | 27 | 96 | 8.0 | 16.1 | 0.00 | 0.00 | 0.00 | 82 | 1012.2 |
| 20260831173056 | 27 | 78 | 6.4 | 14.5 | 0.00 | 0.00 | 0.00 | 80 | 1012.4 |
| 20260831173001 | 27 | 78 | 9.7 | 14.5 | 0.00 | 0.00 | 0.00 | 81 | 1012.3 |
| 20260831172906 | 27 | 106 | 8.0 | 14.5 | 0.00 | 0.00 | 0.00 | 80 | 1012.3 |
| 20260831172811 | 27 | 112 | 8.0 | 12.9 | 0.00 | 0.00 | 0.00 | 80 | 1012.2 |
| 20260831172717 | 27 | 107 | 9.7 | 12.9 | 0.00 | 0.00 | 0.00 | 81 | 1012.3 |
| 20260831172600 | 27 | 125 | 8.0 | 12.9 | 0.00 | 0.00 | 0.00 | 81 | 1012.3 |
| 20260831172504 | 27 | 113 | 6.4 | 12.9 | 0.00 | 0.00 | 0.00 | 81 | 1012.3 |
| 20260831172413 | 27 | 93 | 8.0 | 12.9 | 0.00 | 0.00 | 0.00 | 81 | 1012.3 |
| 20260831172319 | 27 | 113 | 9.7 | 12.9 | 0.00 | 0.00 | 0.00 | 80 | 1012.3 |
| 20260831172157 | 27 | 101 | 9.7 | 12.9 | 0.00 | 0.00 | 0.00 | 81 | 1012.3 |
| 20260831172102 | 27 | 83 | 8.0 | 12.9 | 0.00 | 0.00 | 0.00 | 81 | 1012.4 |
| 20260831172006 | 27 | 119 | 6.4 | 12.9 | 0.00 | 0.00 | 0.00 | 81 | 1012.3 |
| 20260831171854 | 27 | 88 | 6.4 | 11.3 | 0.00 | 0.00 | 0.00 | 82 | 1012.3 |
| 20260831171820 | 27 | 62 | 4.8 | 11.3 | 0.00 | 0.00 | 0.00 | 82 | 1012.3 |
| 20260831171657 | 27 | 69 | 6.4 | 11.3 | 0.00 | 0.00 | 0.00 | 82 | 1012.3 |
| 20260831171602 | 27 | 71 | 6.4 | 11.3 | 0.00 | 0.00 | 0.00 | 81 | 1012.2 |
| 20260831171507 | 27 | 58 | 4.8 | 12.9 | 0.00 | 0.00 | 0.00 | 82 | 1012.2 |
| 20260831171412 | 27 | 91 | 3.2 | 14.5 | 0.00 | 0.00 | 0.00 | 82 | 1012.3 |
| 20260831171258 | 27 | 115 | 4.8 | 14.5 | 0.00 | 0.00 | 0.00 | 82 | 1012.2 |
| 20260831171202 | 27 | 114 | 4.8 | 14.5 | 0.00 | 0.00 | 0.00 | 82 | 1012.3 |
| 20260831171107 | 27 | 90 | 4.8 | 14.5 | 0.00 | 0.00 | 0.00 | 82 | 1012.3 |
| 20260831171012 | 27 | 90 | 6.4 | 14.5 | 0.00 | 0.00 | 0.00 | 84 | 1012.3 |
| 20260831170857 | 27 | 68 | 6.4 | 14.5 | 0.00 | 0.00 | 0.00 | 83 | 1012.3 |
| 20260831170802 | 27 | 98 | 8.0 | 14.5 | 0.00 | 0.00 | 0.00 | 83 | 1012.3 |
| 20260831170708 | 27 | 90 | 8.0 | 14.5 | 0.00 | 0.00 | 0.00 | 83 | 1012.3 |
| 20260831170612 | 27 | 57 | 8.0 | 14.5 | 0.00 | 0.00 | 0.00 | 83 | 1012.3 |
| 20260831170517 | 27 | 73 | 6.4 | 12.9 | 0.00 | 0.00 | 0.00 | 82 | 1012.3 |
| 20260831170355 | 27 | 99 | 3.2 | 12.9 | 0.00 | 0.00 | 0.00 | 83 | 1012.2 |
| 20260831170319 | 27 | 122 | 3.2 | 12.9 | 0.00 | 0.00 | 0.00 | 83 | 1012.2 |
| 20260831170158 | 27 | 80 | 8.0 | 12.9 | 0.00 | 0.00 | 0.00 | 83 | 1012.3 |
| 20260831170106 | 27 | 74 | 8.0 | 12.9 | 0.00 | 0.00 | 0.00 | 84 | 1012.3 |
| 20260831170032 | 26 | 78 | 6.4 | 12.9 | 0.00 | 0.00 | 0.00 | 84 | 1012.3 |
| 20260831165854 | 26 | 71 | 6.4 | 12.9 | 0.00 | 0.00 | 0.00 | 84 | 1012.3 |
| 20260831165759 | 26 | 78 | 6.4 | 12.9 | 0.00 | 0.00 | 0.00 | 84 | 1012.3 |
| 20260831165704 | 26 | 113 | 6.4 | 12.9 | 0.00 | 0.00 | 0.00 | 84 | 1012.3 |
| 20260831165629 | 26 | 99 | 6.4 | 12.9 | 0.00 | 0.00 | 0.00 | 85 | 1012.4 |
| 20260831165510 | 26 | 76 | 6.4 | 12.9 | 0.00 | 0.00 | 0.00 | 85 | 1012.4 |
| 20260831165358 | 26 | 51 | 6.4 | 14.5 | 0.00 | 0.00 | 0.00 | 85 | 1012.3 |
| 20260831165305 | 26 | 89 | 6.4 | 14.5 | 0.00 | 0.00 | 0.00 | 85 | 1012.3 |
| 20260831165208 | 26 | 73 | 4.8 | 14.5 | 0.00 | 0.00 | 0.00 | 85 | 1012.3 |
| 20260831165113 | 26 | 78 | 6.4 | 17.7 | 0.00 | 0.00 | 0.00 | 84 | 1012.3 |
| 20260831164958 | 26 | 78 | 9.7 | 17.7 | 0.00 | 0.00 | 0.00 | 84 | 1012.3 |
| 20260831164903 | 26 | 95 | 9.7 | 17.7 | 0.00 | 0.00 | 0.00 | 84 | 1012.3 |
| 20260831164812 | 26 | 90 | 8.0 | 17.7 | 0.00 | 0.00 | 0.00 | 85 | 1012.3 |
| 20260831164718 | 26 | 81 | 8.0 | 17.7 | 0.00 | 0.00 | 0.00 | 85 | 1012.3 |
| 20260831164555 | 26 | 69 | 6.4 | 17.7 | 0.00 | 0.00 | 0.00 | 85 | 1012.3 |
| 20260831164459 | 26 | 51 | 6.4 | 17.7 | 0.00 | 0.00 | 0.00 | 85 | 1012.3 |
| 20260831164424 | 26 | 110 | 9.7 | 17.7 | 0.00 | 0.00 | 0.00 | 84 | 1012.3 |
| 20260831164308 | 26 | 122 | 11.3 | 17.7 | 0.00 | 0.00 | 0.00 | 84 | 1012.3 |
| 20260831164157 | 26 | 121 | 11.3 | 17.7 | 0.00 | 0.00 | 0.00 | 84 | 1012.3 |
| 20260831164102 | 26 | 113 | 11.3 | 17.7 | 0.00 | 0.00 | 0.00 | 84 | 1012.3 |
| 20260831164007 | 26 | 87 | 11.3 | 16.1 | 0.00 | 0.00 | 0.00 | 84 | 1012.3 |
| 20260831163912 | 26 | 86 | 11.3 | 16.1 | 0.00 | 0.00 | 0.00 | 84 | 1012.2 |
| 20260831163838 | 26 | 80 | 9.7 | 16.1 | 0.00 | 0.00 | 0.00 | 84 | 1012.1 |
| 20260831163655 | 26 | 85 | 9.7 | 14.5 | 0.00 | 0.00 | 0.00 | 84 | 1012.1 |
| 20260831163600 | 26 | 109 | 11.3 | 14.5 | 0.00 | 0.00 | 0.00 | 84 | 1012.1 |
| 20260831163530 | 26 | 98 | 9.7 | 14.5 | 0.00 | 0.00 | 0.00 | 84 | 1012.1 |
| 20260831163412 | 26 | 119 | 6.4 | 12.9 | 0.00 | 0.00 | 0.00 | 84 | 1012.1 |
| 20260831163338 | 26 | 91 | 6.4 | 11.3 | 0.00 | 0.00 | 0.00 | 84 | 1012.1 |
| 20260831163155 | 26 | 77 | 6.4 | 11.3 | 0.00 | 0.00 | 0.00 | 84 | 1012.2 |
| 20260831163100 | 26 | 97 | 6.4 | 14.5 | 0.00 | 0.00 | 0.00 | 83 | 1012.2 |
| 20260831163025 | 27 | 108 | 6.4 | 14.5 | 0.00 | 0.00 | 0.00 | 84 | 1012.2 |
| 20260831162910 | 27 | 93 | 4.8 | 14.5 | 0.00 | 0.00 | 0.00 | 84 | 1012.2 |
| 20260831162818 | 27 | 57 | 6.4 | 14.5 | 0.00 | 0.00 | 0.00 | 84 | 1012.3 |
| 20260831162702 | 27 | 80 | 6.4 | 14.5 | 0.00 | 0.00 | 0.00 | 83 | 1012.2 |
| 20260831162607 | 27 | 108 | 6.4 | 14.5 | 0.00 | 0.00 | 0.00 | 83 | 1012.2 |
| 20260831162511 | 27 | 104 | 8.0 | 14.5 | 0.00 | 0.00 | 0.00 | 83 | 1012.2 |
| 20260831162417 | 27 | 99 | 8.0 | 14.5 | 0.00 | 0.00 | 0.00 | 83 | 1012.2 |
| 20260831162255 | 27 | 120 | 9.7 | 14.5 | 0.00 | 0.00 | 0.00 | 84 | 1012.2 |
| 20260831162204 | 27 | 88 | 8.0 | 14.5 | 0.00 | 0.00 | 0.00 | 84 | 1012.3 |
| 20260831162013 | 27 | 67 | 4.8 | 16.1 | 0.00 | 0.00 | 0.00 | 85 | 1012.1 |
| 20260831161858 | 27 | 59 | 6.4 | 16.1 | 0.00 | 0.00 | 0.00 | 84 | 1012.1 |
| 20260831161803 | 27 | 54 | 8.0 | 16.1 | 0.00 | 0.00 | 0.00 | 84 | 1012.2 |
| 20260831161708 | 27 | 73 | 6.4 | 16.1 | 0.00 | 0.00 | 0.00 | 84 | 1012.2 |
| 20260831161557 | 27 | 78 | 8.0 | 16.1 | 0.00 | 0.00 | 0.00 | 84 | 1012.2 |
| 20260831161502 | 27 | 45 | 8.0 | 16.1 | 0.00 | 0.00 | 0.00 | 84 | 1012.2 |
| 20260831161407 | 27 | 90 | 8.0 | 16.1 | 0.00 | 0.00 | 0.00 | 85 | 1012.2 |
| 20260831161332 | 27 | 119 | 8.0 | 14.5 | 0.00 | 0.00 | 0.00 | 85 | 1012.1 |
| 20260831161156 | 27 | 96 | 8.0 | 14.5 | 0.00 | 0.00 | 0.00 | 85 | 1012.1 |
| 20260831161100 | 27 | 73 | 4.8 | 14.5 | 0.00 | 0.00 | 0.00 | 85 | 1012.2 |
| 20260831161009 | 27 | 88 | 3.2 | 12.9 | 0.00 | 0.00 | 0.00 | 85 | 1012.2 |
| 20260831160854 | 26 | 76 | 6.4 | 12.9 | 0.00 | 0.00 | 0.00 | 85 | 1012.1 |
| 20260831160759 | 26 | 74 | 8.0 | 12.9 | 0.00 | 0.00 | 0.00 | 85 | 1012.2 |
| 20260831160705 | 26 | 64 | 9.7 | 12.9 | 0.00 | 0.00 | 0.00 | 84 | 1012.2 |
| 20260831160609 | 26 | 83 | 9.7 | 12.9 | 0.00 | 0.00 | 0.00 | 84 | 1012.2 |
| 20260831160454 | 27 | 98 | 8.0 | 12.9 | 0.00 | 0.00 | 0.00 | 86 | 1012.1 |
| 20260831160423 | 26 | 85 | 6.4 | 12.9 | 0.00 | 0.00 | 0.00 | 86 | 1012.2 |
| 20260831160306 | 26 | 113 | 4.8 | 12.9 | 0.00 | 0.00 | 0.00 | 86 | 1012.1 |
| 20260831160210 | 26 | 64 | 4.8 | 12.9 | 0.00 | 0.00 | 0.00 | 86 | 1012.1 |
| 20260831160110 | 26 | 65 | 4.8 | 12.9 | 0.00 | 0.00 | 0.00 | 86 | 1012.1 |
| 20260831160015 | 26 | 74 | 8.0 | 14.5 | 0.00 | 0.00 | 0.00 | 86 | 1012.0 |
| 20260831155919 | 26 | 68 | 8.0 | 14.5 | 0.00 | 0.00 | 0.00 | 85 | 1012.0 |
| 20260831155757 | 26 | 80 | 6.4 | 14.5 | 0.00 | 0.00 | 0.00 | 85 | 1011.9 |
| 20260831155706 | 26 | 105 | 4.8 | 14.5 | 0.00 | 0.00 | 0.00 | 85 | 1011.9 |
| 20260831155611 | 26 | 114 | 6.4 | 14.5 | 0.00 | 0.00 | 0.00 | 85 | 1012.0 |
| 20260831155456 | 26 | 71 | 6.4 | 14.5 | 0.00 | 0.00 | 0.00 | 85 | 1011.9 |
| 20260831155420 | 26 | 63 | 8.0 | 14.5 | 0.00 | 0.00 | 0.00 | 85 | 1011.9 |
| 20260831155257 | 26 | 76 | 8.0 | 14.5 | 0.00 | 0.00 | 0.00 | 86 | 1011.9 |
| 20260831155202 | 26 | 74 | 6.4 | 14.5 | 0.00 | 0.00 | 0.00 | 86 | 1011.9 |
| 20260831155111 | 26 | 86 | 6.4 | 14.5 | 0.00 | 0.00 | 0.00 | 85 | 1011.9 |
| 20260831154956 | 26 | 74 | 9.7 | 14.5 | 0.00 | 0.00 | 0.00 | 85 | 1011.9 |
| 20260831154901 | 26 | 84 | 9.7 | 16.1 | 0.00 | 0.00 | 0.00 | 85 | 1011.9 |
| 20260831154806 | 26 | 79 | 9.7 | 16.1 | 0.00 | 0.00 | 0.00 | 85 | 1011.9 |
| 20260831154711 | 26 | 98 | 9.7 | 16.1 | 0.00 | 0.00 | 0.00 | 84 | 1012.0 |
| 20260831154600 | 26 | 63 | 8.0 | 16.1 | 0.00 | 0.00 | 0.00 | 84 | 1011.9 |
| 20260831154525 | 26 | 69 | 6.4 | 16.1 | 0.00 | 0.00 | 0.00 | 84 | 1011.9 |
| 20260831154408 | 27 | 73 | 6.4 | 16.1 | 0.00 | 0.00 | 0.00 | 85 | 1011.9 |
| 20260831154313 | 27 | 61 | 8.0 | 16.1 | 0.00 | 0.00 | 0.00 | 84 | 1011.9 |
| 20260831154157 | 27 | 55 | 8.0 | 16.1 | 0.00 | 0.00 | 0.00 | 84 | 1011.8 |
| 20260831154102 | 27 | 66 | 8.0 | 16.1 | 0.00 | 0.00 | 0.00 | 84 | 1011.8 |
| 20260831154007 | 27 | 51 | 8.0 | 19.3 | 0.00 | 0.00 | 0.00 | 84 | 1011.8 |
| 20260831153854 | 27 | 80 | 8.0 | 19.3 | 0.00 | 0.00 | 0.00 | 84 | 1011.7 |
| 20260831153759 | 27 | 40 | 9.7 | 19.3 | 0.00 | 0.00 | 0.00 | 84 | 1011.7 |
| 20260831153704 | 27 | 61 | 8.0 | 19.3 | 0.00 | 0.00 | 0.00 | 85 | 1011.7 |
| 20260831153609 | 27 | 85 | 6.4 | 19.3 | 0.00 | 0.00 | 0.00 | 85 | 1011.7 |
| 20260831153532 | 27 | 35 | 6.4 | 19.3 | 0.00 | 0.00 | 0.00 | 85 | 1011.7 |
| 20260831153416 | 27 | 48 | 9.7 | 19.3 | 0.00 | 0.00 | 0.00 | 85 | 1011.7 |
| 20260831153304 | 27 | 49 | 11.3 | 19.3 | 0.00 | 0.00 | 0.00 | 85 | 1011.6 |
| 20260831153209 | 27 | 75 | 12.9 | 19.3 | 0.00 | 0.00 | 0.00 | 84 | 1011.6 |
| 20260831153054 | 27 | 83 | 9.7 | 16.1 | 0.00 | 0.00 | 0.00 | 84 | 1011.7 |
| 20260831152959 | 27 | 80 | 6.4 | 14.5 | 0.00 | 0.00 | 0.00 | 85 | 1011.7 |
| 20260831152903 | 27 | 65 | 3.2 | 9.7 | 0.00 | 0.00 | 0.00 | 85 | 1011.6 |
| 20260831152828 | 27 | 19 | 3.2 | 9.7 | 0.00 | 0.00 | 0.00 | 86 | 1011.6 |
| 20260831152656 | 27 | 27 | 4.8 | 12.9 | 0.00 | 0.00 | 0.00 | 85 | 1011.5 |
| 20260831152600 | 27 | 28 | 6.4 | 12.9 | 0.00 | 0.00 | 0.00 | 85 | 1011.5 |
| 20260831152525 | 27 | 90 | 6.4 | 12.9 | 0.00 | 0.00 | 0.00 | 86 | 1011.6 |
| 20260831152409 | 27 | 60 | 6.4 | 12.9 | 0.00 | 0.00 | 0.00 | 86 | 1011.6 |
| 20260831152314 | 27 | 57 | 8.0 | 14.5 | 0.00 | 0.00 | 0.00 | 86 | 1011.5 |
| 20260831152239 | 27 | 35 | 8.0 | 14.5 | 0.00 | 0.00 | 0.00 | 85 | 1011.5 |
| 20260831152055 | 27 | 63 | 8.0 | 14.5 | 0.00 | 0.00 | 0.00 | 85 | 1011.3 |
| 20260831152004 | 27 | 57 | 9.7 | 14.5 | 0.00 | 0.00 | 0.00 | 85 | 1011.3 |
| 20260831151909 | 27 | 90 | 9.7 | 14.5 | 0.00 | 0.00 | 0.00 | 85 | 1011.3 |
| 20260831151813 | 27 | 85 | 8.0 | 14.5 | 0.00 | 0.00 | 0.00 | 85 | 1011.3 |
| 20260831151738 | 27 | 99 | 8.0 | 14.5 | 0.00 | 0.00 | 0.00 | 86 | 1011.3 |
| 20260831151555 | 27 | 96 | 9.7 | 14.5 | 0.00 | 0.00 | 0.00 | 86 | 1011.3 |
| 20260831151459 | 27 | 96 | 9.7 | 14.5 | 0.00 | 0.00 | 0.00 | 86 | 1011.4 |
| 20260831151404 | 27 | 81 | 9.7 | 14.5 | 0.00 | 0.00 | 0.00 | 86 | 1011.3 |
| 20260831151312 | 27 | 73 | 9.7 | 14.5 | 0.00 | 0.00 | 0.00 | 85 | 1011.3 |
| 20260831151217 | 27 | 79 | 8.0 | 14.5 | 0.00 | 0.00 | 0.00 | 86 | 1011.2 |
| 20260831151055 | 27 | 82 | 6.4 | 14.5 | 0.00 | 0.00 | 0.00 | 88 | 1011.2 |
| 20260831151019 | 27 | 51 | 6.4 | 9.7 | 0.00 | 0.00 | 0.00 | 88 | 1011.1 |
| 20260831150902 | 26 | 49 | 8.0 | 9.7 | 0.00 | 0.00 | 0.00 | 87 | 1011.2 |
| 20260831150807 | 26 | 42 | 6.4 | 9.7 | 0.00 | 0.00 | 0.00 | 88 | 1011.2 |
| 20260831150732 | 26 | 64 | 6.4 | 9.7 | 0.00 | 0.00 | 0.00 | 87 | 1011.1 |
| 20260831150600 | 26 | 75 | 4.8 | 11.3 | 0.00 | 0.00 | 0.00 | 87 | 1011.0 |
| 20260831150525 | 26 | 63 | 4.8 | 11.3 | 0.00 | 0.00 | 0.00 | 87 | 1011.0 |
| 20260831150429 | 26 | 54 | 4.8 | 14.5 | 0.00 | 0.00 | 0.00 | 87 | 1011.0 |
| 20260831150313 | 26 | 90 | 8.0 | 14.5 | 0.00 | 0.00 | 0.00 | 86 | 1011.0 |
| 20260831150158 | 26 | 107 | 8.0 | 14.5 | 0.00 | 0.00 | 0.00 | 86 | 1011.0 |
| 20260831150027 | 26 | 71 | 8.0 | 14.5 | 0.00 | 0.00 | 0.00 | 87 | 1010.9 |
| 20260831145855 | 26 | 89 | 6.4 | 14.5 | 0.00 | 0.00 | 0.00 | 88 | 1010.9 |
| 20260831145759 | 26 | 71 | 6.4 | 14.5 | 0.00 | 0.00 | 0.00 | 88 | 1011.0 |
| 20260831145704 | 26 | 51 | 8.0 | 14.5 | 0.00 | 0.00 | 0.00 | 88 | 1010.9 |
| 20260831145610 | 26 | 63 | 6.4 | 14.5 | 0.00 | 0.00 | 0.00 | 88 | 1010.9 |
| 20260831145514 | 26 | 46 | 4.8 | 12.9 | 0.00 | 0.00 | 0.00 | 88 | 1010.9 |
| 20260831145418 | 26 | 34 | 6.4 | 12.9 | 0.00 | 0.00 | 0.00 | 88 | 1010.9 |
| 20260831145306 | 26 | 59 | 6.4 | 12.9 | 0.00 | 0.00 | 0.00 | 87 | 1010.9 |
| 20260831145202 | 26 | 59 | 4.8 | 16.1 | 0.00 | 0.00 | 0.00 | 87 | 1011.0 |
| 20260831145107 | 26 | 87 | 4.8 | 16.1 | 0.00 | 0.00 | 0.00 | 87 | 1011.0 |
| 20260831145032 | 26 | 87 | 6.4 | 16.1 | 0.00 | 0.00 | 0.00 | 87 | 1010.9 |
| 20260831144856 | 26 | 68 | 6.4 | 16.1 | 0.00 | 0.00 | 0.00 | 87 | 1010.9 |
| 20260831144801 | 26 | 82 | 6.4 | 16.1 | 0.00 | 0.00 | 0.00 | 87 | 1010.9 |
| 20260831144706 | 26 | 86 | 8.0 | 16.1 | 0.00 | 0.00 | 0.00 | 87 | 1010.9 |
| 20260831144615 | 26 | 66 | 6.4 | 16.1 | 0.00 | 0.00 | 0.00 | 88 | 1010.9 |
| 20260831144519 | 26 | 74 | 6.4 | 16.1 | 0.00 | 0.00 | 0.00 | 87 | 1010.9 |
| 20260831144356 | 26 | 55 | 8.0 | 16.1 | 0.00 | 0.00 | 0.00 | 87 | 1010.7 |
| 20260831144321 | 26 | 30 | 6.4 | 16.1 | 0.00 | 0.00 | 0.00 | 87 | 1010.7 |
| 20260831144225 | 26 | 79 | 4.8 | 12.9 | 0.00 | 0.00 | 0.00 | 88 | 1010.8 |
| 20260831144128 | 26 | 58 | 4.8 | 12.9 | 0.00 | 0.00 | 0.00 | 88 | 1010.8 |
| 20260831144011 | 26 | 53 | 6.4 | 12.9 | 0.00 | 0.00 | 0.00 | 88 | 1010.7 |
| 20260831143916 | 26 | 328 | 6.4 | 12.9 | 0.00 | 0.00 | 0.00 | 88 | 1010.7 |
| 20260831143804 | 26 | 355 | 3.2 | 11.3 | 0.00 | 0.00 | 0.00 | 88 | 1010.7 |
| 20260831143710 | 26 | 39 | 3.2 | 11.3 | 0.00 | 0.00 | 0.00 | 88 | 1010.7 |
| 20260831143554 | 26 | 39 | 4.8 | 14.5 | 0.00 | 0.00 | 0.00 | 88 | 1010.6 |
| 20260831143459 | 26 | 15 | 4.8 | 14.5 | 0.00 | 0.00 | 0.00 | 88 | 1010.6 |
| 20260831143404 | 26 | 19 | 8.0 | 14.5 | 0.00 | 0.00 | 0.00 | 88 | 1010.7 |
| 20260831143309 | 26 | 23 | 8.0 | 14.5 | 0.00 | 0.00 | 0.00 | 88 | 1010.7 |
| 20260831143158 | 26 | 64 | 6.4 | 14.5 | 0.00 | 0.00 | 0.00 | 87 | 1010.6 |
| 20260831143122 | 26 | 72 | 6.4 | 14.5 | 0.00 | 0.00 | 0.00 | 88 | 1010.6 |
| 20260831143027 | 26 | 64 | 6.4 | 14.5 | 0.00 | 0.00 | 0.00 | 88 | 1010.6 |
| 20260831142909 | 26 | 74 | 8.0 | 14.5 | 0.00 | 0.00 | 0.00 | 87 | 1010.6 |
| 20260831142813 | 26 | 45 | 8.0 | 14.5 | 0.00 | 0.00 | 0.00 | 87 | 1010.6 |
| 20260831142658 | 26 | 68 | 8.0 | 14.5 | 0.00 | 0.00 | 0.00 | 87 | 1010.5 |
| 20260831142607 | 26 | 11 | 8.0 | 14.5 | 0.00 | 0.00 | 0.00 | 87 | 1010.5 |
| 20260831142511 | 26 | 35 | 6.4 | 19.3 | 0.00 | 0.00 | 0.00 | 87 | 1010.6 |
| 20260831142356 | 26 | 41 | 6.4 | 19.3 | 0.00 | 0.00 | 0.00 | 87 | 1010.6 |
| 20260831142301 | 26 | 28 | 8.0 | 19.3 | 0.00 | 0.00 | 0.00 | 88 | 1010.6 |
| 20260831142206 | 26 | 69 | 6.4 | 19.3 | 0.00 | 0.00 | 0.00 | 88 | 1010.6 |
| 20260831142111 | 26 | 54 | 8.0 | 19.3 | 0.00 | 0.00 | 0.00 | 88 | 1010.6 |
| 20260831141959 | 26 | 46 | 8.0 | 19.3 | 0.00 | 0.00 | 0.00 | 88 | 1010.5 |
| 20260831141904 | 26 | 345 | 6.4 | 19.3 | 0.00 | 0.00 | 0.00 | 89 | 1010.5 |
| 20260831141809 | 26 | 38 | 9.7 | 19.3 | 0.00 | 0.00 | 0.00 | 89 | 1010.5 |
| 20260831141714 | 26 | 15 | 9.7 | 19.3 | 0.00 | 0.00 | 0.00 | 89 | 1010.5 |
| 20260831141558 | 26 | 9 | 4.8 | 9.7 | 0.00 | 0.00 | 0.00 | 90 | 1010.4 |
| 20260831141503 | 26 | 44 | 4.8 | 12.9 | 0.00 | 0.00 | 0.00 | 91 | 1010.4 |
| 20260831141412 | 26 | 44 | 4.8 | 12.9 | 0.00 | 0.00 | 0.00 | 90 | 1010.4 |
| 20260831141317 | 26 | 31 | 4.8 | 12.9 | 0.00 | 0.00 | 0.00 | 91 | 1010.4 |
| 20260831141200 | 26 | 329 | 4.8 | 12.9 | 0.00 | 0.00 | 0.00 | 91 | 1010.3 |
| 20260831141125 | 25 | 62 | 4.8 | 12.9 | 0.00 | 0.00 | 0.00 | 91 | 1010.2 |
| 20260831141009 | 25 | 38 | 4.8 | 12.9 | 0.00 | 0.00 | 0.00 | 91 | 1010.2 |
| 20260831140854 | 25 | 35 | 4.8 | 12.9 | 0.00 | 0.00 | 0.00 | 91 | 1010.3 |
| 20260831140803 | 25 | 54 | 6.4 | 12.9 | 0.00 | 0.00 | 0.00 | 91 | 1010.3 |
| 20260831140708 | 25 | 34 | 6.4 | 12.9 | 0.00 | 0.00 | 0.00 | 91 | 1010.3 |
| 20260831140613 | 25 | 29 | 4.8 | 12.9 | 0.00 | 0.00 | 0.00 | 91 | 1010.2 |
| 20260831140518 | 25 | 31 | 4.8 | 12.9 | 0.00 | 0.00 | 0.00 | 91 | 1010.3 |
| 20260831140401 | 25 | 29 | 6.4 | 12.9 | 0.00 | 0.00 | 0.00 | 91 | 1010.2 |
| 20260831140306 | 25 | 23 | 8.0 | 12.9 | 0.00 | 0.00 | 0.00 | 91 | 1010.2 |
| 20260831140155 | 25 | 15 | 6.4 | 12.9 | 0.00 | 0.00 | 0.00 | 91 | 1010.1 |
| 20260831140120 | 25 | 34 | 6.4 | 12.9 | 0.00 | 0.00 | 0.00 | 91 | 1010.1 |
| 20260831140004 | 25 | 42 | 6.4 | 12.9 | 0.00 | 0.00 | 0.00 | 92 | 1010.1 |
| 20260831135909 | 25 | 51 | 4.8 | 9.7 | 0.00 | 0.00 | 0.00 | 92 | 1010.1 |
| 20260831135834 | 25 | 53 | 4.8 | 9.7 | 0.00 | 0.00 | 0.00 | 92 | 1010.1 |
| 20260831135717 | 25 | 58 | 4.8 | 9.7 | 0.00 | 0.00 | 0.00 | 92 | 1010.1 |
| 20260831135555 | 25 | 14 | 4.8 | 9.7 | 0.00 | 0.00 | 0.00 | 92 | 1010.1 |
| 20260831135520 | 25 | 39 | 6.4 | 9.7 | 0.00 | 0.00 | 0.00 | 92 | 1010.1 |
| 20260831135428 | 25 | 355 | 6.4 | 14.5 | 0.00 | 0.00 | 0.00 | 92 | 1010.1 |
| 20260831135312 | 25 | 360 | 6.4 | 14.5 | 0.00 | 0.00 | 0.00 | 93 | 1010.2 |
| 20260831135217 | 25 | 360 | 4.8 | 14.5 | 0.00 | 0.00 | 0.00 | 93 | 1010.1 |
| 20260831135059 | 25 | 16 | 4.8 | 14.5 | 0.00 | 0.00 | 0.00 | 93 | 1010.1 |
| 20260831135004 | 25 | 360 | 4.8 | 14.5 | 0.00 | 0.00 | 0.00 | 93 | 1010.0 |
| 20260831134910 | 25 | 37 | 4.8 | 14.5 | 0.00 | 0.00 | 0.00 | 94 | 1010.0 |
| 20260831134757 | 25 | 29 | 3.2 | 14.5 | 0.00 | 0.00 | 0.00 | 94 | 1010.0 |
| 20260831134702 | 25 | 23 | 6.4 | 14.5 | 0.00 | 0.00 | 0.00 | 94 | 1010.1 |
| 20260831134607 | 24 | 24 | 9.7 | 14.5 | 0.00 | 0.00 | 0.00 | 94 | 1010.1 |
| 20260831134532 | 24 | 11 | 9.7 | 14.5 | 0.00 | 0.00 | 0.00 | 95 | 1010.1 |
| 20260831134356 | 24 | 10 | 6.4 | 12.9 | 0.00 | 0.00 | 0.00 | 95 | 1010.1 |
| 20260831134300 | 24 | 5 | 6.4 | 14.5 | 0.00 | 0.00 | 0.00 | 95 | 1010.1 |
| 20260831134225 | 24 | 18 | 6.4 | 14.5 | 0.00 | 0.00 | 0.00 | 95 | 1010.0 |
| 20260831134113 | 24 | 355 | 8.0 | 14.5 | 0.00 | 0.00 | 0.00 | 95 | 1010.0 |
| 20260831133958 | 24 | 21 | 6.4 | 14.5 | 0.00 | 0.00 | 0.00 | 96 | 1010.0 |
| 20260831133902 | 24 | 37 | 4.8 | 14.5 | 0.00 | 0.00 | 0.00 | 95 | 1010.0 |
| 20260831133807 | 24 | 5 | 6.4 | 14.5 | 0.00 | 0.00 | 0.00 | 95 | 1010.0 |
| 20260831133712 | 24 | 30 | 8.0 | 14.5 | 0.00 | 0.00 | 0.00 | 96 | 1010.1 |
| 20260831133558 | 24 | 345 | 8.0 | 14.5 | 0.00 | 0.00 | 0.00 | 96 | 1010.0 |
| 20260831133525 | 23 | 360 | 8.0 | 14.5 | 0.00 | 0.00 | 0.00 | 96 | 1010.0 |
| 20260831133408 | 23 | 355 | 8.0 | 14.5 | 0.00 | 0.00 | 0.00 | 96 | 1010.0 |
| 20260831133313 | 23 | 333 | 6.4 | 9.7 | 0.00 | 0.00 | 0.00 | 97 | 1009.9 |
| 20260831133157 | 23 | 350 | 6.4 | 9.7 | 0.00 | 0.00 | 0.00 | 97 | 1010.0 |
| 20260831133122 | 23 | 355 | 4.8 | 9.7 | 0.00 | 0.00 | 0.00 | 97 | 1010.0 |
| 20260831133025 | 23 | 38 | 4.8 | 9.7 | 0.00 | 0.00 | 0.00 | 97 | 1010.0 |
| 20260831132908 | 23 | 5 | 4.8 | 8.0 | 0.00 | 0.00 | 0.00 | 97 | 1010.0 |
| 20260831132817 | 23 | 5 | 3.2 | 8.0 | 0.00 | 0.00 | 0.00 | 97 | 1009.9 |
| 20260831132721 | 23 | 360 | 3.2 | 8.0 | 0.00 | 0.00 | 0.00 | 97 | 1009.8 |
| 20260831132605 | 23 | 5 | 3.2 | 8.0 | 0.00 | 0.00 | 0.00 | 97 | 1009.8 |
| 20260831132529 | 23 | 5 | 3.2 | 8.0 | 0.00 | 0.00 | 0.00 | 97 | 1009.8 |
| 20260831132413 | 23 | 19 | 4.8 | 8.0 | 0.00 | 0.00 | 0.00 | 97 | 1009.8 |
| 20260831132338 | 23 | 355 | 6.4 | 8.0 | 0.00 | 0.00 | 0.00 | 97 | 1009.8 |
| 20260831132155 | 23 | 343 | 6.4 | 8.0 | 0.00 | 0.00 | 0.00 | 97 | 1009.8 |
| 20260831132059 | 23 | 355 | 4.8 | 8.0 | 0.00 | 0.00 | 0.00 | 97 | 1009.8 |
| 20260831132008 | 23 | 355 | 3.2 | 8.0 | 0.00 | 0.00 | 0.00 | 97 | 1009.8 |
| 20260831131933 | 23 | 338 | 3.2 | 8.0 | 0.00 | 0.00 | 0.00 | 97 | 1009.8 |
| 20260831131757 | 23 | 5 | 6.4 | 8.0 | 0.00 | 0.00 | 0.00 | 97 | 1009.9 |
| 20260831131702 | 23 | 346 | 6.4 | 12.9 | 0.00 | 0.00 | 0.00 | 98 | 1009.9 |
| 20260831131607 | 23 | 338 | 4.8 | 12.9 | 0.00 | 0.00 | 0.00 | 98 | 1009.9 |
| 20260831131512 | 23 | 5 | 3.2 | 12.9 | 0.00 | 0.00 | 0.00 | 98 | 1009.9 |
| 20260831131421 | 23 | 350 | 3.2 | 12.9 | 0.00 | 0.00 | 0.00 | 98 | 1009.9 |
| 20260831131305 | 23 | 348 | 3.2 | 12.9 | 0.00 | 0.00 | 0.00 | 98 | 1009.9 |
| 20260831131230 | 23 | 350 | 3.2 | 12.9 | 0.00 | 0.00 | 0.00 | 98 | 1009.9 |
| 20260831131113 | 23 | 350 | 4.8 | 12.9 | 0.00 | 0.00 | 0.00 | 98 | 1009.9 |
| 20260831130958 | 22 | 348 | 6.4 | 12.9 | 0.00 | 0.00 | 0.00 | 98 | 1009.8 |
| 20260831130903 | 22 | 348 | 6.4 | 12.9 | 0.00 | 0.00 | 0.00 | 98 | 1009.8 |
| 20260831130828 | 22 | 327 | 4.8 | 9.7 | 0.00 | 0.00 | 0.00 | 98 | 1009.8 |
| 20260831130656 | 22 | 22 | 6.4 | 9.7 | 0.00 | 0.00 | 0.00 | 98 | 1009.9 |
| 20260831130601 | 22 | 346 | 6.4 | 9.7 | 0.00 | 0.00 | 0.00 | 98 | 1009.8 |
| 20260831130505 | 22 | 360 | 4.8 | 8.0 | 0.00 | 0.00 | 0.00 | 98 | 1009.9 |
| 20260831130410 | 22 | 5 | 4.8 | 8.0 | 0.00 | 0.00 | 0.00 | 98 | 1009.9 |
| 20260831130315 | 22 | 355 | 3.2 | 8.0 | 0.00 | 0.00 | 0.00 | 98 | 1009.9 |
| 20260831130219 | 22 | 360 | 3.2 | 8.0 | 0.00 | 0.00 | 0.00 | 98 | 1009.9 |
| 20260831130123 | 22 | 355 | 4.8 | 8.0 | 0.00 | 0.00 | 0.00 | 98 | 1009.8 |
| 20260831130011 | 22 | 355 | 4.8 | 8.0 | 0.00 | 0.00 | 0.00 | 98 | 1009.8 |
| 20260831125856 | 22 | 342 | 4.8 | 8.0 | 0.00 | 0.00 | 0.00 | 98 | 1009.8 |
| 20260831125801 | 22 | 346 | 4.8 | 8.0 | 0.00 | 0.00 | 0.00 | 98 | 1009.8 |
| 20260831125706 | 22 | 355 | 3.2 | 8.0 | 0.00 | 0.00 | 0.00 | 97 | 1009.8 |
| 20260831125630 | 22 | 360 | 3.2 | 6.4 | 0.00 | 0.00 | 0.00 | 97 | 1009.7 |
| 20260831125513 | 22 | 360 | 1.6 | 6.4 | 0.00 | 0.00 | 0.00 | 97 | 1009.8 |
| 20260831125402 | 22 | 322 | 3.2 | 6.4 | 0.00 | 0.00 | 0.00 | 97 | 1009.8 |
| 20260831125307 | 22 | 296 | 4.8 | 6.4 | 0.00 | 0.00 | 0.00 | 97 | 1009.8 |
| 20260831125212 | 22 | 296 | 4.8 | 6.4 | 0.00 | 0.00 | 0.00 | 97 | 1009.8 |
| 20260831125057 | 22 | 281 | 1.6 | 6.4 | 0.00 | 0.00 | 0.00 | 98 | 1009.7 |
| 20260831125002 | 22 | 288 | 1.6 | 6.4 | 0.00 | 0.00 | 0.00 | 98 | 1009.8 |
| 20260831124907 | 22 | 288 | 3.2 | 6.4 | 0.00 | 0.00 | 0.00 | 98 | 1009.8 |
| 20260831124755 | 22 | 288 | 3.2 | 6.4 | 0.00 | 0.00 | 0.00 | 98 | 1009.8 |
| 20260831124700 | 22 | 286 | 3.2 | 6.4 | 0.00 | 0.00 | 0.00 | 97 | 1009.8 |
| 20260831124605 | 22 | 255 | 3.2 | 6.4 | 0.00 | 0.00 | 0.00 | 97 | 1009.8 |
| 20260831124509 | 22 | 255 | 3.2 | 6.4 | 0.00 | 0.00 | 0.00 | 97 | 1009.8 |
| 20260831124354 | 22 | 254 | 1.6 | 6.4 | 0.00 | 0.00 | 0.00 | 97 | 1009.8 |
| 20260831124300 | 21 | 254 | 3.2 | 6.4 | 0.00 | 0.00 | 0.00 | 97 | 1009.7 |
| 20260831124207 | 21 | 254 | 3.2 | 6.4 | 0.00 | 0.00 | 0.00 | 97 | 1009.7 |
| 20260831124112 | 21 | 254 | 3.2 | 6.4 | 0.00 | 0.00 | 0.00 | 97 | 1009.7 |
| 20260831124017 | 21 | 254 | 1.6 | 6.4 | 0.00 | 0.00 | 0.00 | 97 | 1009.7 |
| 20260831123855 | 21 | 254 | 3.2 | 6.4 | 0.00 | 0.00 | 0.00 | 97 | 1009.7 |
| 20260831123800 | 21 | 254 | 3.2 | 6.4 | 0.00 | 0.00 | 0.00 | 97 | 1009.6 |
| 20260831123704 | 21 | 229 | 3.2 | 4.8 | 0.00 | 0.00 | 0.00 | 97 | 1009.7 |
| 20260831123613 | 21 | 229 | 3.2 | 4.8 | 0.00 | 0.00 | 0.00 | 97 | 1009.7 |
| 20260831123538 | 21 | 229 | 1.6 | 4.8 | 0.00 | 0.00 | 0.00 | 97 | 1009.7 |
| 20260831123355 | 21 | 229 | 0.0 | 4.8 | 0.00 | 0.00 | 0.00 | 97 | 1009.7 |
| 20260831123300 | 21 | 229 | 1.6 | 4.8 | 0.00 | 0.00 | 0.00 | 97 | 1009.6 |
| 20260831123204 | 21 | 229 | 3.2 | 4.8 | 0.00 | 0.00 | 0.00 | 97 | 1009.5 |
| 20260831123109 | 21 | 229 | 3.2 | 4.8 | 0.00 | 0.00 | 0.00 | 97 | 1009.5 |
| 20260831122958 | 21 | 229 | 3.2 | 4.8 | 0.00 | 0.00 | 0.00 | 97 | 1009.4 |
| 20260831122904 | 21 | 229 | 3.2 | 4.8 | 0.00 | 0.00 | 0.00 | 97 | 1009.4 |
| 20260831122828 | 21 | 229 | 3.2 | 4.8 | 0.00 | 0.00 | 0.00 | 97 | 1009.4 |
| 20260831122712 | 21 | 229 | 1.6 | 6.4 | 0.00 | 0.00 | 0.00 | 97 | 1009.4 |
| 20260831122617 | 21 | 229 | 1.6 | 6.4 | 0.00 | 0.00 | 0.00 | 97 | 1009.4 |
| 20260831122455 | 21 | 229 | 3.2 | 6.4 | 0.00 | 0.00 | 0.00 | 97 | 1009.4 |
| 20260831122404 | 21 | 229 | 3.2 | 6.4 | 0.00 | 0.00 | 0.00 | 97 | 1009.3 |
| 20260831122308 | 21 | 229 | 3.2 | 6.4 | 0.00 | 0.00 | 0.00 | 97 | 1009.3 |
| 20260831122213 | 21 | 229 | 3.2 | 6.4 | 0.00 | 0.00 | 0.00 | 97 | 1009.3 |
| 20260831122058 | 21 | 229 | 3.2 | 6.4 | 0.00 | 0.00 | 0.00 | 97 | 1009.4 |
| 20260831122003 | 21 | 229 | 3.2 | 6.4 | 0.00 | 0.00 | 0.00 | 97 | 1009.4 |
| 20260831121908 | 21 | 229 | 3.2 | 6.4 | 0.00 | 0.00 | 0.00 | 96 | 1009.4 |
| 20260831121757 | 20 | 229 | 3.2 | 4.8 | 0.00 | 0.00 | 0.00 | 96 | 1009.3 |
| 20260831121702 | 20 | 229 | 3.2 | 4.8 | 0.00 | 0.00 | 0.00 | 97 | 1009.3 |
| 20260831121607 | 20 | 229 | 3.2 | 4.8 | 0.00 | 0.00 | 0.00 | 97 | 1009.3 |
| 20260831121512 | 20 | 229 | 3.2 | 4.8 | 0.00 | 0.00 | 0.00 | 97 | 1009.3 |
| 20260831121417 | 20 | 229 | 3.2 | 4.8 | 0.00 | 0.00 | 0.00 | 97 | 1009.3 |
| 20260831121300 | 20 | 229 | 1.6 | 4.8 | 0.00 | 0.00 | 0.00 | 97 | 1009.3 |
| 20260831121208 | 20 | 229 | 1.6 | 4.8 | 0.00 | 0.00 | 0.00 | 97 | 1009.3 |
| 20260831121113 | 20 | 229 | 1.6 | 4.8 | 0.00 | 0.00 | 0.00 | 97 | 1009.2 |
| 20260831120958 | 20 | 229 | 1.6 | 4.8 | 0.00 | 0.00 | 0.00 | 96 | 1009.3 |
| 20260831120903 | 20 | 229 | 1.6 | 4.8 | 0.00 | 0.00 | 0.00 | 96 | 1009.2 |
| 20260831120807 | 20 | 229 | 1.6 | 4.8 | 0.00 | 0.00 | 0.00 | 96 | 1009.2 |
| 20260831120710 | 20 | 229 | 1.6 | 4.8 | 0.00 | 0.00 | 0.00 | 96 | 1009.1 |
| 20260831120559 | 20 | 229 | 3.2 | 4.8 | 0.00 | 0.00 | 0.00 | 96 | 1009.1 |
| 20260831120504 | 20 | 229 | 3.2 | 4.8 | 0.00 | 0.00 | 0.00 | 96 | 1009.1 |
| 20260831120409 | 20 | 229 | 3.2 | 4.8 | 0.00 | 0.00 | 0.00 | 96 | 1009.1 |
| 20260831120254 | 20 | 229 | 3.2 | 4.8 | 0.00 | 0.00 | 0.00 | 96 | 1009.1 |
| 20260831120159 | 20 | 229 | 1.6 | 4.8 | 0.00 | 0.00 | 0.00 | 96 | 1009.1 |
| 20260831120103 | 20 | 229 | 1.6 | 4.8 | 0.00 | 0.00 | 0.00 | 96 | 1009.2 |
| 20260831120012 | 20 | 229 | 1.6 | 4.8 | 0.00 | 0.00 | 0.00 | 95 | 1009.2 |
| 20260831115856 | 20 | 229 | 1.6 | 4.8 | 0.00 | 0.00 | 0.00 | 95 | 1009.1 |
| 20260831115801 | 20 | 229 | 1.6 | 4.8 | 0.00 | 0.00 | 0.00 | 95 | 1009.1 |
| 20260831115706 | 20 | 229 | 1.6 | 4.8 | 0.00 | 0.00 | 0.00 | 95 | 1009.1 |
| 20260831115631 | 20 | 229 | 1.6 | 4.8 | 0.00 | 0.00 | 0.00 | 95 | 1009.2 |
| 20260831115455 | 20 | 229 | 3.2 | 4.8 | 0.00 | 0.00 | 0.00 | 95 | 1009.1 |
| 20260831115404 | 20 | 229 | 1.6 | 3.2 | 0.00 | 0.00 | 0.00 | 95 | 1009.1 |
| 20260831115309 | 20 | 229 | 1.6 | 3.2 | 0.00 | 0.00 | 0.00 | 95 | 1009.1 |
| 20260831115154 | 20 | 229 | 1.6 | 3.2 | 0.00 | 0.00 | 0.00 | 95 | 1009.2 |
| 20260831115056 | 20 | 229 | 3.2 | 3.2 | 0.00 | 0.00 | 0.00 | 95 | 1009.2 |
| 20260831115001 | 20 | 229 | 3.2 | 3.2 | 0.00 | 0.00 | 0.00 | 95 | 1009.1 |
| 20260831114906 | 20 | 229 | 1.6 | 3.2 | 0.00 | 0.00 | 0.00 | 95 | 1009.1 |
| 20260831114755 | 20 | 229 | 0.0 | 3.2 | 0.00 | 0.00 | 0.00 | 95 | 1009.0 |
| 20260831114700 | 20 | 229 | 0.0 | 3.2 | 0.00 | 0.00 | 0.00 | 95 | 1009.0 |
| 20260831114625 | 20 | 229 | 0.0 | 3.2 | 0.00 | 0.00 | 0.00 | 95 | 1009.0 |
| 20260831114508 | 20 | 229 | 0.0 | 3.2 | 0.00 | 0.00 | 0.00 | 95 | 1009.0 |
| 20260831114413 | 20 | 229 | 0.0 | 3.2 | 0.00 | 0.00 | 0.00 | 95 | 1008.9 |
| 20260831114258 | 20 | 229 | 0.0 | 3.2 | 0.00 | 0.00 | 0.00 | 95 | 1008.9 |
| 20260831114202 | 20 | 229 | 0.0 | 3.2 | 0.00 | 0.00 | 0.00 | 95 | 1008.9 |
| 20260831114111 | 20 | 229 | 1.6 | 3.2 | 0.00 | 0.00 | 0.00 | 95 | 1008.9 |
| 20260831113956 | 20 | 229 | 1.6 | 3.2 | 0.00 | 0.00 | 0.00 | 95 | 1008.9 |
| 20260831113901 | 20 | 229 | 0.0 | 1.6 | 0.00 | 0.00 | 0.00 | 95 | 1008.9 |
| 20260831113806 | 20 | 229 | 0.0 | 0.0 | 0.00 | 0.00 | 0.00 | 95 | 1008.8 |
| 20260831113710 | 20 | 229 | 0.0 | 0.0 | 0.00 | 0.00 | 0.00 | 95 | 1008.8 |
| 20260831113615 | 20 | 229 | 0.0 | 0.0 | 0.00 | 0.00 | 0.00 | 95 | 1008.8 |
| 20260831113503 | 20 | 229 | 0.0 | 0.0 | 0.00 | 0.00 | 0.00 | 95 | 1008.8 |
| 20260831113408 | 20 | 229 | 0.0 | 0.0 | 0.00 | 0.00 | 0.00 | 95 | 1008.8 |
| 20260831113313 | 20 | 229 | 0.0 | 0.0 | 0.00 | 0.00 | 0.00 | 95 | 1008.8 |
| 20260831113158 | 20 | 229 | 0.0 | 0.0 | 0.00 | 0.00 | 0.00 | 95 | 1008.8 |
| 20260831113102 | 20 | 229 | 0.0 | 0.0 | 0.00 | 0.00 | 0.00 | 95 | 1008.9 |
| 20260831113007 | 20 | 229 | 0.0 | 0.0 | 0.00 | 0.00 | 0.00 | 95 | 1008.9 |
| 20260831112856 | 20 | 229 | 0.0 | 0.0 | 0.00 | 0.00 | 0.00 | 95 | 1008.8 |
| 20260831112801 | 20 | 229 | 0.0 | 0.0 | 0.00 | 0.00 | 0.00 | 95 | 1008.7 |
| 20260831112706 | 20 | 229 | 0.0 | 0.0 | 0.00 | 0.00 | 0.00 | 95 | 1008.7 |
| 20260831112610 | 20 | 229 | 0.0 | 0.0 | 0.00 | 0.00 | 0.00 | 95 | 1008.8 |
| 20260831112455 | 20 | 229 | 0.0 | 0.0 | 0.00 | 0.00 | 0.00 | 95 | 1008.8 |
| 20260831112419 | 20 | 229 | 0.0 | 0.0 | 0.00 | 0.00 | 0.00 | 95 | 1008.8 |
| 20260831112307 | 20 | 229 | 0.0 | 0.0 | 0.00 | 0.00 | 0.00 | 95 | 1008.8 |
| 20260831112212 | 20 | 229 | 0.0 | 0.0 | 0.00 | 0.00 | 0.00 | 95 | 1008.8 |
| 20260831112134 | 20 | 229 | 0.0 | 0.0 | 0.00 | 0.00 | 0.00 | 95 | 1008.7 |
| 20260831111958 | 20 | 229 | 0.0 | 0.0 | 0.00 | 0.00 | 0.00 | 95 | 1008.7 |
| 20260831111903 | 20 | 229 | 0.0 | 0.0 | 0.00 | 0.00 | 0.00 | 95 | 1008.8 |
| 20260831111808 | 20 | 229 | 0.0 | 0.0 | 0.00 | 0.00 | 0.00 | 95 | 1008.8 |
| 20260831111657 | 20 | 229 | 0.0 | 0.0 | 0.00 | 0.00 | 0.00 | 95 | 1008.8 |
| 20260831111601 | 20 | 229 | 0.0 | 0.0 | 0.00 | 0.00 | 0.00 | 95 | 1008.8 |
| 20260831111506 | 20 | 229 | 0.0 | 0.0 | 0.00 | 0.00 | 0.00 | 95 | 1008.8 |
| 20260831111411 | 20 | 229 | 0.0 | 0.0 | 0.00 | 0.00 | 0.00 | 95 | 1008.8 |
| 20260831111256 | 20 | 229 | 0.0 | 0.0 | 0.00 | 0.00 | 0.00 | 95 | 1008.8 |
| 20260831111201 | 20 | 229 | 0.0 | 0.0 | 0.00 | 0.00 | 0.00 | 95 | 1008.8 |
| 20260831111109 | 20 | 229 | 0.0 | 0.0 | 0.00 | 0.00 | 0.00 | 95 | 1008.8 |
| 20260831111011 | 21 | 229 | 0.0 | 1.6 | 0.00 | 0.00 | 0.00 | 95 | 1008.8 |
| 20260831110855 | 21 | 229 | 0.0 | 1.6 | 0.00 | 0.00 | 0.00 | 95 | 1008.8 |
| 20260831110800 | 21 | 229 | 0.0 | 1.6 | 0.00 | 0.00 | 0.00 | 95 | 1008.8 |
| 20260831110705 | 21 | 229 | 0.0 | 1.6 | 0.00 | 0.00 | 0.00 | 95 | 1008.7 |
| 20260831110629 | 21 | 229 | 0.0 | 1.6 | 0.00 | 0.00 | 0.00 | 95 | 1008.7 |
| 20260831110457 | 21 | 229 | 0.0 | 1.6 | 0.00 | 0.00 | 0.00 | 95 | 1008.7 |
| 20260831110401 | 21 | 229 | 0.0 | 1.6 | 0.00 | 0.00 | 0.00 | 95 | 1008.7 |
| 20260831110306 | 21 | 229 | 0.0 | 1.6 | 0.00 | 0.00 | 0.00 | 95 | 1008.7 |
| 20260831110211 | 21 | 229 | 0.0 | 1.6 | 0.00 | 0.00 | 0.00 | 95 | 1008.6 |
| 20260831110117 | 21 | 229 | 0.0 | 1.6 | 0.00 | 0.00 | 0.00 | 95 | 1008.6 |
| 20260831105954 | 21 | 229 | 0.0 | 1.6 | 0.00 | 0.00 | 0.00 | 95 | 1008.6 |
| 20260831105903 | 21 | 229 | 0.0 | 1.6 | 0.00 | 0.00 | 0.00 | 95 | 1008.6 |
| 20260831105808 | 21 | 229 | 0.0 | 1.6 | 0.00 | 0.00 | 0.00 | 95 | 1008.6 |
| 20260831105713 | 21 | 229 | 0.0 | 1.6 | 0.00 | 0.00 | 0.00 | 95 | 1008.5 |
| 20260831105618 | 21 | 229 | 0.0 | 1.6 | 0.00 | 0.00 | 0.00 | 95 | 1008.6 |
| 20260831105456 | 21 | 229 | 0.0 | 1.6 | 0.00 | 0.00 | 0.00 | 95 | 1008.6 |
| 20260831105401 | 21 | 229 | 0.0 | 1.6 | 0.00 | 0.00 | 0.00 | 95 | 1008.6 |
| 20260831105310 | 21 | 229 | 0.0 | 3.2 | 0.00 | 0.00 | 0.00 | 95 | 1008.6 |
| 20260831105155 | 21 | 229 | 0.0 | 4.8 | 0.00 | 0.00 | 0.00 | 95 | 1008.5 |
| 20260831105120 | 21 | 229 | 1.6 | 4.8 | 0.00 | 0.00 | 0.00 | 95 | 1008.6 |
| 20260831105003 | 21 | 229 | 0.0 | 4.8 | 0.00 | 0.00 | 0.00 | 95 | 1008.6 |
| 20260831104928 | 21 | 229 | 0.0 | 4.8 | 0.00 | 0.00 | 0.00 | 95 | 1008.6 |
| 20260831104813 | 21 | 229 | 0.0 | 4.8 | 0.00 | 0.00 | 0.00 | 95 | 1008.6 |
| 20260831104717 | 21 | 229 | 0.0 | 4.8 | 0.00 | 0.00 | 0.00 | 95 | 1008.6 |
| 20260831104605 | 21 | 229 | 1.6 | 4.8 | 0.00 | 0.00 | 0.00 | 95 | 1008.6 |
| 20260831104510 | 21 | 229 | 1.6 | 4.8 | 0.00 | 0.00 | 0.00 | 95 | 1008.6 |
| 20260831104354 | 21 | 229 | 1.6 | 4.8 | 0.00 | 0.00 | 0.00 | 95 | 1008.5 |
| 20260831104259 | 21 | 229 | 1.6 | 4.8 | 0.00 | 0.00 | 0.00 | 95 | 1008.6 |
| 20260831104204 | 21 | 229 | 1.6 | 4.8 | 0.00 | 0.00 | 0.00 | 95 | 1008.6 |
| 20260831104128 | 21 | 229 | 1.6 | 4.8 | 0.00 | 0.00 | 0.00 | 95 | 1008.6 |
| 20260831104012 | 21 | 229 | 3.2 | 4.8 | 0.00 | 0.00 | 0.00 | 95 | 1008.6 |
| 20260831103900 | 21 | 229 | 3.2 | 4.8 | 0.00 | 0.00 | 0.00 | 95 | 1008.5 |
| 20260831103805 | 21 | 229 | 3.2 | 4.8 | 0.00 | 0.00 | 0.00 | 95 | 1008.6 |
| 20260831103729 | 21 | 229 | 1.6 | 4.8 | 0.00 | 0.00 | 0.00 | 95 | 1008.6 |
| 20260831103613 | 21 | 229 | 1.6 | 4.8 | 0.00 | 0.00 | 0.00 | 95 | 1008.5 |
| 20260831103518 | 21 | 229 | 1.6 | 4.8 | 0.00 | 0.00 | 0.00 | 95 | 1008.6 |
| 20260831103422 | 21 | 229 | 1.6 | 4.8 | 0.00 | 0.00 | 0.00 | 95 | 1008.5 |
| 20260831103306 | 21 | 229 | 1.6 | 4.8 | 0.00 | 0.00 | 0.00 | 95 | 1008.5 |
| 20260831103155 | 21 | 229 | 1.6 | 4.8 | 0.00 | 0.00 | 0.00 | 95 | 1008.7 |
| 20260831103120 | 21 | 229 | 1.6 | 4.8 | 0.00 | 0.00 | 0.00 | 95 | 1008.6 |
| 20260831103004 | 21 | 229 | 3.2 | 4.8 | 0.00 | 0.00 | 0.00 | 95 | 1008.7 |
| 20260831102907 | 21 | 229 | 3.2 | 4.8 | 0.00 | 0.00 | 0.00 | 95 | 1008.7 |
| 20260831102812 | 21 | 229 | 1.6 | 4.8 | 0.00 | 0.00 | 0.00 | 95 | 1008.7 |
| 20260831102657 | 21 | 229 | 1.6 | 4.8 | 0.00 | 0.00 | 0.00 | 95 | 1008.7 |
| 20260831102621 | 21 | 229 | 1.6 | 4.8 | 0.00 | 0.00 | 0.00 | 95 | 1008.7 |
| 20260831102525 | 21 | 229 | 3.2 | 4.8 | 0.00 | 0.00 | 0.00 | 95 | 1008.6 |
| 20260831102413 | 21 | 229 | 3.2 | 4.8 | 0.00 | 0.00 | 0.00 | 95 | 1008.6 |
| 20260831102318 | 21 | 229 | 3.2 | 6.4 | 0.00 | 0.00 | 0.00 | 95 | 1008.6 |
| 20260831102156 | 21 | 229 | 3.2 | 6.4 | 0.00 | 0.00 | 0.00 | 95 | 1008.6 |
| 20260831102120 | 21 | 229 | 3.2 | 6.4 | 0.00 | 0.00 | 0.00 | 95 | 1008.6 |
| 20260831102002 | 21 | 228 | 1.6 | 6.4 | 0.00 | 0.00 | 0.00 | 95 | 1008.6 |
| 20260831101907 | 21 | 228 | 1.6 | 6.4 | 0.00 | 0.00 | 0.00 | 95 | 1008.6 |
| 20260831101756 | 21 | 228 | 3.2 | 6.4 | 0.00 | 0.00 | 0.00 | 95 | 1008.6 |
| 20260831101720 | 21 | 228 | 3.2 | 6.4 | 0.00 | 0.00 | 0.00 | 95 | 1008.6 |
| 20260831101558 | 21 | 228 | 4.8 | 6.4 | 0.00 | 0.00 | 0.00 | 95 | 1008.5 |
| 20260831101503 | 21 | 225 | 4.8 | 6.4 | 0.00 | 0.00 | 0.00 | 95 | 1008.5 |
| 20260831101408 | 21 | 225 | 3.2 | 6.4 | 0.00 | 0.00 | 0.00 | 95 | 1008.5 |
| 20260831101313 | 21 | 225 | 1.6 | 6.4 | 0.00 | 0.00 | 0.00 | 95 | 1008.4 |
| 20260831101201 | 21 | 225 | 1.6 | 6.4 | 0.00 | 0.00 | 0.00 | 95 | 1008.6 |
| 20260831101106 | 21 | 225 | 0.0 | 6.4 | 0.00 | 0.00 | 0.00 | 95 | 1008.6 |
| 20260831101031 | 21 | 225 | 1.6 | 6.4 | 0.00 | 0.00 | 0.00 | 95 | 1008.5 |
| 20260831100855 | 21 | 225 | 3.2 | 6.4 | 0.00 | 0.00 | 0.00 | 95 | 1008.4 |
| 20260831100800 | 21 | 225 | 3.2 | 6.4 | 0.00 | 0.00 | 0.00 | 95 | 1008.4 |
| 20260831100705 | 21 | 225 | 3.2 | 6.4 | 0.00 | 0.00 | 0.00 | 95 | 1008.4 |
| 20260831100629 | 21 | 225 | 4.8 | 6.4 | 0.00 | 0.00 | 0.00 | 95 | 1008.4 |
| 20260831100516 | 21 | 225 | 4.8 | 6.4 | 0.00 | 0.00 | 0.00 | 95 | 1008.4 |
| 20260831100354 | 21 | 225 | 3.2 | 6.4 | 0.00 | 0.00 | 0.00 | 95 | 1008.4 |
| 20260831100320 | 21 | 225 | 3.2 | 6.4 | 0.00 | 0.00 | 0.00 | 95 | 1008.4 |
| 20260831100158 | 21 | 225 | 3.2 | 6.4 | 0.00 | 0.00 | 0.00 | 95 | 1008.4 |
| 20260831100007 | 21 | 224 | 4.8 | 6.4 | 0.00 | 0.00 | 0.00 | 94 | 1008.4 |
| 20260831095916 | 21 | 224 | 4.8 | 6.4 | 0.00 | 0.00 | 0.00 | 94 | 1008.4 |
| 20260831095754 | 21 | 224 | 4.8 | 6.4 | 0.00 | 0.00 | 0.00 | 94 | 1008.3 |
| 20260831095719 | 21 | 223 | 3.2 | 6.4 | 0.00 | 0.00 | 0.00 | 94 | 1008.4 |
| 20260831095623 | 21 | 223 | 3.2 | 6.4 | 0.00 | 0.00 | 0.00 | 94 | 1008.4 |
| 20260831095507 | 21 | 223 | 3.2 | 6.4 | 0.00 | 0.00 | 0.00 | 94 | 1008.4 |
| 20260831095412 | 21 | 223 | 4.8 | 6.4 | 0.00 | 0.00 | 0.00 | 94 | 1008.4 |
| 20260831095301 | 21 | 223 | 4.8 | 6.4 | 0.00 | 0.00 | 0.00 | 94 | 1008.4 |
| 20260831095206 | 21 | 233 | 4.8 | 6.4 | 0.00 | 0.00 | 0.00 | 94 | 1008.4 |
| 20260831095110 | 21 | 232 | 4.8 | 6.4 | 0.00 | 0.00 | 0.00 | 94 | 1008.5 |
| 20260831095016 | 21 | 232 | 4.8 | 6.4 | 0.00 | 0.00 | 0.00 | 94 | 1008.4 |
| 20260831094854 | 21 | 232 | 3.2 | 6.4 | 0.00 | 0.00 | 0.00 | 94 | 1008.5 |
| 20260831094819 | 21 | 232 | 3.2 | 6.4 | 0.00 | 0.00 | 0.00 | 94 | 1008.5 |
| 20260831094703 | 21 | 232 | 3.2 | 6.4 | 0.00 | 0.00 | 0.00 | 94 | 1008.4 |
| 20260831094632 | 21 | 232 | 3.2 | 6.4 | 0.00 | 0.00 | 0.00 | 94 | 1008.4 |
| 20260831094515 | 21 | 232 | 3.2 | 6.4 | 0.00 | 0.00 | 0.00 | 94 | 1008.5 |
| 20260831094441 | 21 | 232 | 4.8 | 6.4 | 0.00 | 0.00 | 0.00 | 94 | 1008.4 |
| 20260831094258 | 21 | 232 | 4.8 | 6.4 | 0.00 | 0.00 | 0.00 | 94 | 1008.4 |
| 20260831094203 | 21 | 232 | 4.8 | 6.4 | 0.00 | 0.00 | 0.00 | 93 | 1008.5 |
| 20260831094108 | 21 | 232 | 3.2 | 4.8 | 0.00 | 0.00 | 0.00 | 93 | 1008.5 |
| 20260831094012 | 21 | 232 | 3.2 | 4.8 | 0.00 | 0.00 | 0.00 | 93 | 1008.4 |
| 20260831093901 | 21 | 232 | 3.2 | 4.8 | 0.00 | 0.00 | 0.00 | 93 | 1008.4 |
| 20260831093805 | 21 | 232 | 3.2 | 4.8 | 0.00 | 0.00 | 0.00 | 93 | 1008.4 |
| 20260831093709 | 21 | 232 | 3.2 | 4.8 | 0.00 | 0.00 | 0.00 | 93 | 1008.5 |
| 20260831093634 | 21 | 232 | 3.2 | 4.8 | 0.00 | 0.00 | 0.00 | 93 | 1008.4 |
| 20260831093518 | 22 | 232 | 3.2 | 4.8 | 0.00 | 0.00 | 0.00 | 93 | 1008.4 |
| 20260831093356 | 22 | 232 | 3.2 | 4.8 | 0.00 | 0.00 | 0.00 | 93 | 1008.4 |
| 20260831093305 | 22 | 232 | 3.2 | 4.8 | 0.00 | 0.00 | 0.00 | 93 | 1008.4 |
| 20260831093230 | 22 | 232 | 3.2 | 4.8 | 0.00 | 0.00 | 0.00 | 93 | 1008.4 |
| 20260831093113 | 22 | 232 | 3.2 | 6.4 | 0.00 | 0.00 | 0.00 | 93 | 1008.4 |
| 20260831092958 | 22 | 232 | 1.6 | 6.4 | 0.00 | 0.00 | 0.00 | 93 | 1008.5 |
| 20260831092923 | 22 | 232 | 1.6 | 6.4 | 0.00 | 0.00 | 0.00 | 93 | 1008.5 |
| 20260831092807 | 22 | 232 | 1.6 | 6.4 | 0.00 | 0.00 | 0.00 | 93 | 1008.5 |
| 20260831092712 | 22 | 232 | 3.2 | 6.4 | 0.00 | 0.00 | 0.00 | 93 | 1008.4 |
| 20260831092621 | 22 | 232 | 3.2 | 6.4 | 0.00 | 0.00 | 0.00 | 93 | 1008.5 |
| 20260831092457 | 22 | 232 | 3.2 | 6.4 | 0.00 | 0.00 | 0.00 | 93 | 1008.6 |
| 20260831092402 | 22 | 232 | 3.2 | 6.4 | 0.00 | 0.00 | 0.00 | 93 | 1008.5 |
| 20260831092307 | 22 | 232 | 3.2 | 6.4 | 0.00 | 0.00 | 0.00 | 93 | 1008.5 |
| 20260831092231 | 22 | 232 | 3.2 | 4.8 | 0.00 | 0.00 | 0.00 | 93 | 1008.5 |
| 20260831092112 | 22 | 232 | 3.2 | 4.8 | 0.00 | 0.00 | 0.00 | 93 | 1008.5 |
| 20260831092017 | 22 | 232 | 3.2 | 6.4 | 0.00 | 0.00 | 0.00 | 93 | 1008.5 |
| 20260831091905 | 22 | 232 | 3.2 | 6.4 | 0.00 | 0.00 | 0.00 | 93 | 1008.5 |
| 20260831091810 | 22 | 232 | 1.6 | 8.0 | 0.00 | 0.00 | 0.00 | 93 | 1008.5 |
| 20260831091655 | 22 | 232 | 3.2 | 8.0 | 0.00 | 0.00 | 0.00 | 93 | 1008.6 |
| 20260831091600 | 22 | 232 | 3.2 | 8.0 | 0.00 | 0.00 | 0.00 | 93 | 1008.6 |
| 20260831091505 | 22 | 232 | 3.2 | 8.0 | 0.00 | 0.00 | 0.00 | 93 | 1008.6 |
| 20260831091410 | 22 | 232 | 3.2 | 8.0 | 0.00 | 0.00 | 0.00 | 93 | 1008.6 |
| 20260831091259 | 22 | 232 | 4.8 | 8.0 | 0.00 | 0.00 | 0.00 | 93 | 1008.6 |
| 20260831091204 | 22 | 232 | 4.8 | 8.0 | 0.00 | 0.00 | 0.00 | 93 | 1008.5 |
| 20260831091107 | 22 | 238 | 4.8 | 8.0 | 0.00 | 0.00 | 0.00 | 93 | 1008.5 |
| 20260831091032 | 22 | 238 | 4.8 | 8.0 | 0.00 | 0.00 | 0.00 | 93 | 1008.6 |
| 20260831090915 | 22 | 255 | 4.8 | 9.7 | 0.00 | 0.00 | 0.00 | 93 | 1008.6 |
| 20260831090759 | 22 | 256 | 4.8 | 9.7 | 0.00 | 0.00 | 0.00 | 93 | 1008.6 |
| 20260831090704 | 22 | 257 | 3.2 | 9.7 | 0.00 | 0.00 | 0.00 | 93 | 1008.6 |
| 20260831090633 | 22 | 261 | 3.2 | 9.7 | 0.00 | 0.00 | 0.00 | 93 | 1008.6 |
| 20260831090517 | 22 | 265 | 3.2 | 9.7 | 0.00 | 0.00 | 0.00 | 93 | 1008.7 |
| 20260831090441 | 22 | 265 | 1.6 | 9.7 | 0.00 | 0.00 | 0.00 | 93 | 1008.7 |
| 20260831090258 | 22 | 265 | 3.2 | 9.7 | 0.00 | 0.00 | 0.00 | 93 | 1008.6 |
| 20260831090203 | 22 | 265 | 3.2 | 9.7 | 0.00 | 0.00 | 0.00 | 93 | 1008.7 |
| 20260831090107 | 22 | 265 | 3.2 | 9.7 | 0.00 | 0.00 | 0.00 | 93 | 1008.7 |
| 20260831085956 | 22 | 242 | 3.2 | 6.4 | 0.00 | 0.00 | 0.00 | 93 | 1008.7 |
| 20260831085901 | 22 | 242 | 3.2 | 6.4 | 0.00 | 0.00 | 0.00 | 93 | 1008.6 |
| 20260831085805 | 22 | 242 | 3.2 | 6.4 | 0.00 | 0.00 | 0.00 | 93 | 1008.6 |
| 20260831085710 | 22 | 240 | 3.2 | 6.4 | 0.00 | 0.00 | 0.00 | 93 | 1008.6 |
| 20260831085555 | 22 | 240 | 3.2 | 6.4 | 0.00 | 0.00 | 0.00 | 93 | 1008.4 |
| 20260831085500 | 22 | 240 | 4.8 | 6.4 | 0.00 | 0.00 | 0.00 | 93 | 1008.4 |
| 20260831085408 | 22 | 240 | 4.8 | 8.0 | 0.00 | 0.00 | 0.00 | 93 | 1008.4 |
| 20260831085313 | 22 | 241 | 4.8 | 8.0 | 0.00 | 0.00 | 0.00 | 93 | 1008.4 |
| 20260831085158 | 22 | 241 | 3.2 | 8.0 | 0.00 | 0.00 | 0.00 | 93 | 1008.4 |
| 20260831085103 | 22 | 241 | 3.2 | 8.0 | 0.00 | 0.00 | 0.00 | 92 | 1008.4 |
| 20260831085008 | 22 | 244 | 3.2 | 8.0 | 0.00 | 0.00 | 0.00 | 92 | 1008.4 |
| 20260831084913 | 22 | 244 | 3.2 | 8.0 | 0.00 | 0.00 | 0.00 | 92 | 1008.4 |
| 20260831084802 | 22 | 244 | 3.2 | 8.0 | 0.00 | 0.00 | 0.00 | 92 | 1008.4 |
| 20260831084706 | 22 | 244 | 4.8 | 8.0 | 0.00 | 0.00 | 0.00 | 92 | 1008.4 |
| 20260831084631 | 22 | 244 | 4.8 | 8.0 | 0.00 | 0.00 | 0.00 | 92 | 1008.4 |
| 20260831084516 | 22 | 234 | 4.8 | 6.4 | 0.00 | 0.00 | 0.00 | 92 | 1008.3 |
| 20260831084354 | 22 | 234 | 4.8 | 6.4 | 0.00 | 0.00 | 0.00 | 92 | 1008.4 |
| 20260831084259 | 22 | 235 | 3.2 | 6.4 | 0.00 | 0.00 | 0.00 | 92 | 1008.4 |
| 20260831084224 | 22 | 234 | 3.2 | 4.8 | 0.00 | 0.00 | 0.00 | 92 | 1008.5 |
| 20260831084131 | 22 | 234 | 3.2 | 4.8 | 0.00 | 0.00 | 0.00 | 92 | 1008.5 |
| 20260831083955 | 22 | 234 | 3.2 | 4.8 | 0.00 | 0.00 | 0.00 | 92 | 1008.5 |
| 20260831083920 | 22 | 235 | 3.2 | 4.8 | 0.00 | 0.00 | 0.00 | 92 | 1008.5 |
| 20260831083758 | 22 | 235 | 3.2 | 4.8 | 0.00 | 0.00 | 0.00 | 92 | 1008.5 |
| 20260831083703 | 22 | 235 | 3.2 | 4.8 | 0.00 | 0.00 | 0.00 | 92 | 1008.5 |
| 20260831083608 | 22 | 234 | 3.2 | 6.4 | 0.00 | 0.00 | 0.00 | 92 | 1008.5 |
| 20260831083518 | 22 | 234 | 1.6 | 6.4 | 0.00 | 0.00 | 0.00 | 92 | 1008.4 |
| 20260831083356 | 22 | 234 | 1.6 | 6.4 | 0.00 | 0.00 | 0.00 | 92 | 1008.5 |
| 20260831083301 | 22 | 234 | 1.6 | 6.4 | 0.00 | 0.00 | 0.00 | 92 | 1008.5 |
| 20260831083204 | 22 | 234 | 3.2 | 8.0 | 0.00 | 0.00 | 0.00 | 92 | 1008.4 |
| 20260831083109 | 22 | 234 | 3.2 | 8.0 | 0.00 | 0.00 | 0.00 | 92 | 1008.4 |
| 20260831083034 | 22 | 234 | 1.6 | 11.3 | 0.00 | 0.00 | 0.00 | 92 | 1008.5 |
| 20260831082902 | 22 | 234 | 3.2 | 11.3 | 0.00 | 0.00 | 0.00 | 92 | 1008.4 |
| 20260831082807 | 22 | 234 | 3.2 | 11.3 | 0.00 | 0.00 | 0.00 | 92 | 1008.4 |
| 20260831082712 | 22 | 234 | 3.2 | 11.3 | 0.00 | 0.00 | 0.00 | 92 | 1008.4 |
| 20260831082618 | 22 | 234 | 4.8 | 11.3 | 0.00 | 0.00 | 0.00 | 92 | 1008.3 |
| 20260831082456 | 22 | 234 | 4.8 | 11.3 | 0.00 | 0.00 | 0.00 | 92 | 1008.3 |
| 20260831082401 | 22 | 234 | 6.4 | 11.3 | 0.00 | 0.00 | 0.00 | 92 | 1008.2 |
| 20260831082310 | 22 | 234 | 6.4 | 11.3 | 0.00 | 0.00 | 0.00 | 92 | 1008.2 |
| 20260831082155 | 22 | 236 | 4.8 | 11.3 | 0.00 | 0.00 | 0.00 | 92 | 1008.2 |
| 20260831082119 | 22 | 229 | 4.8 | 11.3 | 0.00 | 0.00 | 0.00 | 92 | 1008.2 |
| 20260831082003 | 22 | 229 | 4.8 | 12.9 | 0.00 | 0.00 | 0.00 | 92 | 1008.2 |
| 20260831081907 | 22 | 229 | 4.8 | 12.9 | 0.00 | 0.00 | 0.00 | 92 | 1008.2 |
| 20260831081811 | 22 | 238 | 4.8 | 12.9 | 0.00 | 0.00 | 0.00 | 92 | 1008.2 |
| 20260831081700 | 22 | 238 | 4.8 | 12.9 | 0.00 | 0.00 | 0.00 | 92 | 1008.2 |
| 20260831081605 | 22 | 238 | 4.8 | 12.9 | 0.00 | 0.00 | 0.00 | 91 | 1008.2 |
| 20260831081510 | 22 | 237 | 4.8 | 12.9 | 0.00 | 0.00 | 0.00 | 92 | 1008.1 |
| 20260831081415 | 22 | 237 | 4.8 | 12.9 | 0.00 | 0.00 | 0.00 | 91 | 1008.1 |
| 20260831081320 | 22 | 237 | 6.4 | 12.9 | 0.00 | 0.00 | 0.00 | 92 | 1008.1 |
| 20260831081158 | 22 | 258 | 8.0 | 12.9 | 0.00 | 0.00 | 0.00 | 92 | 1008.2 |
| 20260831081123 | 22 | 234 | 8.0 | 12.9 | 0.00 | 0.00 | 0.00 | 92 | 1008.2 |
| 20260831081027 | 22 | 240 | 8.0 | 12.9 | 0.00 | 0.00 | 0.00 | 92 | 1008.2 |
| 20260831080855 | 22 | 232 | 6.4 | 12.9 | 0.00 | 0.00 | 0.00 | 91 | 1008.1 |
| 20260831080819 | 22 | 269 | 8.0 | 12.9 | 0.00 | 0.00 | 0.00 | 92 | 1008.2 |
| 20260831080703 | 22 | 217 | 8.0 | 12.9 | 0.00 | 0.00 | 0.00 | 92 | 1008.2 |
| 20260831080608 | 22 | 242 | 8.0 | 12.9 | 0.00 | 0.00 | 0.00 | 92 | 1008.2 |
| 20260831080513 | 22 | 251 | 8.0 | 12.9 | 0.00 | 0.00 | 0.00 | 92 | 1008.3 |
| 20260831080357 | 22 | 257 | 8.0 | 12.9 | 0.00 | 0.00 | 0.00 | 92 | 1008.2 |
| 20260831080306 | 22 | 255 | 8.0 | 14.5 | 0.00 | 0.00 | 0.00 | 92 | 1008.2 |
| 20260831080210 | 22 | 230 | 8.0 | 14.5 | 0.00 | 0.00 | 0.00 | 91 | 1008.1 |
| 20260831080115 | 22 | 246 | 6.4 | 14.5 | 0.00 | 0.00 | 0.00 | 91 | 1008.2 |
| 20260831080019 | 22 | 252 | 6.4 | 14.5 | 0.00 | 0.00 | 0.00 | 91 | 1008.2 |
| 20260831075903 | 22 | 249 | 6.4 | 14.5 | 0.00 | 0.00 | 0.00 | 91 | 1008.2 |
| 20260831075807 | 22 | 238 | 8.0 | 14.5 | 0.00 | 0.00 | 0.00 | 91 | 1008.2 |
| 20260831075656 | 22 | 236 | 8.0 | 14.5 | 0.00 | 0.00 | 0.00 | 91 | 1008.2 |
| 20260831075601 | 22 | 227 | 8.0 | 14.5 | 0.00 | 0.00 | 0.00 | 91 | 1008.2 |
| 20260831075506 | 22 | 219 | 8.0 | 14.5 | 0.00 | 0.00 | 0.00 | 91 | 1008.2 |
| 20260831075410 | 22 | 232 | 8.0 | 14.5 | 0.00 | 0.00 | 0.00 | 91 | 1008.2 |
| 20260831075315 | 22 | 227 | 6.4 | 11.3 | 0.00 | 0.00 | 0.00 | 91 | 1008.3 |
| 20260831075241 | 22 | 253 | 8.0 | 12.9 | 0.00 | 0.00 | 0.00 | 91 | 1008.3 |
| 20260831075058 | 22 | 237 | 6.4 | 12.9 | 0.00 | 0.00 | 0.00 | 91 | 1008.3 |
| 20260831075026 | 22 | 217 | 6.4 | 12.9 | 0.00 | 0.00 | 0.00 | 91 | 1008.3 |
| 20260831074910 | 22 | 215 | 4.8 | 12.9 | 0.00 | 0.00 | 0.00 | 91 | 1008.3 |
| 20260831074755 | 22 | 236 | 6.4 | 12.9 | 0.00 | 0.00 | 0.00 | 91 | 1008.3 |
| 20260831074659 | 22 | 236 | 6.4 | 12.9 | 0.00 | 0.00 | 0.00 | 91 | 1008.3 |
| 20260831074624 | 22 | 232 | 6.4 | 12.9 | 0.00 | 0.00 | 0.00 | 91 | 1008.4 |
| 20260831074528 | 22 | 238 | 6.4 | 12.9 | 0.00 | 0.00 | 0.00 | 91 | 1008.4 |
| 20260831074432 | 22 | 242 | 6.4 | 12.9 | 0.00 | 0.00 | 0.00 | 91 | 1008.3 |
| 20260831074300 | 22 | 233 | 6.4 | 11.3 | 0.00 | 0.00 | 0.00 | 91 | 1008.3 |
| 20260831074225 | 22 | 240 | 6.4 | 11.3 | 0.00 | 0.00 | 0.00 | 91 | 1008.3 |
| 20260831074129 | 22 | 243 | 6.4 | 11.3 | 0.00 | 0.00 | 0.00 | 91 | 1008.3 |
| 20260831074012 | 22 | 253 | 6.4 | 11.3 | 0.00 | 0.00 | 0.00 | 91 | 1008.3 |
| 20260831073857 | 22 | 229 | 6.4 | 8.0 | 0.00 | 0.00 | 0.00 | 91 | 1008.3 |
| 20260831073802 | 22 | 229 | 4.8 | 8.0 | 0.00 | 0.00 | 0.00 | 91 | 1008.4 |
| 20260831073707 | 22 | 227 | 4.8 | 8.0 | 0.00 | 0.00 | 0.00 | 91 | 1008.4 |
| 20260831073555 | 22 | 227 | 4.8 | 8.0 | 0.00 | 0.00 | 0.00 | 91 | 1008.4 |
| 20260831073520 | 22 | 227 | 4.8 | 8.0 | 0.00 | 0.00 | 0.00 | 91 | 1008.4 |
| 20260831073358 | 22 | 225 | 4.8 | 8.0 | 0.00 | 0.00 | 0.00 | 91 | 1008.4 |
| 20260831073303 | 22 | 225 | 4.8 | 8.0 | 0.00 | 0.00 | 0.00 | 91 | 1008.4 |
| 20260831073228 | 22 | 225 | 4.8 | 8.0 | 0.00 | 0.00 | 0.00 | 91 | 1008.4 |
| 20260831073132 | 22 | 221 | 4.8 | 8.0 | 0.00 | 0.00 | 0.00 | 91 | 1008.4 |
| 20260831073013 | 22 | 221 | 4.8 | 8.0 | 0.00 | 0.00 | 0.00 | 91 | 1008.3 |
| 20260831072901 | 22 | 242 | 4.8 | 9.7 | 0.00 | 0.00 | 0.00 | 90 | 1008.5 |
| 20260831072806 | 22 | 241 | 4.8 | 9.7 | 0.00 | 0.00 | 0.00 | 90 | 1008.5 |
| 20260831072711 | 22 | 241 | 4.8 | 9.7 | 0.00 | 0.00 | 0.00 | 90 | 1008.4 |
| 20260831072616 | 22 | 246 | 4.8 | 9.7 | 0.00 | 0.00 | 0.00 | 90 | 1008.5 |
| 20260831072454 | 22 | 240 | 4.8 | 9.7 | 0.00 | 0.00 | 0.00 | 90 | 1008.5 |
| 20260831072419 | 22 | 243 | 6.4 | 9.7 | 0.00 | 0.00 | 0.00 | 90 | 1008.4 |
| 20260831072307 | 22 | 229 | 6.4 | 9.7 | 0.00 | 0.00 | 0.00 | 90 | 1008.4 |
| 20260831072212 | 22 | 229 | 6.4 | 9.7 | 0.00 | 0.00 | 0.00 | 90 | 1008.4 |
| 20260831072057 | 22 | 229 | 6.4 | 9.7 | 0.00 | 0.00 | 0.00 | 90 | 1008.4 |
| 20260831072002 | 22 | 234 | 6.4 | 9.7 | 0.00 | 0.00 | 0.00 | 90 | 1008.4 |
| 20260831071907 | 22 | 236 | 6.4 | 9.7 | 0.00 | 0.00 | 0.00 | 90 | 1008.4 |
| 20260831071812 | 22 | 235 | 6.4 | 9.7 | 0.00 | 0.00 | 0.00 | 90 | 1008.5 |
| 20260831071701 | 22 | 240 | 6.4 | 12.9 | 0.00 | 0.00 | 0.00 | 90 | 1008.5 |
| 20260831071605 | 22 | 205 | 6.4 | 12.9 | 0.00 | 0.00 | 0.00 | 90 | 1008.5 |
| 20260831071510 | 22 | 233 | 6.4 | 12.9 | 0.00 | 0.00 | 0.00 | 90 | 1008.5 |
| 20260831071355 | 22 | 237 | 6.4 | 12.9 | 0.00 | 0.00 | 0.00 | 90 | 1008.6 |
| 20260831071300 | 22 | 237 | 6.4 | 12.9 | 0.00 | 0.00 | 0.00 | 90 | 1008.6 |
| 20260831071205 | 22 | 259 | 6.4 | 12.9 | 0.00 | 0.00 | 0.00 | 90 | 1008.6 |
| 20260831071114 | 22 | 224 | 6.4 | 12.9 | 0.00 | 0.00 | 0.00 | 90 | 1008.6 |
| 20260831071018 | 22 | 244 | 6.4 | 12.9 | 0.00 | 0.00 | 0.00 | 90 | 1008.6 |
| 20260831070856 | 22 | 234 | 6.4 | 16.1 | 0.00 | 0.00 | 0.00 | 90 | 1008.6 |
| 20260831070821 | 22 | 248 | 6.4 | 16.1 | 0.00 | 0.00 | 0.00 | 90 | 1008.6 |
| 20260831070705 | 22 | 250 | 6.4 | 16.1 | 0.00 | 0.00 | 0.00 | 90 | 1008.6 |
| 20260831070610 | 22 | 239 | 6.4 | 16.1 | 0.00 | 0.00 | 0.00 | 90 | 1008.6 |
| 20260831070459 | 22 | 223 | 6.4 | 16.1 | 0.00 | 0.00 | 0.00 | 90 | 1008.5 |
| 20260831070404 | 22 | 214 | 8.0 | 16.1 | 0.00 | 0.00 | 0.00 | 90 | 1008.4 |
| 20260831070309 | 22 | 213 | 9.7 | 16.1 | 0.00 | 0.00 | 0.00 | 90 | 1008.4 |
| 20260831070212 | 22 | 234 | 8.0 | 16.1 | 0.00 | 0.00 | 0.00 | 90 | 1008.5 |
| 20260831070057 | 22 | 213 | 6.4 | 12.9 | 0.00 | 0.00 | 0.00 | 90 | 1008.4 |
| 20260831070001 | 22 | 229 | 8.0 | 12.9 | 0.00 | 0.00 | 0.00 | 90 | 1008.5 |
| 20260831065910 | 22 | 233 | 8.0 | 12.9 | 0.00 | 0.00 | 0.00 | 90 | 1008.5 |
| 20260831065812 | 22 | 234 | 8.0 | 12.9 | 0.00 | 0.00 | 0.00 | 90 | 1008.5 |
| 20260831065657 | 22 | 257 | 6.4 | 12.9 | 0.00 | 0.00 | 0.00 | 90 | 1008.6 |
| 20260831065602 | 22 | 222 | 6.4 | 12.9 | 0.00 | 0.00 | 0.00 | 90 | 1008.6 |
| 20260831065507 | 22 | 223 | 8.0 | 12.9 | 0.00 | 0.00 | 0.00 | 90 | 1008.6 |
| 20260831065411 | 22 | 224 | 8.0 | 12.9 | 0.00 | 0.00 | 0.00 | 90 | 1008.6 |
| 20260831065300 | 22 | 224 | 8.0 | 12.9 | 0.00 | 0.00 | 0.00 | 90 | 1008.6 |
| 20260831065225 | 22 | 220 | 8.0 | 9.7 | 0.00 | 0.00 | 0.00 | 90 | 1008.6 |
| 20260831065106 | 22 | 221 | 6.4 | 11.3 | 0.00 | 0.00 | 0.00 | 90 | 1008.6 |
| 20260831065011 | 22 | 219 | 4.8 | 11.3 | 0.00 | 0.00 | 0.00 | 90 | 1008.7 |
| 20260831064916 | 23 | 240 | 6.4 | 11.3 | 0.00 | 0.00 | 0.00 | 90 | 1008.7 |
| 20260831064759 | 23 | 230 | 6.4 | 11.3 | 0.00 | 0.00 | 0.00 | 90 | 1008.7 |
| 20260831064704 | 23 | 241 | 6.4 | 11.3 | 0.00 | 0.00 | 0.00 | 90 | 1008.7 |
| 20260831064633 | 23 | 221 | 6.4 | 11.3 | 0.00 | 0.00 | 0.00 | 89 | 1008.7 |
| 20260831064537 | 23 | 220 | 6.4 | 11.3 | 0.00 | 0.00 | 0.00 | 89 | 1008.6 |
| 20260831064354 | 23 | 219 | 8.0 | 11.3 | 0.00 | 0.00 | 0.00 | 89 | 1008.6 |
| 20260831064259 | 23 | 211 | 8.0 | 11.3 | 0.00 | 0.00 | 0.00 | 89 | 1008.7 |
| 20260831064203 | 23 | 217 | 8.0 | 11.3 | 0.00 | 0.00 | 0.00 | 89 | 1008.8 |
| 20260831064107 | 23 | 207 | 6.4 | 11.3 | 0.00 | 0.00 | 0.00 | 89 | 1008.8 |
| 20260831063956 | 23 | 223 | 6.4 | 9.7 | 0.00 | 0.00 | 0.00 | 89 | 1008.8 |
| 20260831063900 | 23 | 214 | 6.4 | 9.7 | 0.00 | 0.00 | 0.00 | 89 | 1008.8 |
| 20260831063805 | 23 | 222 | 6.4 | 9.7 | 0.00 | 0.00 | 0.00 | 89 | 1008.8 |
| 20260831063709 | 23 | 214 | 4.8 | 8.0 | 0.00 | 0.00 | 0.00 | 89 | 1008.8 |
| 20260831063633 | 23 | 211 | 4.8 | 12.9 | 0.00 | 0.00 | 0.00 | 89 | 1008.9 |
| 20260831063516 | 23 | 211 | 4.8 | 12.9 | 0.00 | 0.00 | 0.00 | 89 | 1008.9 |
| 20260831063420 | 23 | 223 | 4.8 | 12.9 | 0.00 | 0.00 | 0.00 | 89 | 1008.9 |
| 20260831063258 | 23 | 243 | 6.4 | 12.9 | 0.00 | 0.00 | 0.00 | 89 | 1008.9 |
| 20260831063207 | 23 | 248 | 6.4 | 12.9 | 0.00 | 0.00 | 0.00 | 89 | 1008.9 |
| 20260831063112 | 23 | 223 | 6.4 | 12.9 | 0.00 | 0.00 | 0.00 | 89 | 1008.9 |
| 20260831063037 | 23 | 221 | 6.4 | 12.9 | 0.00 | 0.00 | 0.00 | 89 | 1008.9 |
| 20260831062854 | 23 | 225 | 6.4 | 12.9 | 0.00 | 0.00 | 0.00 | 89 | 1008.8 |
| 20260831062759 | 23 | 241 | 6.4 | 11.3 | 0.00 | 0.00 | 0.00 | 89 | 1008.8 |
| 20260831062704 | 23 | 234 | 6.4 | 12.9 | 0.00 | 0.00 | 0.00 | 89 | 1008.8 |
| 20260831062613 | 23 | 234 | 6.4 | 12.9 | 0.00 | 0.00 | 0.00 | 89 | 1008.8 |
| 20260831062539 | 23 | 229 | 6.4 | 12.9 | 0.00 | 0.00 | 0.00 | 89 | 1008.8 |
| 20260831062355 | 23 | 216 | 4.8 | 12.9 | 0.00 | 0.00 | 0.00 | 89 | 1008.9 |
| 20260831062300 | 23 | 236 | 4.8 | 12.9 | 0.00 | 0.00 | 0.00 | 89 | 1009.0 |
| 20260831062204 | 23 | 236 | 6.4 | 12.9 | 0.00 | 0.00 | 0.00 | 89 | 1009.0 |
| 20260831062129 | 23 | 250 | 6.4 | 12.9 | 0.00 | 0.00 | 0.00 | 89 | 1009.0 |
| 20260831062013 | 23 | 255 | 8.0 | 12.9 | 0.00 | 0.00 | 0.00 | 89 | 1009.0 |
| 20260831061902 | 23 | 240 | 9.7 | 12.9 | 0.00 | 0.00 | 0.00 | 89 | 1008.9 |
| 20260831061807 | 23 | 231 | 8.0 | 14.5 | 0.00 | 0.00 | 0.00 | 89 | 1008.9 |
| 20260831061712 | 23 | 261 | 6.4 | 14.5 | 0.00 | 0.00 | 0.00 | 89 | 1008.9 |
| 20260831061556 | 23 | 211 | 4.8 | 12.9 | 0.00 | 0.00 | 0.00 | 89 | 1009.0 |
| 20260831061501 | 23 | 237 | 6.4 | 12.9 | 0.00 | 0.00 | 0.00 | 89 | 1009.0 |
| 20260831061426 | 23 | 247 | 8.0 | 12.9 | 0.00 | 0.00 | 0.00 | 89 | 1009.0 |
| 20260831061254 | 23 | 236 | 6.4 | 12.9 | 0.00 | 0.00 | 0.00 | 89 | 1009.1 |
| 20260831061159 | 23 | 235 | 4.8 | 12.9 | 0.00 | 0.00 | 0.00 | 89 | 1009.1 |
| 20260831061123 | 23 | 234 | 4.8 | 12.9 | 0.00 | 0.00 | 0.00 | 89 | 1009.0 |
| 20260831061007 | 23 | 244 | 6.4 | 12.9 | 0.00 | 0.00 | 0.00 | 89 | 1009.0 |
| 20260831060912 | 23 | 249 | 6.4 | 12.9 | 0.00 | 0.00 | 0.00 | 88 | 1009.0 |
| 20260831060757 | 23 | 263 | 6.4 | 12.9 | 0.00 | 0.00 | 0.00 | 88 | 1008.9 |
| 20260831060706 | 23 | 232 | 4.8 | 12.9 | 0.00 | 0.00 | 0.00 | 88 | 1008.9 |
| 20260831060611 | 23 | 242 | 4.8 | 12.9 | 0.00 | 0.00 | 0.00 | 88 | 1009.0 |
| 20260831060516 | 23 | 247 | 6.4 | 12.9 | 0.00 | 0.00 | 0.00 | 88 | 1009.0 |
| 20260831060354 | 23 | 250 | 6.4 | 12.9 | 0.00 | 0.00 | 0.00 | 88 | 1009.0 |
| 20260831060259 | 23 | 236 | 8.0 | 12.9 | 0.00 | 0.00 | 0.00 | 88 | 1008.9 |
| 20260831060204 | 23 | 239 | 8.0 | 12.9 | 0.00 | 0.00 | 0.00 | 88 | 1008.9 |
| 20260831060112 | 23 | 236 | 6.4 | 16.1 | 0.00 | 0.00 | 0.00 | 88 | 1008.9 |
| 20260831055957 | 23 | 232 | 6.4 | 17.7 | 0.00 | 0.00 | 0.00 | 88 | 1009.0 |
| 20260831055902 | 23 | 244 | 8.0 | 17.7 | 0.00 | 0.00 | 0.00 | 88 | 1008.9 |
| 20260831055807 | 23 | 223 | 8.0 | 17.7 | 0.00 | 0.00 | 0.00 | 88 | 1008.9 |
| 20260831055712 | 23 | 247 | 6.4 | 17.7 | 0.00 | 0.00 | 0.00 | 88 | 1009.0 |
| 20260831055556 | 23 | 234 | 6.4 | 17.7 | 0.00 | 0.00 | 0.00 | 88 | 1009.0 |
| 20260831055525 | 23 | 236 | 8.0 | 17.7 | 0.00 | 0.00 | 0.00 | 88 | 1009.0 |
| 20260831055428 | 23 | 234 | 9.7 | 17.7 | 0.00 | 0.00 | 0.00 | 88 | 1009.0 |
| 20260831055311 | 23 | 238 | 9.7 | 17.7 | 0.00 | 0.00 | 0.00 | 88 | 1009.0 |
| 20260831055216 | 23 | 220 | 8.0 | 14.5 | 0.00 | 0.00 | 0.00 | 88 | 1009.0 |
| 20260831055120 | 23 | 209 | 6.4 | 14.5 | 0.00 | 0.00 | 0.00 | 88 | 1008.9 |
| 20260831055004 | 23 | 239 | 6.4 | 14.5 | 0.00 | 0.00 | 0.00 | 88 | 1009.1 |
| 20260831054929 | 23 | 234 | 8.0 | 14.5 | 0.00 | 0.00 | 0.00 | 88 | 1009.1 |
| 20260831054812 | 23 | 246 | 9.7 | 14.5 | 0.00 | 0.00 | 0.00 | 88 | 1009.1 |
| 20260831054701 | 23 | 244 | 9.7 | 12.9 | 0.00 | 0.00 | 0.00 | 88 | 1009.1 |
| 20260831054606 | 23 | 228 | 8.0 | 12.9 | 0.00 | 0.00 | 0.00 | 88 | 1009.1 |
| 20260831054511 | 23 | 229 | 8.0 | 12.9 | 0.00 | 0.00 | 0.00 | 88 | 1009.1 |
| 20260831054356 | 23 | 232 | 8.0 | 14.5 | 0.00 | 0.00 | 0.00 | 88 | 1009.1 |
| 20260831054301 | 23 | 230 | 6.4 | 14.5 | 0.00 | 0.00 | 0.00 | 88 | 1009.2 |
| 20260831054205 | 23 | 251 | 4.8 | 17.7 | 0.00 | 0.00 | 0.00 | 88 | 1009.2 |
| 20260831054134 | 23 | 236 | 3.2 | 17.7 | 0.00 | 0.00 | 0.00 | 88 | 1009.2 |
| 20260831054017 | 23 | 236 | 4.8 | 17.7 | 0.00 | 0.00 | 0.00 | 88 | 1009.2 |
| 20260831053901 | 23 | 236 | 6.4 | 17.7 | 0.00 | 0.00 | 0.00 | 88 | 1009.1 |
| 20260831053806 | 23 | 236 | 6.4 | 17.7 | 0.00 | 0.00 | 0.00 | 88 | 1009.1 |
| 20260831053731 | 23 | 235 | 6.4 | 17.7 | 0.00 | 0.00 | 0.00 | 87 | 1009.1 |
| 20260831053555 | 23 | 238 | 8.0 | 17.7 | 0.00 | 0.00 | 0.00 | 88 | 1009.2 |
| 20260831053520 | 23 | 234 | 9.7 | 17.7 | 0.00 | 0.00 | 0.00 | 87 | 1009.1 |
| 20260831053407 | 23 | 222 | 8.0 | 12.9 | 0.00 | 0.00 | 0.00 | 87 | 1009.1 |
| 20260831053312 | 23 | 229 | 8.0 | 12.9 | 0.00 | 0.00 | 0.00 | 87 | 1009.2 |
| 20260831053237 | 23 | 257 | 4.8 | 11.3 | 0.00 | 0.00 | 0.00 | 87 | 1009.4 |
| 20260831053141 | 23 | 244 | 4.8 | 11.3 | 0.00 | 0.00 | 0.00 | 87 | 1009.4 |
| 20260831052958 | 23 | 236 | 4.8 | 11.3 | 0.00 | 0.00 | 0.00 | 87 | 1009.5 |
| 20260831052922 | 23 | 232 | 4.8 | 11.3 | 0.00 | 0.00 | 0.00 | 87 | 1009.5 |
| 20260831052806 | 23 | 233 | 4.8 | 11.3 | 0.00 | 0.00 | 0.00 | 87 | 1009.5 |
| 20260831052655 | 23 | 246 | 4.8 | 11.3 | 0.00 | 0.00 | 0.00 | 87 | 1009.5 |
| 20260831052620 | 23 | 245 | 4.8 | 11.3 | 0.00 | 0.00 | 0.00 | 87 | 1009.5 |
| 20260831052458 | 23 | 252 | 4.8 | 11.3 | 0.00 | 0.00 | 0.00 | 87 | 1009.5 |
| 20260831052402 | 23 | 236 | 4.8 | 11.3 | 0.00 | 0.00 | 0.00 | 87 | 1009.5 |
| 20260831052307 | 23 | 237 | 6.4 | 11.3 | 0.00 | 0.00 | 0.00 | 87 | 1009.5 |
| 20260831052212 | 23 | 259 | 6.4 | 14.5 | 0.00 | 0.00 | 0.00 | 87 | 1009.5 |
| 20260831052101 | 23 | 248 | 8.0 | 14.5 | 0.00 | 0.00 | 0.00 | 87 | 1009.5 |
| 20260831052005 | 23 | 227 | 8.0 | 14.5 | 0.00 | 0.00 | 0.00 | 87 | 1009.5 |
| 20260831051910 | 23 | 248 | 8.0 | 14.5 | 0.00 | 0.00 | 0.00 | 87 | 1009.5 |
| 20260831051755 | 23 | 237 | 6.4 | 14.5 | 0.00 | 0.00 | 0.00 | 87 | 1009.5 |
| 20260831051719 | 23 | 250 | 6.4 | 14.5 | 0.00 | 0.00 | 0.00 | 87 | 1009.5 |
| 20260831051623 | 23 | 234 | 8.0 | 14.5 | 0.00 | 0.00 | 0.00 | 87 | 1009.5 |
| 20260831051507 | 23 | 239 | 9.7 | 14.5 | 0.00 | 0.00 | 0.00 | 87 | 1009.5 |
| 20260831051356 | 23 | 235 | 8.0 | 16.1 | 0.00 | 0.00 | 0.00 | 87 | 1009.6 |
| 20260831051321 | 23 | 240 | 6.4 | 14.5 | 0.00 | 0.00 | 0.00 | 87 | 1009.6 |
| 20260831051157 | 23 | 233 | 6.4 | 14.5 | 0.00 | 0.00 | 0.00 | 87 | 1009.7 |
| 20260831051102 | 23 | 234 | 6.4 | 14.5 | 0.00 | 0.00 | 0.00 | 87 | 1009.7 |
| 20260831051007 | 23 | 234 | 9.7 | 14.5 | 0.00 | 0.00 | 0.00 | 87 | 1009.7 |
| 20260831050912 | 23 | 250 | 9.7 | 14.5 | 0.00 | 0.00 | 0.00 | 87 | 1009.6 |
| 20260831050801 | 23 | 267 | 8.0 | 14.5 | 0.00 | 0.00 | 0.00 | 87 | 1009.7 |
| 20260831050706 | 23 | 252 | 8.0 | 14.5 | 0.00 | 0.00 | 0.00 | 87 | 1009.7 |
| 20260831050611 | 23 | 259 | 8.0 | 14.5 | 0.00 | 0.00 | 0.00 | 87 | 1009.7 |
| 20260831050456 | 23 | 232 | 6.4 | 14.5 | 0.00 | 0.00 | 0.00 | 87 | 1009.7 |
| 20260831050401 | 23 | 236 | 8.0 | 14.5 | 0.00 | 0.00 | 0.00 | 87 | 1009.8 |
| 20260831050304 | 23 | 250 | 9.7 | 14.5 | 0.00 | 0.00 | 0.00 | 87 | 1009.7 |
| 20260831050233 | 23 | 241 | 8.0 | 14.5 | 0.00 | 0.00 | 0.00 | 87 | 1009.7 |
| 20260831050110 | 23 | 265 | 8.0 | 14.5 | 0.00 | 0.00 | 0.00 | 87 | 1009.7 |
| 20260831050015 | 23 | 231 | 6.4 | 14.5 | 0.00 | 0.00 | 0.00 | 87 | 1009.7 |
| 20260831045859 | 23 | 242 | 6.4 | 14.5 | 0.00 | 0.00 | 0.00 | 86 | 1009.8 |
| 20260831045824 | 23 | 272 | 8.0 | 14.5 | 0.00 | 0.00 | 0.00 | 86 | 1009.8 |
| 20260831045708 | 23 | 268 | 8.0 | 14.5 | 0.00 | 0.00 | 0.00 | 86 | 1009.8 |
| 20260831045613 | 23 | 271 | 8.0 | 14.5 | 0.00 | 0.00 | 0.00 | 86 | 1009.8 |
| 20260831045502 | 23 | 265 | 8.0 | 14.5 | 0.00 | 0.00 | 0.00 | 86 | 1009.8 |
| 20260831045407 | 23 | 254 | 6.4 | 14.5 | 0.00 | 0.00 | 0.00 | 86 | 1009.9 |
| 20260831045312 | 23 | 275 | 6.4 | 14.5 | 0.00 | 0.00 | 0.00 | 86 | 1009.9 |
| 20260831045217 | 23 | 261 | 6.4 | 14.5 | 0.00 | 0.00 | 0.00 | 86 | 1009.9 |
| 20260831045055 | 23 | 290 | 9.7 | 14.5 | 0.00 | 0.00 | 0.00 | 86 | 1009.9 |
| 20260831045000 | 23 | 267 | 9.7 | 14.5 | 0.00 | 0.00 | 0.00 | 86 | 1009.9 |
| 20260831044908 | 23 | 267 | 8.0 | 14.5 | 0.00 | 0.00 | 0.00 | 86 | 1009.9 |
| 20260831044813 | 23 | 249 | 8.0 | 14.5 | 0.00 | 0.00 | 0.00 | 86 | 1009.9 |
| 20260831044658 | 23 | 257 | 8.0 | 12.9 | 0.00 | 0.00 | 0.00 | 86 | 1010.0 |
| 20260831044603 | 23 | 360 | 8.0 | 12.9 | 0.00 | 0.00 | 0.00 | 86 | 1009.9 |
| 20260831044508 | 23 | 222 | 8.0 | 12.9 | 0.00 | 0.00 | 0.00 | 86 | 1009.9 |
| 20260831044357 | 23 | 260 | 8.0 | 14.5 | 0.00 | 0.00 | 0.00 | 86 | 1010.0 |
| 20260831044322 | 23 | 297 | 6.4 | 14.5 | 0.00 | 0.00 | 0.00 | 86 | 1009.9 |
| 20260831044206 | 23 | 254 | 6.4 | 14.5 | 0.00 | 0.00 | 0.00 | 86 | 1009.9 |
| 20260831044111 | 23 | 242 | 8.0 | 14.5 | 0.00 | 0.00 | 0.00 | 86 | 1009.9 |
| 20260831043956 | 23 | 236 | 8.0 | 14.5 | 0.00 | 0.00 | 0.00 | 86 | 1010.0 |
| 20260831043921 | 23 | 281 | 6.4 | 14.5 | 0.00 | 0.00 | 0.00 | 86 | 1010.0 |
| 20260831043824 | 23 | 248 | 6.4 | 14.5 | 0.00 | 0.00 | 0.00 | 86 | 1010.0 |
| 20260831043708 | 23 | 250 | 8.0 | 20.9 | 0.00 | 0.00 | 0.00 | 86 | 1010.0 |
| 20260831043617 | 23 | 253 | 9.7 | 20.9 | 0.00 | 0.00 | 0.00 | 86 | 1010.0 |
| 20260831043455 | 23 | 262 | 6.4 | 20.9 | 0.00 | 0.00 | 0.00 | 86 | 1010.1 |
| 20260831043419 | 24 | 263 | 6.4 | 20.9 | 0.00 | 0.00 | 0.00 | 86 | 1010.1 |
| 20260831043323 | 24 | 261 | 8.0 | 20.9 | 0.00 | 0.00 | 0.00 | 86 | 1010.1 |
| 20260831043206 | 24 | 246 | 9.7 | 20.9 | 0.00 | 0.00 | 0.00 | 86 | 1010.1 |
| 20260831043111 | 24 | 229 | 6.4 | 20.9 | 0.00 | 0.00 | 0.00 | 86 | 1010.1 |
| 20260831043000 | 24 | 260 | 8.0 | 20.9 | 0.00 | 0.00 | 0.00 | 86 | 1010.0 |
| 20260831042925 | 24 | 224 | 12.9 | 20.9 | 0.00 | 0.00 | 0.00 | 86 | 1009.9 |
| 20260831042809 | 24 | 293 | 11.3 | 20.9 | 0.00 | 0.00 | 0.00 | 86 | 1009.9 |
| 20260831042734 | 24 | 296 | 9.7 | 17.7 | 0.00 | 0.00 | 0.00 | 86 | 1009.9 |
| 20260831042558 | 24 | 261 | 11.3 | 20.9 | 0.00 | 0.00 | 0.00 | 85 | 1009.9 |
| 20260831042503 | 24 | 291 | 11.3 | 20.9 | 0.00 | 0.00 | 0.00 | 85 | 1009.9 |
| 20260831042408 | 24 | 252 | 11.3 | 20.9 | 0.00 | 0.00 | 0.00 | 85 | 1009.9 |
| 20260831042257 | 24 | 257 | 8.0 | 20.9 | 0.00 | 0.00 | 0.00 | 85 | 1009.9 |
| 20260831042202 | 24 | 247 | 8.0 | 20.9 | 0.00 | 0.00 | 0.00 | 85 | 1010.0 |
| 20260831042127 | 24 | 240 | 9.7 | 20.9 | 0.00 | 0.00 | 0.00 | 85 | 1010.0 |
| 20260831042011 | 24 | 276 | 9.7 | 20.9 | 0.00 | 0.00 | 0.00 | 85 | 1010.0 |
| 20260831041915 | 24 | 254 | 11.3 | 20.9 | 0.00 | 0.00 | 0.00 | 85 | 1010.0 |
| 20260831041819 | 24 | 296 | 11.3 | 20.9 | 0.00 | 0.00 | 0.00 | 85 | 1010.0 |
| 20260831041702 | 24 | 252 | 11.3 | 20.9 | 0.00 | 0.00 | 0.00 | 85 | 1010.0 |
| 20260831041627 | 24 | 253 | 8.0 | 17.7 | 0.00 | 0.00 | 0.00 | 85 | 1010.0 |
| 20260831041513 | 24 | 255 | 9.7 | 17.7 | 0.00 | 0.00 | 0.00 | 85 | 1010.0 |
| 20260831041358 | 24 | 269 | 9.7 | 17.7 | 0.00 | 0.00 | 0.00 | 85 | 1010.0 |
| 20260831041323 | 24 | 284 | 8.0 | 17.7 | 0.00 | 0.00 | 0.00 | 85 | 1009.9 |
| 20260831041207 | 24 | 261 | 8.0 | 17.7 | 0.00 | 0.00 | 0.00 | 85 | 1009.9 |
| 20260831041112 | 24 | 290 | 11.3 | 17.7 | 0.00 | 0.00 | 0.00 | 85 | 1009.9 |
| 20260831041017 | 24 | 259 | 9.7 | 17.7 | 0.00 | 0.00 | 0.00 | 85 | 1009.9 |
| 20260831040904 | 24 | 268 | 8.0 | 19.3 | 0.00 | 0.00 | 0.00 | 85 | 1010.0 |
| 20260831040809 | 24 | 235 | 8.0 | 19.3 | 0.00 | 0.00 | 0.00 | 85 | 1010.0 |
| 20260831040654 | 24 | 244 | 9.7 | 19.3 | 0.00 | 0.00 | 0.00 | 85 | 1010.0 |
| 20260831040558 | 24 | 252 | 11.3 | 19.3 | 0.00 | 0.00 | 0.00 | 85 | 1010.0 |
| 20260831040523 | 24 | 283 | 9.7 | 19.3 | 0.00 | 0.00 | 0.00 | 85 | 1010.0 |
| 20260831040407 | 24 | 254 | 8.0 | 19.3 | 0.00 | 0.00 | 0.00 | 85 | 1010.0 |
| 20260831040256 | 24 | 265 | 9.7 | 19.3 | 0.00 | 0.00 | 0.00 | 84 | 1009.9 |
| 20260831040201 | 24 | 252 | 9.7 | 19.3 | 0.00 | 0.00 | 0.00 | 84 | 1009.9 |
| 20260831040106 | 24 | 294 | 8.0 | 19.3 | 0.00 | 0.00 | 0.00 | 84 | 1009.9 |
| 20260831040011 | 24 | 255 | 6.4 | 19.3 | 0.00 | 0.00 | 0.00 | 84 | 1009.9 |
| 20260831035855 | 24 | 360 | 9.7 | 19.3 | 0.00 | 0.00 | 0.00 | 84 | 1009.9 |
| 20260831035800 | 24 | 254 | 11.3 | 19.3 | 0.00 | 0.00 | 0.00 | 84 | 1009.8 |
| 20260831035708 | 24 | 236 | 12.9 | 19.3 | 0.00 | 0.00 | 0.00 | 84 | 1009.8 |
| 20260831035613 | 24 | 261 | 12.9 | 19.3 | 0.00 | 0.00 | 0.00 | 84 | 1009.8 |
| 20260831035537 | 24 | 246 | 11.3 | 19.3 | 0.00 | 0.00 | 0.00 | 84 | 1009.9 |
| 20260831035355 | 24 | 245 | 8.0 | 19.3 | 0.00 | 0.00 | 0.00 | 84 | 1009.9 |
| 20260831035300 | 24 | 298 | 8.0 | 19.3 | 0.00 | 0.00 | 0.00 | 84 | 1009.8 |
| 20260831035224 | 24 | 222 | 11.3 | 19.3 | 0.00 | 0.00 | 0.00 | 84 | 1009.9 |
| 20260831035108 | 24 | 271 | 11.3 | 19.3 | 0.00 | 0.00 | 0.00 | 84 | 1009.8 |
| 20260831035016 | 24 | 259 | 11.3 | 19.3 | 0.00 | 0.00 | 0.00 | 84 | 1009.8 |
| 20260831034859 | 24 | 263 | 11.3 | 17.7 | 0.00 | 0.00 | 0.00 | 84 | 1009.8 |
| 20260831034824 | 24 | 270 | 11.3 | 20.9 | 0.00 | 0.00 | 0.00 | 84 | 1009.8 |
| 20260831034707 | 24 | 257 | 12.9 | 20.9 | 0.00 | 0.00 | 0.00 | 84 | 1009.8 |
| 20260831034612 | 24 | 254 | 11.3 | 20.9 | 0.00 | 0.00 | 0.00 | 84 | 1009.8 |
| 20260831034457 | 24 | 281 | 8.0 | 20.9 | 0.00 | 0.00 | 0.00 | 84 | 1009.9 |
| 20260831034402 | 24 | 269 | 9.7 | 20.9 | 0.00 | 0.00 | 0.00 | 84 | 1009.9 |
| 20260831034310 | 24 | 230 | 8.0 | 20.9 | 0.00 | 0.00 | 0.00 | 84 | 1009.9 |
| 20260831034212 | 24 | 280 | 11.3 | 20.9 | 0.00 | 0.00 | 0.00 | 84 | 1009.9 |
| 20260831034056 | 24 | 267 | 12.9 | 20.9 | 0.00 | 0.00 | 0.00 | 84 | 1009.8 |
| 20260831034001 | 24 | 267 | 11.3 | 20.9 | 0.00 | 0.00 | 0.00 | 83 | 1009.8 |
| 20260831033905 | 24 | 273 | 9.7 | 17.7 | 0.00 | 0.00 | 0.00 | 83 | 1009.8 |
| 20260831033810 | 25 | 238 | 11.3 | 17.7 | 0.00 | 0.00 | 0.00 | 83 | 1009.8 |
| 20260831033719 | 25 | 242 | 8.0 | 17.7 | 0.00 | 0.00 | 0.00 | 83 | 1009.8 |
| 20260831033603 | 25 | 251 | 9.7 | 17.7 | 0.00 | 0.00 | 0.00 | 83 | 1009.9 |
| 20260831033508 | 25 | 281 | 8.0 | 17.7 | 0.00 | 0.00 | 0.00 | 83 | 1009.9 |
| 20260831033413 | 25 | 265 | 8.0 | 17.7 | 0.00 | 0.00 | 0.00 | 83 | 1009.8 |
| 20260831033257 | 25 | 235 | 8.0 | 14.5 | 0.00 | 0.00 | 0.00 | 83 | 1009.8 |
| 20260831033202 | 25 | 277 | 8.0 | 14.5 | 0.00 | 0.00 | 0.00 | 83 | 1009.8 |
| 20260831033126 | 25 | 223 | 8.0 | 14.5 | 0.00 | 0.00 | 0.00 | 83 | 1009.9 |
| 20260831032954 | 25 | 251 | 8.0 | 14.5 | 0.00 | 0.00 | 0.00 | 83 | 1009.9 |
| 20260831032859 | 25 | 231 | 8.0 | 14.5 | 0.00 | 0.00 | 0.00 | 83 | 1009.9 |
| 20260831032804 | 25 | 251 | 6.4 | 14.5 | 0.00 | 0.00 | 0.00 | 82 | 1010.0 |
| 20260831032709 | 25 | 265 | 6.4 | 16.1 | 0.00 | 0.00 | 0.00 | 82 | 1010.0 |
| 20260831032554 | 25 | 254 | 8.0 | 16.1 | 0.00 | 0.00 | 0.00 | 82 | 1010.0 |
| 20260831032459 | 25 | 259 | 8.0 | 16.1 | 0.00 | 0.00 | 0.00 | 82 | 1009.9 |
| 20260831032407 | 25 | 276 | 8.0 | 16.1 | 0.00 | 0.00 | 0.00 | 82 | 1009.9 |
| 20260831032312 | 25 | 252 | 8.0 | 16.1 | 0.00 | 0.00 | 0.00 | 82 | 1009.9 |
| 20260831032217 | 25 | 253 | 6.4 | 16.1 | 0.00 | 0.00 | 0.00 | 82 | 1009.8 |
| 20260831032055 | 25 | 242 | 6.4 | 16.1 | 0.00 | 0.00 | 0.00 | 82 | 1009.8 |
| 20260831032020 | 25 | 240 | 8.0 | 16.1 | 0.00 | 0.00 | 0.00 | 82 | 1009.8 |
| 20260831031904 | 25 | 270 | 9.7 | 16.1 | 0.00 | 0.00 | 0.00 | 82 | 1009.8 |
| 20260831031813 | 25 | 244 | 9.7 | 16.1 | 0.00 | 0.00 | 0.00 | 82 | 1009.8 |
| 20260831031658 | 25 | 247 | 11.3 | 17.7 | 0.00 | 0.00 | 0.00 | 82 | 1009.7 |
| 20260831031622 | 25 | 245 | 11.3 | 17.7 | 0.00 | 0.00 | 0.00 | 82 | 1009.7 |
| 20260831031506 | 25 | 273 | 8.0 | 19.3 | 0.00 | 0.00 | 0.00 | 82 | 1009.7 |
| 20260831031431 | 25 | 273 | 8.0 | 19.3 | 0.00 | 0.00 | 0.00 | 82 | 1009.7 |
| 20260831031315 | 25 | 244 | 6.4 | 19.3 | 0.00 | 0.00 | 0.00 | 82 | 1009.7 |
| 20260831031218 | 25 | 228 | 9.7 | 19.3 | 0.00 | 0.00 | 0.00 | 81 | 1009.7 |
| 20260831031122 | 25 | 261 | 11.3 | 19.3 | 0.00 | 0.00 | 0.00 | 81 | 1009.8 |
| 20260831031010 | 25 | 267 | 9.7 | 19.3 | 0.00 | 0.00 | 0.00 | 81 | 1009.8 |
| 20260831030854 | 25 | 261 | 8.0 | 19.3 | 0.00 | 0.00 | 0.00 | 81 | 1009.7 |
| 20260831030819 | 25 | 252 | 9.7 | 19.3 | 0.00 | 0.00 | 0.00 | 81 | 1009.7 |
| 20260831030657 | 25 | 256 | 11.3 | 20.9 | 0.00 | 0.00 | 0.00 | 81 | 1009.7 |
| 20260831030602 | 25 | 236 | 9.7 | 20.9 | 0.00 | 0.00 | 0.00 | 81 | 1009.7 |
| 20260831030507 | 25 | 247 | 8.0 | 20.9 | 0.00 | 0.00 | 0.00 | 81 | 1009.6 |
| 20260831030416 | 25 | 268 | 9.7 | 20.9 | 0.00 | 0.00 | 0.00 | 81 | 1009.6 |
| 20260831030300 | 25 | 259 | 9.7 | 20.9 | 0.00 | 0.00 | 0.00 | 81 | 1009.6 |
| 20260831030205 | 25 | 228 | 8.0 | 20.9 | 0.00 | 0.00 | 0.00 | 81 | 1009.6 |
| 20260831030110 | 25 | 227 | 8.0 | 20.9 | 0.00 | 0.00 | 0.00 | 81 | 1009.6 |
| 20260831030015 | 25 | 232 | 9.7 | 20.9 | 0.00 | 0.00 | 0.00 | 81 | 1009.6 |
| 20260831025940 | 25 | 254 | 11.3 | 20.9 | 0.00 | 0.00 | 0.00 | 81 | 1009.5 |
| 20260831025756 | 25 | 259 | 9.7 | 16.1 | 0.00 | 0.00 | 0.00 | 81 | 1009.4 |
| 20260831025725 | 25 | 292 | 9.7 | 14.5 | 0.00 | 0.00 | 0.00 | 80 | 1009.5 |
| 20260831025609 | 25 | 236 | 8.0 | 14.5 | 0.00 | 0.00 | 0.00 | 80 | 1009.5 |
| 20260831025454 | 25 | 244 | 6.4 | 14.5 | 0.00 | 0.00 | 0.00 | 80 | 1009.5 |
| 20260831025359 | 25 | 241 | 8.0 | 19.3 | 0.00 | 0.00 | 0.00 | 80 | 1009.5 |
| 20260831025306 | 25 | 242 | 8.0 | 20.9 | 0.00 | 0.00 | 0.00 | 80 | 1009.4 |
| 20260831025229 | 25 | 225 | 9.7 | 20.9 | 0.00 | 0.00 | 0.00 | 80 | 1009.4 |
| 20260831025057 | 25 | 227 | 11.3 | 20.9 | 0.00 | 0.00 | 0.00 | 80 | 1009.5 |
| 20260831025002 | 25 | 215 | 11.3 | 22.5 | 0.00 | 0.00 | 0.00 | 79 | 1009.5 |
| 20260831024907 | 25 | 251 | 9.7 | 22.5 | 0.00 | 0.00 | 0.00 | 79 | 1009.5 |
| 20260831024812 | 25 | 236 | 9.7 | 22.5 | 0.00 | 0.00 | 0.00 | 79 | 1009.5 |
| 20260831024656 | 25 | 264 | 14.5 | 22.5 | 0.00 | 0.00 | 0.00 | 79 | 1009.5 |
| 20260831024600 | 25 | 254 | 16.1 | 22.5 | 0.00 | 0.00 | 0.00 | 79 | 1009.6 |
| 20260831024524 | 25 | 285 | 14.5 | 22.5 | 0.00 | 0.00 | 0.00 | 79 | 1009.6 |
| 20260831024412 | 25 | 248 | 12.9 | 22.5 | 0.00 | 0.00 | 0.00 | 79 | 1009.6 |
| 20260831024317 | 25 | 232 | 12.9 | 22.5 | 0.00 | 0.00 | 0.00 | 79 | 1009.6 |
| 20260831024155 | 25 | 237 | 14.5 | 22.5 | 0.00 | 0.00 | 0.00 | 79 | 1009.6 |
| 20260831024100 | 25 | 251 | 12.9 | 22.5 | 0.00 | 0.00 | 0.00 | 78 | 1009.6 |
| 20260831024005 | 25 | 250 | 11.3 | 20.9 | 0.00 | 0.00 | 0.00 | 78 | 1009.6 |
| 20260831023909 | 25 | 234 | 9.7 | 20.9 | 0.00 | 0.00 | 0.00 | 78 | 1009.6 |
| 20260831023758 | 25 | 250 | 9.7 | 20.9 | 0.00 | 0.00 | 0.00 | 78 | 1009.7 |
| 20260831023703 | 25 | 255 | 11.3 | 24.1 | 0.00 | 0.00 | 0.00 | 78 | 1009.7 |
| 20260831023607 | 26 | 217 | 11.3 | 24.1 | 0.00 | 0.00 | 0.00 | 78 | 1009.7 |
| 20260831023532 | 26 | 216 | 9.7 | 24.1 | 0.00 | 0.00 | 0.00 | 78 | 1009.7 |
| 20260831023355 | 26 | 237 | 12.9 | 24.1 | 0.00 | 0.00 | 0.00 | 77 | 1009.7 |
| 20260831023300 | 26 | 253 | 14.5 | 24.1 | 0.00 | 0.00 | 0.00 | 77 | 1009.7 |
| 20260831023209 | 26 | 242 | 12.9 | 24.1 | 0.00 | 0.00 | 0.00 | 77 | 1009.7 |
| 20260831023054 | 26 | 232 | 12.9 | 24.1 | 0.00 | 0.00 | 0.00 | 77 | 1009.7 |
| 20260831022959 | 26 | 222 | 14.5 | 24.1 | 0.00 | 0.00 | 0.00 | 77 | 1009.7 |
| 20260831022924 | 26 | 284 | 14.5 | 24.1 | 0.00 | 0.00 | 0.00 | 77 | 1009.7 |
| 20260831022807 | 26 | 225 | 12.9 | 20.9 | 0.00 | 0.00 | 0.00 | 77 | 1009.7 |
| 20260831022712 | 26 | 259 | 9.7 | 20.9 | 0.00 | 0.00 | 0.00 | 76 | 1009.7 |
| 20260831022601 | 26 | 252 | 11.3 | 20.9 | 0.00 | 0.00 | 0.00 | 76 | 1009.7 |
| 20260831022506 | 26 | 231 | 12.9 | 20.9 | 0.00 | 0.00 | 0.00 | 76 | 1009.7 |
| 20260831022411 | 26 | 245 | 14.5 | 20.9 | 0.00 | 0.00 | 0.00 | 76 | 1009.7 |
| 20260831022256 | 26 | 265 | 12.9 | 20.9 | 0.00 | 0.00 | 0.00 | 76 | 1009.7 |
| 20260831022200 | 26 | 247 | 9.7 | 20.9 | 0.00 | 0.00 | 0.00 | 76 | 1009.7 |
| 20260831022104 | 26 | 224 | 9.7 | 20.9 | 0.00 | 0.00 | 0.00 | 76 | 1009.6 |
| 20260831022029 | 26 | 242 | 11.3 | 20.9 | 0.00 | 0.00 | 0.00 | 76 | 1009.6 |
| 20260831021857 | 26 | 238 | 9.7 | 22.5 | 0.00 | 0.00 | 0.00 | 75 | 1009.7 |
| 20260831021801 | 26 | 224 | 9.7 | 22.5 | 0.00 | 0.00 | 0.00 | 75 | 1009.7 |
| 20260831021726 | 26 | 268 | 11.3 | 22.5 | 0.00 | 0.00 | 0.00 | 75 | 1009.6 |
| 20260831021610 | 26 | 228 | 11.3 | 22.5 | 0.00 | 0.00 | 0.00 | 75 | 1009.6 |
| 20260831021515 | 26 | 274 | 9.7 | 22.5 | 0.00 | 0.00 | 0.00 | 75 | 1009.6 |
| 20260831021359 | 26 | 289 | 11.3 | 22.5 | 0.00 | 0.00 | 0.00 | 75 | 1009.6 |
| 20260831021308 | 26 | 263 | 12.9 | 22.5 | 0.00 | 0.00 | 0.00 | 75 | 1009.6 |
| 20260831021213 | 26 | 233 | 12.9 | 22.5 | 0.00 | 0.00 | 0.00 | 75 | 1009.5 |
| 20260831021117 | 26 | 220 | 12.9 | 22.5 | 0.00 | 0.00 | 0.00 | 75 | 1009.5 |
| 20260831020955 | 26 | 261 | 9.7 | 22.5 | 0.00 | 0.00 | 0.00 | 75 | 1009.5 |
| 20260831020859 | 26 | 267 | 11.3 | 24.1 | 0.00 | 0.00 | 0.00 | 75 | 1009.6 |
| 20260831020824 | 26 | 265 | 12.9 | 24.1 | 0.00 | 0.00 | 0.00 | 74 | 1009.5 |
| 20260831020708 | 26 | 257 | 11.3 | 24.1 | 0.00 | 0.00 | 0.00 | 74 | 1009.5 |
| 20260831020617 | 26 | 236 | 9.7 | 24.1 | 0.00 | 0.00 | 0.00 | 74 | 1009.4 |
| 20260831020455 | 26 | 225 | 12.9 | 24.1 | 0.00 | 0.00 | 0.00 | 74 | 1009.5 |
| 20260831020400 | 26 | 289 | 12.9 | 24.1 | 0.00 | 0.00 | 0.00 | 74 | 1009.5 |
| 20260831020324 | 26 | 241 | 12.9 | 24.1 | 0.00 | 0.00 | 0.00 | 74 | 1009.4 |
| 20260831020208 | 26 | 265 | 14.5 | 24.1 | 0.00 | 0.00 | 0.00 | 74 | 1009.4 |
| 20260831020112 | 26 | 252 | 12.9 | 24.1 | 0.00 | 0.00 | 0.00 | 74 | 1009.5 |
| 20260831020001 | 26 | 258 | 12.9 | 24.1 | 0.00 | 0.00 | 0.00 | 74 | 1009.6 |
| 20260831015906 | 26 | 238 | 14.5 | 24.1 | 0.00 | 0.00 | 0.00 | 74 | 1009.5 |
| 20260831015811 | 27 | 273 | 14.5 | 25.7 | 0.00 | 0.00 | 0.00 | 74 | 1009.5 |
| 20260831015715 | 27 | 260 | 16.1 | 25.7 | 0.00 | 0.00 | 0.00 | 74 | 1009.6 |
| 20260831015640 | 27 | 257 | 16.1 | 25.7 | 0.00 | 0.00 | 0.00 | 74 | 1009.7 |
| 20260831015457 | 27 | 269 | 16.1 | 25.7 | 0.00 | 0.00 | 0.00 | 73 | 1009.6 |
| 20260831015402 | 27 | 225 | 14.5 | 25.7 | 0.00 | 0.00 | 0.00 | 74 | 1009.6 |
| 20260831015311 | 27 | 250 | 14.5 | 25.7 | 0.00 | 0.00 | 0.00 | 73 | 1009.6 |
| 20260831015216 | 27 | 266 | 14.5 | 25.7 | 0.00 | 0.00 | 0.00 | 74 | 1009.8 |
| 20260831015100 | 27 | 232 | 14.5 | 25.7 | 0.00 | 0.00 | 0.00 | 74 | 1009.7 |
| 20260831015004 | 27 | 236 | 14.5 | 33.8 | 0.00 | 0.00 | 0.00 | 74 | 1009.8 |
| 20260831014909 | 27 | 283 | 16.1 | 33.8 | 0.00 | 0.00 | 0.00 | 74 | 1009.8 |
| 20260831014754 | 27 | 254 | 16.1 | 33.8 | 0.00 | 0.00 | 0.00 | 74 | 1009.6 |
| 20260831014703 | 27 | 238 | 16.1 | 33.8 | 0.00 | 0.00 | 0.00 | 74 | 1009.7 |
| 20260831014608 | 27 | 255 | 17.7 | 33.8 | 0.00 | 0.00 | 0.00 | 75 | 1009.7 |
| 20260831014533 | 27 | 243 | 16.1 | 33.8 | 0.00 | 0.00 | 0.00 | 75 | 1009.6 |
| 20260831014357 | 27 | 274 | 17.7 | 33.8 | 0.00 | 0.00 | 0.00 | 76 | 1009.5 |
| 20260831014302 | 27 | 235 | 20.9 | 33.8 | 0.00 | 0.00 | 0.00 | 76 | 1009.5 |
| 20260831014228 | 26 | 227 | 19.3 | 33.8 | 0.00 | 0.00 | 0.00 | 77 | 1009.6 |
| 20260831014132 | 26 | 259 | 17.7 | 29.0 | 0.00 | 0.00 | 0.00 | 78 | 1009.6 |
| 20260831014019 | 26 | 243 | 17.7 | 29.0 | 0.00 | 0.00 | 0.00 | 79 | 1009.6 |
| 20260831013857 | 26 | 231 | 16.1 | 22.5 | 0.00 | 0.00 | 0.00 | 80 | 1009.5 |
| 20260831013802 | 26 | 256 | 12.9 | 16.1 | 0.00 | 0.00 | 0.00 | 81 | 1009.5 |
| 20260831013707 | 26 | 244 | 12.9 | 17.7 | 0.00 | 0.00 | 0.00 | 82 | 1009.5 |
| 20260831013611 | 26 | 243 | 11.3 | 16.1 | 0.00 | 0.00 | 0.00 | 82 | 1009.5 |
| 20260831013456 | 26 | 236 | 8.0 | 14.5 | 0.00 | 0.00 | 0.00 | 83 | 1009.5 |
| 20260831013425 | 26 | 221 | 8.0 | 16.1 | 0.00 | 0.00 | 0.00 | 83 | 1009.5 |
| 20260831013309 | 26 | 248 | 9.7 | 16.1 | 0.00 | 0.00 | 0.00 | 83 | 1009.5 |
| 20260831013154 | 26 | 206 | 9.7 | 16.1 | 0.00 | 0.00 | 0.00 | 83 | 1009.4 |
| 20260831013058 | 26 | 221 | 8.0 | 16.1 | 0.00 | 0.00 | 0.00 | 83 | 1009.4 |
| 20260831013003 | 26 | 217 | 6.4 | 16.1 | 0.00 | 0.00 | 0.00 | 83 | 1009.4 |
| 20260831012927 | 26 | 216 | 8.0 | 16.1 | 0.00 | 0.00 | 0.00 | 83 | 1009.4 |
| 20260831012754 | 26 | 211 | 9.7 | 16.1 | 0.00 | 0.00 | 0.00 | 83 | 1009.2 |
| 20260831012659 | 26 | 215 | 11.3 | 16.1 | 0.00 | 0.00 | 0.00 | 83 | 1009.2 |
| 20260831012624 | 26 | 226 | 11.3 | 16.1 | 0.00 | 0.00 | 0.00 | 83 | 1009.2 |
| 20260831012508 | 26 | 234 | 9.7 | 16.1 | 0.00 | 0.00 | 0.00 | 83 | 1009.2 |
| 20260831012433 | 26 | 212 | 9.7 | 16.1 | 0.00 | 0.00 | 0.00 | 83 | 1009.1 |
| 20260831012256 | 26 | 192 | 9.7 | 17.7 | 0.00 | 0.00 | 0.00 | 83 | 1009.1 |
| 20260831012201 | 26 | 225 | 9.7 | 17.7 | 0.00 | 0.00 | 0.00 | 83 | 1009.0 |
| 20260831012126 | 26 | 209 | 9.7 | 17.7 | 0.00 | 0.00 | 0.00 | 83 | 1009.1 |
| 20260831011954 | 26 | 226 | 11.3 | 17.7 | 0.00 | 0.00 | 0.00 | 83 | 1009.1 |
| 20260831011919 | 26 | 220 | 11.3 | 17.7 | 0.00 | 0.00 | 0.00 | 83 | 1009.2 |
| 20260831011803 | 26 | 221 | 11.3 | 17.7 | 0.00 | 0.00 | 0.00 | 82 | 1009.1 |
| 20260831011708 | 26 | 231 | 11.3 | 17.7 | 0.00 | 0.00 | 0.00 | 82 | 1009.1 |
| 20260831011633 | 26 | 201 | 11.3 | 17.7 | 0.00 | 0.00 | 0.00 | 82 | 1009.1 |
| 20260831011517 | 26 | 209 | 11.3 | 17.7 | 0.00 | 0.00 | 0.00 | 82 | 1009.1 |
| 20260831011357 | 26 | 207 | 11.3 | 16.1 | 0.00 | 0.00 | 0.00 | 82 | 1009.1 |
| 20260831011306 | 26 | 213 | 11.3 | 16.1 | 0.00 | 0.00 | 0.00 | 82 | 1009.1 |
| 20260831011211 | 26 | 235 | 11.3 | 16.1 | 0.00 | 0.00 | 0.00 | 82 | 1009.1 |
| 20260831011055 | 26 | 221 | 11.3 | 16.1 | 0.00 | 0.00 | 0.00 | 82 | 1009.1 |
| 20260831011000 | 26 | 225 | 11.3 | 16.1 | 0.00 | 0.00 | 0.00 | 82 | 1009.1 |
| 20260831010904 | 26 | 213 | 11.3 | 16.1 | 0.00 | 0.00 | 0.00 | 82 | 1009.1 |
| 20260831010807 | 26 | 203 | 9.7 | 16.1 | 0.00 | 0.00 | 0.00 | 82 | 1009.1 |
| 20260831010656 | 27 | 219 | 8.0 | 16.1 | 0.00 | 0.00 | 0.00 | 82 | 1009.1 |
| 20260831010621 | 27 | 231 | 9.7 | 16.1 | 0.00 | 0.00 | 0.00 | 82 | 1009.1 |
| 20260831010523 | 27 | 208 | 9.7 | 16.1 | 0.00 | 0.00 | 0.00 | 82 | 1009.1 |
| 20260831010405 | 27 | 223 | 9.7 | 16.1 | 0.00 | 0.00 | 0.00 | 82 | 1009.1 |
| 20260831010310 | 27 | 200 | 11.3 | 16.1 | 0.00 | 0.00 | 0.00 | 82 | 1009.1 |
| 20260831010155 | 27 | 216 | 11.3 | 17.7 | 0.00 | 0.00 | 0.00 | 82 | 1009.1 |
| 20260831010100 | 27 | 211 | 11.3 | 16.1 | 0.00 | 0.00 | 0.00 | 82 | 1009.1 |
| 20260831010009 | 27 | 214 | 9.7 | 16.1 | 0.00 | 0.00 | 0.00 | 82 | 1009.1 |
| 20260831005934 | 27 | 215 | 9.7 | 16.1 | 0.00 | 0.00 | 0.00 | 82 | 1009.0 |
| 20260831005758 | 27 | 191 | 9.7 | 16.1 | 0.00 | 0.00 | 0.00 | 82 | 1009.0 |
| 20260831005703 | 27 | 192 | 8.0 | 16.1 | 0.00 | 0.00 | 0.00 | 82 | 1009.0 |
| 20260831005608 | 27 | 180 | 9.7 | 16.1 | 0.00 | 0.00 | 0.00 | 82 | 1009.0 |
| 20260831005512 | 27 | 174 | 11.3 | 16.1 | 0.00 | 0.00 | 0.00 | 82 | 1009.0 |
| 20260831005401 | 27 | 175 | 11.3 | 17.7 | 0.00 | 0.00 | 0.00 | 82 | 1008.9 |
| 20260831005327 | 27 | 195 | 9.7 | 17.7 | 0.00 | 0.00 | 0.00 | 82 | 1008.8 |
| 20260831005231 | 27 | 169 | 11.3 | 17.7 | 0.00 | 0.00 | 0.00 | 82 | 1008.8 |
| 20260831005134 | 27 | 173 | 12.9 | 17.7 | 0.00 | 0.00 | 0.00 | 81 | 1008.9 |
| 20260831004958 | 27 | 173 | 12.9 | 17.7 | 0.00 | 0.00 | 0.00 | 81 | 1008.8 |
| 20260831004903 | 27 | 171 | 12.9 | 17.7 | 0.00 | 0.00 | 0.00 | 81 | 1008.8 |
| 20260831004808 | 27 | 194 | 12.9 | 17.7 | 0.00 | 0.00 | 0.00 | 81 | 1008.8 |
| 20260831004733 | 27 | 157 | 12.9 | 17.7 | 0.00 | 0.00 | 0.00 | 81 | 1008.8 |
| 20260831004600 | 27 | 198 | 12.9 | 17.7 | 0.00 | 0.00 | 0.00 | 81 | 1008.8 |
| 20260831004505 | 27 | 175 | 11.3 | 17.7 | 0.00 | 0.00 | 0.00 | 81 | 1008.9 |
| 20260831004410 | 27 | 186 | 11.3 | 17.7 | 0.00 | 0.00 | 0.00 | 81 | 1008.9 |
| 20260831004255 | 27 | 188 | 11.3 | 16.1 | 0.00 | 0.00 | 0.00 | 81 | 1008.9 |
| 20260831004200 | 27 | 201 | 9.7 | 16.1 | 0.00 | 0.00 | 0.00 | 81 | 1008.9 |
| 20260831004105 | 27 | 182 | 8.0 | 16.1 | 0.00 | 0.00 | 0.00 | 81 | 1009.0 |
| 20260831003954 | 27 | 194 | 6.4 | 16.1 | 0.00 | 0.00 | 0.00 | 81 | 1009.0 |
| 20260831003859 | 27 | 190 | 9.7 | 16.1 | 0.00 | 0.00 | 0.00 | 80 | 1009.0 |
| 20260831003804 | 27 | 183 | 9.7 | 16.1 | 0.00 | 0.00 | 0.00 | 80 | 1009.1 |
| 20260831003709 | 27 | 190 | 11.3 | 16.1 | 0.00 | 0.00 | 0.00 | 80 | 1009.1 |
| 20260831003613 | 27 | 203 | 11.3 | 16.1 | 0.00 | 0.00 | 0.00 | 80 | 1009.1 |
| 20260831003517 | 27 | 190 | 11.3 | 16.1 | 0.00 | 0.00 | 0.00 | 80 | 1009.1 |
| 20260831003405 | 27 | 188 | 9.7 | 16.1 | 0.00 | 0.00 | 0.00 | 80 | 1009.1 |
| 20260831003310 | 27 | 197 | 11.3 | 16.1 | 0.00 | 0.00 | 0.00 | 80 | 1009.1 |
| 20260831003215 | 27 | 207 | 12.9 | 16.1 | 0.00 | 0.00 | 0.00 | 80 | 1009.2 |
| 20260831003059 | 27 | 187 | 12.9 | 20.9 | 0.00 | 0.00 | 0.00 | 80 | 1009.1 |
| 20260831003023 | 27 | 202 | 11.3 | 20.9 | 0.00 | 0.00 | 0.00 | 80 | 1009.1 |
| 20260831002927 | 27 | 196 | 9.7 | 20.9 | 0.00 | 0.00 | 0.00 | 80 | 1009.1 |
| 20260831002811 | 27 | 206 | 8.0 | 20.9 | 0.00 | 0.00 | 0.00 | 80 | 1009.1 |
| 20260831002700 | 27 | 191 | 9.7 | 20.9 | 0.00 | 0.00 | 0.00 | 80 | 1009.0 |
| 20260831002605 | 27 | 199 | 11.3 | 20.9 | 0.00 | 0.00 | 0.00 | 79 | 1009.1 |
| 20260831002510 | 27 | 197 | 12.9 | 20.9 | 0.00 | 0.00 | 0.00 | 79 | 1009.1 |
| 20260831002355 | 27 | 203 | 14.5 | 20.9 | 0.00 | 0.00 | 0.00 | 79 | 1008.9 |
| 20260831002259 | 27 | 197 | 14.5 | 20.9 | 0.00 | 0.00 | 0.00 | 79 | 1008.9 |
| 20260831002224 | 27 | 207 | 12.9 | 19.3 | 0.00 | 0.00 | 0.00 | 79 | 1008.9 |
| 20260831002112 | 27 | 202 | 12.9 | 22.5 | 0.00 | 0.00 | 0.00 | 79 | 1008.9 |
| 20260831002018 | 27 | 197 | 12.9 | 22.5 | 0.00 | 0.00 | 0.00 | 79 | 1008.9 |
| 20260831001855 | 27 | 197 | 12.9 | 22.5 | 0.00 | 0.00 | 0.00 | 79 | 1008.9 |
| 20260831001800 | 27 | 207 | 12.9 | 24.1 | 0.00 | 0.00 | 0.00 | 79 | 1009.0 |
| 20260831001705 | 27 | 190 | 9.7 | 22.5 | 0.00 | 0.00 | 0.00 | 79 | 1009.0 |
| 20260831001630 | 27 | 194 | 8.0 | 22.5 | 0.00 | 0.00 | 0.00 | 79 | 1009.0 |
| 20260831001458 | 28 | 205 | 9.7 | 22.5 | 0.00 | 0.00 | 0.00 | 78 | 1008.9 |
| 20260831001403 | 28 | 219 | 11.3 | 22.5 | 0.00 | 0.00 | 0.00 | 78 | 1009.0 |
| 20260831001328 | 28 | 220 | 11.3 | 22.5 | 0.00 | 0.00 | 0.00 | 78 | 1009.0 |
| 20260831001212 | 28 | 215 | 11.3 | 22.5 | 0.00 | 0.00 | 0.00 | 78 | 1008.8 |
| 20260831001057 | 28 | 198 | 14.5 | 22.5 | 0.00 | 0.00 | 0.00 | 78 | 1008.8 |
| 20260831001002 | 28 | 223 | 14.5 | 22.5 | 0.00 | 0.00 | 0.00 | 78 | 1008.9 |
| 20260831000907 | 28 | 196 | 12.9 | 20.9 | 0.00 | 0.00 | 0.00 | 78 | 1008.9 |
| 20260831000756 | 28 | 202 | 12.9 | 20.9 | 0.00 | 0.00 | 0.00 | 78 | 1008.9 |
| 20260831000700 | 28 | 197 | 12.9 | 20.9 | 0.00 | 0.00 | 0.00 | 78 | 1008.9 |
| 20260831000605 | 28 | 210 | 12.9 | 20.9 | 0.00 | 0.00 | 0.00 | 78 | 1008.8 |
| 20260831000510 | 28 | 186 | 12.9 | 20.9 | 0.00 | 0.00 | 0.00 | 78 | 1008.8 |
| 20260831000355 | 28 | 219 | 14.5 | 19.3 | 0.00 | 0.00 | 0.00 | 78 | 1008.8 |
| 20260831000300 | 28 | 204 | 12.9 | 19.3 | 0.00 | 0.00 | 0.00 | 78 | 1008.8 |
| 20260831000211 | 28 | 201 | 12.9 | 19.3 | 0.00 | 0.00 | 0.00 | 78 | 1008.8 |
| 20260831000133 | 28 | 177 | 11.3 | 19.3 | 0.00 | 0.00 | 0.00 | 78 | 1008.8 |
| 20260831000037 | 28 | 192 | 11.3 | 19.3 | 0.00 | 0.00 | 0.00 | 78 | 1008.7 |
| 20260830235854 | 28 | 204 | 11.3 | 19.3 | 0.00 | 0.00 | 0.00 | 78 | 1008.8 |
| 20260830235704 | 28 | 138 | 9.7 | 19.3 | 0.00 | 0.00 | 0.00 | 78 | 1008.8 |
| 20260830235609 | 28 | 184 | 9.7 | 14.5 | 0.00 | 0.00 | 0.00 | 78 | 1008.8 |
| 20260830235518 | 28 | 186 | 11.3 | 14.5 | 0.00 | 0.00 | 0.00 | 78 | 1008.8 |
| 20260830235356 | 28 | 182 | 11.3 | 14.5 | 0.00 | 0.00 | 0.00 | 78 | 1008.8 |
| 20260830235321 | 28 | 188 | 9.7 | 14.5 | 0.00 | 0.00 | 0.00 | 78 | 1008.8 |
| 20260830235205 | 28 | 204 | 9.7 | 11.3 | 0.00 | 0.00 | 0.00 | 78 | 1008.9 |
| 20260830235110 | 28 | 182 | 8.0 | 11.3 | 0.00 | 0.00 | 0.00 | 78 | 1008.9 |
| 20260830235034 | 28 | 185 | 8.0 | 12.9 | 0.00 | 0.00 | 0.00 | 78 | 1008.9 |
| 20260830234902 | 28 | 178 | 8.0 | 12.9 | 0.00 | 0.00 | 0.00 | 78 | 1009.0 |
| 20260830234807 | 28 | 182 | 8.0 | 16.1 | 0.00 | 0.00 | 0.00 | 77 | 1009.0 |
| 20260830234712 | 28 | 187 | 6.4 | 16.1 | 0.00 | 0.00 | 0.00 | 77 | 1009.0 |
| 20260830234557 | 28 | 163 | 6.4 | 16.1 | 0.00 | 0.00 | 0.00 | 77 | 1008.9 |
| 20260830234502 | 28 | 173 | 9.7 | 16.1 | 0.00 | 0.00 | 0.00 | 77 | 1009.0 |
| 20260830234406 | 28 | 171 | 9.7 | 17.7 | 0.00 | 0.00 | 0.00 | 77 | 1009.0 |
| 20260830234315 | 28 | 188 | 9.7 | 17.7 | 0.00 | 0.00 | 0.00 | 77 | 1008.9 |
| 20260830234219 | 28 | 198 | 9.7 | 17.7 | 0.00 | 0.00 | 0.00 | 77 | 1009.0 |
| 20260830234123 | 28 | 190 | 11.3 | 17.7 | 0.00 | 0.00 | 0.00 | 77 | 1009.1 |
| 20260830234007 | 28 | 189 | 11.3 | 17.7 | 0.00 | 0.00 | 0.00 | 77 | 1009.1 |
| 20260830233911 | 28 | 196 | 11.3 | 17.7 | 0.00 | 0.00 | 0.00 | 77 | 1009.0 |
| 20260830233816 | 28 | 192 | 9.7 | 17.7 | 0.00 | 0.00 | 0.00 | 77 | 1009.1 |
| 20260830233721 | 28 | 194 | 11.3 | 17.7 | 0.00 | 0.00 | 0.00 | 77 | 1009.1 |
| 20260830233558 | 28 | 233 | 11.3 | 17.7 | 0.00 | 0.00 | 0.00 | 77 | 1009.1 |
| 20260830233507 | 28 | 208 | 9.7 | 17.7 | 0.00 | 0.00 | 0.00 | 77 | 1009.1 |
| 20260830233412 | 28 | 202 | 8.0 | 16.1 | 0.00 | 0.00 | 0.00 | 77 | 1009.0 |
| 20260830233317 | 28 | 197 | 9.7 | 16.1 | 0.00 | 0.00 | 0.00 | 77 | 1009.0 |
| 20260830233201 | 28 | 208 | 11.3 | 16.1 | 0.00 | 0.00 | 0.00 | 77 | 1008.9 |
| 20260830233126 | 28 | 196 | 11.3 | 16.1 | 0.00 | 0.00 | 0.00 | 78 | 1008.9 |
| 20260830233010 | 28 | 231 | 12.9 | 16.1 | 0.00 | 0.00 | 0.00 | 77 | 1008.9 |
| 20260830232858 | 28 | 161 | 12.9 | 16.1 | 0.00 | 0.00 | 0.00 | 77 | 1008.9 |
| 20260830232803 | 28 | 198 | 12.9 | 16.1 | 0.00 | 0.00 | 0.00 | 77 | 1008.9 |
| 20260830232708 | 28 | 179 | 12.9 | 17.7 | 0.00 | 0.00 | 0.00 | 77 | 1008.9 |
| 20260830232613 | 28 | 191 | 11.3 | 19.3 | 0.00 | 0.00 | 0.00 | 78 | 1008.9 |
| 20260830232518 | 28 | 196 | 11.3 | 19.3 | 0.00 | 0.00 | 0.00 | 77 | 1008.9 |
| 20260830232356 | 28 | 193 | 11.3 | 19.3 | 0.00 | 0.00 | 0.00 | 77 | 1008.9 |
| 20260830232306 | 28 | 202 | 12.9 | 19.3 | 0.00 | 0.00 | 0.00 | 77 | 1008.9 |
| 20260830232210 | 28 | 176 | 12.9 | 19.3 | 0.00 | 0.00 | 0.00 | 77 | 1008.9 |
| 20260830232055 | 28 | 206 | 9.7 | 19.3 | 0.00 | 0.00 | 0.00 | 77 | 1008.9 |
| 20260830232020 | 28 | 172 | 11.3 | 19.3 | 0.00 | 0.00 | 0.00 | 77 | 1008.8 |
| 20260830231904 | 28 | 186 | 12.9 | 19.3 | 0.00 | 0.00 | 0.00 | 77 | 1008.9 |
| 20260830231808 | 28 | 180 | 12.9 | 19.3 | 0.00 | 0.00 | 0.00 | 77 | 1008.9 |
| 20260830231657 | 28 | 191 | 9.7 | 16.1 | 0.00 | 0.00 | 0.00 | 78 | 1008.9 |
| 20260830231602 | 28 | 173 | 9.7 | 12.9 | 0.00 | 0.00 | 0.00 | 78 | 1009.0 |
| 20260830231507 | 28 | 190 | 9.7 | 12.9 | 0.00 | 0.00 | 0.00 | 78 | 1009.0 |
| 20260830231411 | 28 | 190 | 8.0 | 12.9 | 0.00 | 0.00 | 0.00 | 77 | 1009.1 |
| 20260830231316 | 28 | 194 | 8.0 | 16.1 | 0.00 | 0.00 | 0.00 | 78 | 1009.1 |
| 20260830231154 | 28 | 186 | 8.0 | 16.1 | 0.00 | 0.00 | 0.00 | 77 | 1009.2 |
| 20260830231103 | 28 | 209 | 8.0 | 16.1 | 0.00 | 0.00 | 0.00 | 78 | 1009.2 |
| 20260830231028 | 28 | 199 | 8.0 | 16.1 | 0.00 | 0.00 | 0.00 | 77 | 1009.2 |
| 20260830230912 | 28 | 194 | 8.0 | 16.1 | 0.00 | 0.00 | 0.00 | 77 | 1009.3 |
| 20260830230818 | 28 | 193 | 8.0 | 16.1 | 0.00 | 0.00 | 0.00 | 77 | 1009.2 |
| 20260830230656 | 28 | 188 | 8.0 | 16.1 | 0.00 | 0.00 | 0.00 | 77 | 1009.2 |
| 20260830230601 | 28 | 186 | 9.7 | 16.1 | 0.00 | 0.00 | 0.00 | 76 | 1009.2 |
| 20260830230521 | 28 | 193 | 11.3 | 17.7 | 0.00 | 0.00 | 0.00 | 76 | 1009.1 |
| 20260830230409 | 28 | 199 | 11.3 | 17.7 | 0.00 | 0.00 | 0.00 | 76 | 1009.1 |
| 20260830230254 | 28 | 187 | 9.7 | 22.5 | 0.00 | 0.00 | 0.00 | 76 | 1009.1 |
| 20260830230158 | 28 | 184 | 9.7 | 22.5 | 0.00 | 0.00 | 0.00 | 76 | 1009.1 |
| 20260830230007 | 28 | 198 | 9.7 | 22.5 | 0.00 | 0.00 | 0.00 | 75 | 1009.0 |
| 20260830225912 | 28 | 180 | 8.0 | 22.5 | 0.00 | 0.00 | 0.00 | 76 | 1008.9 |
| 20260830225821 | 28 | 180 | 9.7 | 22.5 | 0.00 | 0.00 | 0.00 | 76 | 1008.9 |
| 20260830225704 | 28 | 187 | 11.3 | 22.5 | 0.00 | 0.00 | 0.00 | 75 | 1009.0 |
| 20260830225609 | 28 | 186 | 12.9 | 22.5 | 0.00 | 0.00 | 0.00 | 76 | 1009.0 |
| 20260830225454 | 28 | 205 | 12.9 | 22.5 | 0.00 | 0.00 | 0.00 | 75 | 1008.9 |
| 20260830225359 | 28 | 188 | 11.3 | 19.3 | 0.00 | 0.00 | 0.00 | 76 | 1009.0 |
| 20260830225305 | 28 | 204 | 9.7 | 19.3 | 0.00 | 0.00 | 0.00 | 75 | 1008.9 |
| 20260830225212 | 28 | 198 | 9.7 | 19.3 | 0.00 | 0.00 | 0.00 | 76 | 1008.9 |
| 20260830225056 | 28 | 186 | 12.9 | 19.3 | 0.00 | 0.00 | 0.00 | 76 | 1008.9 |
| 20260830225021 | 28 | 191 | 14.5 | 20.9 | 0.00 | 0.00 | 0.00 | 76 | 1009.0 |
| 20260830224905 | 28 | 184 | 14.5 | 20.9 | 0.00 | 0.00 | 0.00 | 76 | 1009.0 |
| 20260830224810 | 28 | 189 | 14.5 | 20.9 | 0.00 | 0.00 | 0.00 | 76 | 1009.0 |
| 20260830224715 | 28 | 200 | 12.9 | 20.9 | 0.00 | 0.00 | 0.00 | 75 | 1008.9 |
| 20260830224558 | 28 | 196 | 11.3 | 20.9 | 0.00 | 0.00 | 0.00 | 75 | 1008.9 |
| 20260830224523 | 28 | 194 | 12.9 | 20.9 | 0.00 | 0.00 | 0.00 | 75 | 1008.9 |
| 20260830224411 | 28 | 179 | 12.9 | 20.9 | 0.00 | 0.00 | 0.00 | 75 | 1008.9 |
| 20260830224316 | 28 | 189 | 12.9 | 20.9 | 0.00 | 0.00 | 0.00 | 75 | 1009.1 |
| 20260830224241 | 28 | 198 | 11.3 | 20.9 | 0.00 | 0.00 | 0.00 | 75 | 1009.1 |
| 20260830224058 | 28 | 143 | 12.9 | 20.9 | 0.00 | 0.00 | 0.00 | 75 | 1008.9 |
| 20260830224023 | 28 | 196 | 12.9 | 20.9 | 0.00 | 0.00 | 0.00 | 74 | 1009.0 |
| 20260830223907 | 29 | 194 | 12.9 | 20.9 | 0.00 | 0.00 | 0.00 | 75 | 1009.0 |
| 20260830223832 | 29 | 198 | 12.9 | 20.9 | 0.00 | 0.00 | 0.00 | 75 | 1008.9 |
| 20260830223659 | 29 | 208 | 16.1 | 20.9 | 0.00 | 0.00 | 0.00 | 75 | 1008.9 |
| 20260830223603 | 29 | 192 | 14.5 | 20.9 | 0.00 | 0.00 | 0.00 | 75 | 1008.9 |
| 20260830223508 | 29 | 190 | 12.9 | 20.9 | 0.00 | 0.00 | 0.00 | 75 | 1008.9 |
| 20260830223433 | 29 | 190 | 9.7 | 19.3 | 0.00 | 0.00 | 0.00 | 76 | 1008.9 |
| 20260830223316 | 29 | 200 | 9.7 | 19.3 | 0.00 | 0.00 | 0.00 | 76 | 1008.9 |
| 20260830223154 | 28 | 171 | 12.9 | 19.3 | 0.00 | 0.00 | 0.00 | 75 | 1009.0 |
| 20260830223103 | 29 | 198 | 12.9 | 19.3 | 0.00 | 0.00 | 0.00 | 75 | 1008.9 |
| 20260830223008 | 29 | 171 | 11.3 | 19.3 | 0.00 | 0.00 | 0.00 | 75 | 1008.9 |
| 20260830222912 | 29 | 188 | 9.7 | 20.9 | 0.00 | 0.00 | 0.00 | 76 | 1009.0 |
| 20260830222757 | 28 | 151 | 9.7 | 20.9 | 0.00 | 0.00 | 0.00 | 76 | 1008.9 |
| 20260830222702 | 28 | 198 | 9.7 | 20.9 | 0.00 | 0.00 | 0.00 | 76 | 1008.9 |
| 20260830222626 | 28 | 177 | 11.3 | 20.9 | 0.00 | 0.00 | 0.00 | 76 | 1008.9 |
| 20260830222510 | 28 | 191 | 12.9 | 20.9 | 0.00 | 0.00 | 0.00 | 76 | 1008.9 |
| 20260830222439 | 28 | 166 | 12.9 | 20.9 | 0.00 | 0.00 | 0.00 | 76 | 1008.9 |
| 20260830222256 | 28 | 222 | 16.1 | 20.9 | 0.00 | 0.00 | 0.00 | 76 | 1008.8 |
| 20260830222201 | 28 | 186 | 16.1 | 20.9 | 0.00 | 0.00 | 0.00 | 76 | 1008.9 |
| 20260830222106 | 28 | 184 | 12.9 | 20.9 | 0.00 | 0.00 | 0.00 | 75 | 1008.9 |
| 20260830222010 | 28 | 193 | 9.7 | 19.3 | 0.00 | 0.00 | 0.00 | 76 | 1008.9 |
| 20260830221855 | 28 | 184 | 9.7 | 19.3 | 0.00 | 0.00 | 0.00 | 77 | 1008.9 |
| 20260830221803 | 28 | 180 | 12.9 | 19.3 | 0.00 | 0.00 | 0.00 | 76 | 1008.9 |
| 20260830221707 | 28 | 184 | 12.9 | 20.9 | 0.00 | 0.00 | 0.00 | 77 | 1008.9 |
| 20260830221612 | 28 | 189 | 11.3 | 17.7 | 0.00 | 0.00 | 0.00 | 77 | 1009.0 |
| 20260830221457 | 28 | 180 | 12.9 | 17.7 | 0.00 | 0.00 | 0.00 | 77 | 1009.0 |
| 20260830221402 | 28 | 186 | 11.3 | 17.7 | 0.00 | 0.00 | 0.00 | 77 | 1009.0 |
| 20260830221307 | 28 | 194 | 11.3 | 17.7 | 0.00 | 0.00 | 0.00 | 78 | 1009.0 |
| 20260830221216 | 28 | 165 | 11.3 | 17.7 | 0.00 | 0.00 | 0.00 | 78 | 1009.1 |
| 20260830221141 | 28 | 169 | 12.9 | 17.7 | 0.00 | 0.00 | 0.00 | 77 | 1009.1 |
| 20260830220958 | 28 | 216 | 11.3 | 17.7 | 0.00 | 0.00 | 0.00 | 77 | 1009.1 |
| 20260830220923 | 28 | 193 | 11.3 | 17.7 | 0.00 | 0.00 | 0.00 | 77 | 1009.1 |
| 20260830220807 | 28 | 180 | 12.9 | 17.7 | 0.00 | 0.00 | 0.00 | 78 | 1009.1 |
| 20260830220712 | 28 | 193 | 12.9 | 19.3 | 0.00 | 0.00 | 0.00 | 77 | 1009.1 |